Time,TemperatureF,DewpointF,PressureIn,WindDirection,WindDirectionDegrees,WindSpeedMPH,WindSpeedGustMPH,Humidity,HourlyPrecipIn,Conditions,Clouds,dailyrainin,SoftwareType,DateUTC
2013-04-03 00:00:00,65.5,53.4,30.09,NNW,338,0.0,0.0,65,0.00,,---,0.00,VWS V14.01,2013-04-03 04:00:00,
2013-04-03 00:01:00,65.5,53.4,30.09,NNW,338,0.0,0.0,65,0.00,,---,0.00,VWS V14.01,2013-04-03 04:01:00,
2013-04-03 00:02:00,65.5,53.8,30.09,NNW,338,0.0,0.0,66,0.00,,---,0.00,VWS V14.01,2013-04-03 04:02:00,
2013-04-03 00:03:00,65.3,53.7,30.09,NNW,338,0.0,0.0,66,0.00,,---,0.00,VWS V14.01,2013-04-03 04:03:00,
2013-04-03 00:04:00,65.3,53.7,30.09,NNW,338,0.0,0.0,66,0.00,,---,0.00,VWS V14.01,2013-04-03 04:04:00,
2013-04-03 00:05:00,65.1,53.1,30.09,NNW,338,0.0,0.0,65,0.00,,---,0.00,VWS V14.01,2013-04-03 04:05:00,
2013-04-03 00:06:00,65.1,53.1,30.09,NNW,338,0.0,0.0,65,0.00,,---,0.00,VWS V14.01,2013-04-03 04:06:00,
2013-04-03 00:07:00,65.1,53.1,30.09,NNW,338,0.0,0.0,65,0.00,,---,0.00,VWS V14.01,2013-04-03 04:07:00,
2013-04-03 00:08:00,65.1,53.1,30.09,NNW,338,0.0,0.0,65,0.00,,---,0.00,VWS V14.01,2013-04-03 04:08:00,
2013-04-03 00:09:00,65.1,53.1,30.09,NNW,338,0.0,0.0,65,0.00,,---,0.00,VWS V14.01,2013-04-03 04:09:00,
2013-04-03 00:10:00,65.1,53.5,30.09,NNW,338,0.0,0.0,66,0.00,,---,0.00,VWS V14.01,2013-04-03 04:10:00,
2013-04-03 00:11:00,65.1,53.1,30.09,NNW,338,0.0,0.0,65,0.00,,---,0.00,VWS V14.01,2013-04-03 04:11:00,
2013-04-03 00:12:00,65.1,53.5,30.09,NNW,338,0.0,0.0,66,0.00,,---,0.00,VWS V14.01,2013-04-03 04:12:00,
2013-04-03 00:13:00,64.9,52.9,30.09,NNW,338,0.0,0.0,65,0.00,,---,0.00,VWS V14.01,2013-04-03 04:13:00,
2013-04-03 00:14:00,64.9,52.9,30.09,NNW,338,0.0,0.0,65,0.00,,---,0.00,VWS V14.01,2013-04-03 04:14:00,
2013-04-03 00:15:00,64.9,52.9,30.09,NNW,338,0.0,0.0,65,0.00,,---,0.00,VWS V14.01,2013-04-03 04:15:00,
2013-04-03 00:16:00,64.9,52.9,30.09,NNW,338,0.0,0.0,65,0.00,,---,0.00,VWS V14.01,2013-04-03 04:16:00,
2013-04-03 00:17:00,64.9,52.9,30.09,NNW,338,0.0,0.0,65,0.00,,---,0.00,VWS V14.01,2013-04-03 04:17:00,
2013-04-03 00:18:00,64.8,52.7,30.09,NNW,338,0.0,0.0,65,0.00,,---,0.00,VWS V14.01,2013-04-03 04:18:00,
2013-04-03 00:19:00,64.8,52.7,30.09,NNW,338,0.0,0.0,65,0.00,,---,0.00,VWS V14.01,2013-04-03 04:19:00,
2013-04-03 00:20:00,64.8,52.7,30.09,NNW,338,0.0,0.0,65,0.00,,---,0.00,VWS V14.01,2013-04-03 04:20:00,
2013-04-03 00:21:00,64.8,52.7,30.09,NNW,338,0.0,0.0,65,0.00,,---,0.00,VWS V14.01,2013-04-03 04:21:00,
2013-04-03 00:22:00,64.8,52.7,30.09,NNW,338,0.0,0.0,65,0.00,,---,0.00,VWS V14.01,2013-04-03 04:22:00,
2013-04-03 00:23:00,64.8,52.7,30.09,NNW,338,0.0,0.0,65,0.00,,---,0.00,VWS V14.01,2013-04-03 04:23:00,
2013-04-03 00:24:00,64.6,53.0,30.09,NNW,338,0.0,0.0,66,0.00,,---,0.00,VWS V14.01,2013-04-03 04:24:00,
2013-04-03 00:25:00,64.4,52.8,30.09,NNW,338,0.0,0.0,66,0.00,,---,0.00,VWS V14.01,2013-04-03 04:25:00,
2013-04-03 00:26:00,64.6,53.0,30.09,NNW,338,0.0,0.0,66,0.00,,---,0.00,VWS V14.01,2013-04-03 04:26:00,
2013-04-03 00:27:00,64.4,52.8,30.06,NNW,338,0.0,0.0,66,0.00,,---,0.00,VWS V14.01,2013-04-03 04:27:00,
2013-04-03 00:28:00,64.4,52.8,30.06,NNW,338,0.0,0.0,66,0.00,,---,0.00,VWS V14.01,2013-04-03 04:28:00,
2013-04-03 00:29:00,64.4,52.8,30.06,NNW,338,0.0,0.0,66,0.00,,---,0.00,VWS V14.01,2013-04-03 04:29:00,
2013-04-03 00:30:00,64.4,52.8,30.06,NNW,338,0.0,0.0,66,0.00,,---,0.00,VWS V14.01,2013-04-03 04:30:00,
2013-04-03 00:31:00,64.4,52.8,30.06,NNW,338,0.0,0.0,66,0.00,,---,0.00,VWS V14.01,2013-04-03 04:31:00,
2013-04-03 00:32:00,64.2,53.0,30.06,NNW,338,0.0,0.0,67,0.00,,---,0.00,VWS V14.01,2013-04-03 04:32:00,
2013-04-03 00:33:00,64.2,53.0,30.06,NNW,338,0.0,0.0,67,0.00,,---,0.00,VWS V14.01,2013-04-03 04:33:00,
2013-04-03 00:34:00,64.2,52.6,30.06,NNW,338,0.0,0.0,66,0.00,,---,0.00,VWS V14.01,2013-04-03 04:34:00,
2013-04-03 00:35:00,64.2,52.6,30.06,NNW,338,0.0,0.0,66,0.00,,---,0.00,VWS V14.01,2013-04-03 04:35:00,
2013-04-03 00:36:00,64.2,52.6,30.06,NNW,338,0.0,0.0,66,0.00,,---,0.00,VWS V14.01,2013-04-03 04:36:00,
2013-04-03 00:37:00,64.2,53.0,30.06,NW,315,0.0,0.0,67,0.00,,---,0.00,VWS V14.01,2013-04-03 04:37:00,
2013-04-03 00:38:00,64.2,53.0,30.06,NW,315,0.0,0.0,67,0.00,,---,0.00,VWS V14.01,2013-04-03 04:38:00,
2013-04-03 00:39:00,64.2,53.0,30.06,NW,315,0.0,0.0,67,0.00,,---,0.00,VWS V14.01,2013-04-03 04:39:00,
2013-04-03 00:40:00,64.2,53.0,30.06,NW,315,0.0,0.0,67,0.00,,---,0.00,VWS V14.01,2013-04-03 04:40:00,
2013-04-03 00:41:00,64.2,53.0,30.06,NW,315,0.0,0.0,67,0.00,,---,0.00,VWS V14.01,2013-04-03 04:41:00,
2013-04-03 00:42:00,64.2,53.0,30.09,NW,315,0.0,0.0,67,0.00,,---,0.00,VWS V14.01,2013-04-03 04:42:00,
2013-04-03 00:43:00,64.0,52.9,30.09,NW,315,0.0,0.0,67,0.00,,---,0.00,VWS V14.01,2013-04-03 04:43:00,
2013-04-03 00:44:00,64.0,52.9,30.09,NW,315,0.0,0.0,67,0.00,,---,0.00,VWS V14.01,2013-04-03 04:44:00,
2013-04-03 00:45:00,64.0,53.3,30.09,NW,315,0.0,0.0,68,0.00,,---,0.00,VWS V14.01,2013-04-03 04:45:00,
2013-04-03 00:46:00,64.0,53.3,30.09,NW,315,0.0,0.0,68,0.00,,---,0.00,VWS V14.01,2013-04-03 04:46:00,
2013-04-03 00:47:00,63.9,53.1,30.09,NW,315,0.0,0.0,68,0.00,,---,0.00,VWS V14.01,2013-04-03 04:47:00,
2013-04-03 00:48:00,63.9,53.1,30.09,NW,315,0.0,0.0,68,0.00,,---,0.00,VWS V14.01,2013-04-03 04:48:00,
2013-04-03 00:49:00,63.9,53.1,30.09,NW,315,0.0,0.0,68,0.00,,---,0.00,VWS V14.01,2013-04-03 04:49:00,
2013-04-03 00:50:00,63.9,53.1,30.09,NW,315,0.0,0.0,68,0.00,,---,0.00,VWS V14.01,2013-04-03 04:50:00,
2013-04-03 00:51:00,63.9,53.1,30.09,NW,315,0.0,0.0,68,0.00,,---,0.00,VWS V14.01,2013-04-03 04:51:00,
2013-04-03 00:52:00,63.9,53.1,30.09,NW,315,0.0,0.0,68,0.00,,---,0.00,VWS V14.01,2013-04-03 04:52:00,
2013-04-03 00:53:00,63.9,53.1,30.09,NW,315,0.0,0.0,68,0.00,,---,0.00,VWS V14.01,2013-04-03 04:53:00,
2013-04-03 00:54:00,63.9,53.1,30.09,NW,315,0.0,0.0,68,0.00,,---,0.00,VWS V14.01,2013-04-03 04:54:00,
2013-04-03 00:55:00,63.9,53.5,30.09,NW,315,0.0,0.0,69,0.00,,---,0.00,VWS V14.01,2013-04-03 04:55:00,
2013-04-03 00:56:00,63.7,52.9,30.09,NW,315,0.0,0.0,68,0.00,,---,0.00,VWS V14.01,2013-04-03 04:56:00,
2013-04-03 00:57:00,63.9,53.5,30.09,NW,315,0.0,0.0,69,0.00,,---,0.00,VWS V14.01,2013-04-03 04:57:00,
2013-04-03 00:58:00,63.7,53.3,30.09,NW,315,0.0,0.0,69,0.00,,---,0.00,VWS V14.01,2013-04-03 04:58:00,
2013-04-03 00:59:00,63.7,53.3,30.09,NW,315,0.0,0.0,69,0.00,,---,0.00,VWS V14.01,2013-04-03 04:59:00,
2013-04-03 01:00:00,63.7,53.3,30.09,NW,315,0.0,0.0,69,0.00,,---,0.00,VWS V14.01,2013-04-03 05:00:00,
2013-04-03 01:01:00,63.7,53.3,30.09,NW,315,0.0,0.0,69,0.00,,---,0.00,VWS V14.01,2013-04-03 05:01:00,
2013-04-03 01:02:00,63.7,53.3,30.09,NW,315,0.0,0.0,69,0.00,,---,0.00,VWS V14.01,2013-04-03 05:02:00,
2013-04-03 01:03:00,63.7,53.7,30.09,NW,315,0.0,0.0,70,0.00,,---,0.00,VWS V14.01,2013-04-03 05:03:00,
2013-04-03 01:04:00,63.7,53.7,30.09,NW,315,0.0,0.0,70,0.00,,---,0.00,VWS V14.01,2013-04-03 05:04:00,
2013-04-03 01:05:00,63.9,53.9,30.09,NW,315,0.0,0.0,70,0.00,,---,0.00,VWS V14.01,2013-04-03 05:05:00,
2013-04-03 01:06:00,63.7,53.7,30.09,NW,315,0.0,0.0,70,0.00,,---,0.00,VWS V14.01,2013-04-03 05:06:00,
2013-04-03 01:07:00,63.7,53.7,30.09,NW,315,0.0,0.0,70,0.00,,---,0.00,VWS V14.01,2013-04-03 05:07:00,
2013-04-03 01:08:00,63.7,53.7,30.09,NW,315,0.0,0.0,70,0.00,,---,0.00,VWS V14.01,2013-04-03 05:08:00,
2013-04-03 01:09:00,63.7,53.7,30.09,NW,315,0.0,0.0,70,0.00,,---,0.00,VWS V14.01,2013-04-03 05:09:00,
2013-04-03 01:10:00,63.7,53.7,30.09,NW,315,0.0,0.0,70,0.00,,---,0.00,VWS V14.01,2013-04-03 05:10:00,
2013-04-03 01:11:00,63.7,53.7,30.09,NW,315,0.0,0.0,70,0.00,,---,0.00,VWS V14.01,2013-04-03 05:11:00,
2013-04-03 01:12:00,63.7,53.7,30.09,NW,315,0.0,0.0,70,0.00,,---,0.00,VWS V14.01,2013-04-03 05:12:00,
2013-04-03 01:13:00,63.7,53.3,30.09,NW,315,0.0,0.0,69,0.00,,---,0.00,VWS V14.01,2013-04-03 05:13:00,
2013-04-03 01:14:00,63.7,53.3,30.09,NW,315,0.0,0.0,69,0.00,,---,0.00,VWS V14.01,2013-04-03 05:14:00,
2013-04-03 01:15:00,63.5,53.5,30.09,NW,315,0.0,0.0,70,0.00,,---,0.00,VWS V14.01,2013-04-03 05:15:00,
2013-04-03 01:16:00,63.5,53.5,30.09,NW,315,0.0,0.0,70,0.00,,---,0.00,VWS V14.01,2013-04-03 05:16:00,
2013-04-03 01:17:00,63.5,53.5,30.09,NW,315,0.0,0.0,70,0.00,,---,0.00,VWS V14.01,2013-04-03 05:17:00,
2013-04-03 01:18:00,63.5,53.5,30.09,NW,315,0.0,0.0,70,0.00,,---,0.00,VWS V14.01,2013-04-03 05:18:00,
2013-04-03 01:19:00,63.5,53.5,30.09,NW,315,0.0,0.0,70,0.00,,---,0.00,VWS V14.01,2013-04-03 05:19:00,
2013-04-03 01:20:00,63.5,53.5,30.09,NW,315,0.0,0.0,70,0.00,,---,0.00,VWS V14.01,2013-04-03 05:20:00,
2013-04-03 01:21:00,63.3,53.0,30.09,NW,315,0.0,0.0,69,0.00,,---,0.00,VWS V14.01,2013-04-03 05:21:00,
2013-04-03 01:22:00,63.3,53.4,30.09,NW,315,0.0,0.0,70,0.00,,---,0.00,VWS V14.01,2013-04-03 05:22:00,
2013-04-03 01:23:00,63.3,53.4,30.09,NW,315,0.0,0.0,70,0.00,,---,0.00,VWS V14.01,2013-04-03 05:23:00,
2013-04-03 01:24:00,63.3,53.4,30.09,NW,315,0.0,0.0,70,0.00,,---,0.00,VWS V14.01,2013-04-03 05:24:00,
2013-04-03 01:25:00,63.3,53.4,30.09,NW,315,0.0,0.0,70,0.00,,---,0.00,VWS V14.01,2013-04-03 05:25:00,
2013-04-03 01:26:00,63.3,53.4,30.09,NW,315,0.0,0.0,70,0.00,,---,0.00,VWS V14.01,2013-04-03 05:26:00,
2013-04-03 01:27:00,63.1,53.2,30.09,NW,315,0.0,0.0,70,0.00,,---,0.00,VWS V14.01,2013-04-03 05:27:00,
2013-04-03 01:28:00,63.1,53.2,30.09,NW,315,0.0,0.0,70,0.00,,---,0.00,VWS V14.01,2013-04-03 05:28:00,
2013-04-03 01:29:00,63.1,53.2,30.09,NW,315,0.0,0.0,70,0.00,,---,0.00,VWS V14.01,2013-04-03 05:29:00,
2013-04-03 01:30:00,63.1,53.6,30.09,NW,315,0.0,0.0,71,0.00,,---,0.00,VWS V14.01,2013-04-03 05:30:00,
2013-04-03 01:31:00,63.1,53.6,30.09,NW,315,0.0,0.0,71,0.00,,---,0.00,VWS V14.01,2013-04-03 05:31:00,
2013-04-03 01:32:00,63.1,53.2,30.09,NW,315,0.0,0.0,70,0.00,,---,0.00,VWS V14.01,2013-04-03 05:32:00,
2013-04-03 01:33:00,63.1,53.2,30.09,NW,315,0.0,0.0,70,0.00,,---,0.00,VWS V14.01,2013-04-03 05:33:00,
2013-04-03 01:34:00,63.1,53.2,30.09,NW,315,0.0,0.0,70,0.00,,---,0.00,VWS V14.01,2013-04-03 05:34:00,
2013-04-03 01:35:00,63.1,53.6,30.09,NW,315,0.0,0.0,71,0.00,,---,0.00,VWS V14.01,2013-04-03 05:35:00,
2013-04-03 01:36:00,63.0,53.0,30.09,NW,315,0.0,0.0,70,0.00,,---,0.00,VWS V14.01,2013-04-03 05:36:00,
2013-04-03 01:37:00,63.0,53.4,30.09,NW,315,0.0,0.0,71,0.00,,---,0.00,VWS V14.01,2013-04-03 05:37:00,
2013-04-03 01:38:00,63.0,53.4,30.09,NW,315,0.0,0.0,71,0.00,,---,0.00,VWS V14.01,2013-04-03 05:38:00,
2013-04-03 01:39:00,63.0,53.4,30.09,NW,315,0.0,0.0,71,0.00,,---,0.00,VWS V14.01,2013-04-03 05:39:00,
2013-04-03 01:40:00,63.0,53.4,30.09,NW,315,0.0,0.0,71,0.00,,---,0.00,VWS V14.01,2013-04-03 05:40:00,
2013-04-03 01:41:00,63.1,53.6,30.09,NW,315,0.0,0.0,71,0.00,,---,0.00,VWS V14.01,2013-04-03 05:41:00,
2013-04-03 01:42:00,63.1,53.6,30.09,NW,315,0.0,0.0,71,0.00,,---,0.00,VWS V14.01,2013-04-03 05:42:00,
2013-04-03 01:43:00,63.1,53.6,30.09,NW,315,0.0,0.0,71,0.00,,---,0.00,VWS V14.01,2013-04-03 05:43:00,
2013-04-03 01:44:00,63.0,53.4,30.09,NW,315,0.0,0.0,71,0.00,,---,0.00,VWS V14.01,2013-04-03 05:44:00,
2013-04-03 01:45:00,63.0,53.8,30.09,NW,315,0.0,0.0,72,0.00,,---,0.00,VWS V14.01,2013-04-03 05:45:00,
2013-04-03 01:46:00,63.0,53.8,30.09,NW,315,0.0,0.0,72,0.00,,---,0.00,VWS V14.01,2013-04-03 05:46:00,
2013-04-03 01:47:00,63.0,53.4,30.09,NW,315,0.0,0.0,71,0.00,,---,0.00,VWS V14.01,2013-04-03 05:47:00,
2013-04-03 01:48:00,63.0,53.4,30.09,NW,315,0.0,0.0,71,0.00,,---,0.00,VWS V14.01,2013-04-03 05:48:00,
2013-04-03 01:49:00,63.0,53.8,30.09,NW,315,0.0,0.0,72,0.00,,---,0.00,VWS V14.01,2013-04-03 05:49:00,
2013-04-03 01:50:00,62.8,53.6,30.09,NW,315,0.0,0.0,72,0.00,,---,0.00,VWS V14.01,2013-04-03 05:50:00,
2013-04-03 01:51:00,62.8,53.6,30.09,NW,315,0.0,0.0,72,0.00,,---,0.00,VWS V14.01,2013-04-03 05:51:00,
2013-04-03 01:52:00,62.8,53.6,30.09,NW,315,0.0,0.0,72,0.00,,---,0.00,VWS V14.01,2013-04-03 05:52:00,
2013-04-03 01:53:00,62.8,53.6,30.09,NW,315,0.0,0.0,72,0.00,,---,0.00,VWS V14.01,2013-04-03 05:53:00,
2013-04-03 01:54:00,62.8,53.6,30.09,NW,315,0.0,0.0,72,0.00,,---,0.00,VWS V14.01,2013-04-03 05:54:00,
2013-04-03 01:55:00,62.8,53.6,30.09,NW,315,0.0,0.0,72,0.00,,---,0.00,VWS V14.01,2013-04-03 05:55:00,
2013-04-03 01:56:00,62.6,53.5,30.09,NW,315,0.0,0.0,72,0.00,,---,0.00,VWS V14.01,2013-04-03 05:56:00,
2013-04-03 01:57:00,62.6,53.5,30.06,NW,315,0.0,0.0,72,0.00,,---,0.00,VWS V14.01,2013-04-03 05:57:00,
2013-04-03 01:58:00,62.6,53.5,30.06,NW,315,0.0,0.0,72,0.00,,---,0.00,VWS V14.01,2013-04-03 05:58:00,
2013-04-03 01:59:00,62.6,53.5,30.06,NW,315,0.0,0.0,72,0.00,,---,0.00,VWS V14.01,2013-04-03 05:59:00,
2013-04-03 02:00:00,62.6,53.5,30.06,NW,315,0.0,0.0,72,0.00,,---,0.00,VWS V14.01,2013-04-03 06:00:00,
2013-04-03 02:01:00,62.6,53.5,30.06,NW,315,0.0,0.0,72,0.00,,---,0.00,VWS V14.01,2013-04-03 06:01:00,
2013-04-03 02:02:00,62.6,53.8,30.06,NW,315,0.0,0.0,73,0.00,,---,0.00,VWS V14.01,2013-04-03 06:02:00,
2013-04-03 02:03:00,62.6,53.8,30.06,NW,315,0.0,0.0,73,0.00,,---,0.00,VWS V14.01,2013-04-03 06:03:00,
2013-04-03 02:04:00,62.6,53.8,30.06,NW,315,0.0,0.0,73,0.00,,---,0.00,VWS V14.01,2013-04-03 06:04:00,
2013-04-03 02:05:00,62.6,53.8,30.06,NW,315,0.0,0.0,73,0.00,,---,0.00,VWS V14.01,2013-04-03 06:05:00,
2013-04-03 02:06:00,62.6,53.5,30.06,NW,315,0.0,0.0,72,0.00,,---,0.00,VWS V14.01,2013-04-03 06:06:00,
2013-04-03 02:07:00,62.6,53.5,30.06,NW,315,0.0,0.0,72,0.00,,---,0.00,VWS V14.01,2013-04-03 06:07:00,
2013-04-03 02:08:00,62.6,53.5,30.06,NW,315,0.0,0.0,72,0.00,,---,0.00,VWS V14.01,2013-04-03 06:08:00,
2013-04-03 02:09:00,62.6,53.5,30.06,NW,315,0.0,0.0,72,0.00,,---,0.00,VWS V14.01,2013-04-03 06:09:00,
2013-04-03 02:10:00,62.6,53.5,30.06,NW,315,0.0,0.0,72,0.00,,---,0.00,VWS V14.01,2013-04-03 06:10:00,
2013-04-03 02:11:00,62.6,53.5,30.06,NW,315,0.0,0.0,72,0.00,,---,0.00,VWS V14.01,2013-04-03 06:11:00,
2013-04-03 02:12:00,62.6,53.8,30.06,NW,315,0.0,0.0,73,0.00,,---,0.00,VWS V14.01,2013-04-03 06:12:00,
2013-04-03 02:13:00,62.6,53.8,30.06,NW,315,0.0,0.0,73,0.00,,---,0.00,VWS V14.01,2013-04-03 06:13:00,
2013-04-03 02:14:00,62.6,53.8,30.06,NW,315,0.0,0.0,73,0.00,,---,0.00,VWS V14.01,2013-04-03 06:14:00,
2013-04-03 02:15:00,62.6,53.8,30.06,NW,315,0.0,0.0,73,0.00,,---,0.00,VWS V14.01,2013-04-03 06:15:00,
2013-04-03 02:16:00,62.6,53.8,30.06,NW,315,0.0,0.0,73,0.00,,---,0.00,VWS V14.01,2013-04-03 06:16:00,
2013-04-03 02:17:00,62.4,53.7,30.06,NW,315,0.0,0.0,73,0.00,,---,0.00,VWS V14.01,2013-04-03 06:17:00,
2013-04-03 02:18:00,62.4,53.7,30.06,NW,315,0.0,0.0,73,0.00,,---,0.00,VWS V14.01,2013-04-03 06:18:00,
2013-04-03 02:19:00,62.4,53.7,30.06,NW,315,0.0,0.0,73,0.00,,---,0.00,VWS V14.01,2013-04-03 06:19:00,
2013-04-03 02:20:00,62.4,53.7,30.06,NW,315,0.0,0.0,73,0.00,,---,0.00,VWS V14.01,2013-04-03 06:20:00,
2013-04-03 02:21:00,62.2,53.5,30.06,NW,315,0.0,0.0,73,0.00,,---,0.00,VWS V14.01,2013-04-03 06:21:00,
2013-04-03 02:22:00,62.2,53.5,30.06,NW,315,0.0,0.0,73,0.00,,---,0.00,VWS V14.01,2013-04-03 06:22:00,
2013-04-03 02:23:00,62.2,53.5,30.06,NW,315,0.0,0.0,73,0.00,,---,0.00,VWS V14.01,2013-04-03 06:23:00,
2013-04-03 02:24:00,62.2,53.5,30.06,NW,315,0.0,0.0,73,0.00,,---,0.00,VWS V14.01,2013-04-03 06:24:00,
2013-04-03 02:25:00,62.2,53.5,30.06,NW,315,0.0,0.0,73,0.00,,---,0.00,VWS V14.01,2013-04-03 06:25:00,
2013-04-03 02:26:00,62.2,53.5,30.06,NW,315,0.0,0.0,73,0.00,,---,0.00,VWS V14.01,2013-04-03 06:26:00,
2013-04-03 02:27:00,62.1,53.7,30.06,NW,315,0.0,0.0,74,0.00,,---,0.00,VWS V14.01,2013-04-03 06:27:00,
2013-04-03 02:28:00,62.1,53.7,30.06,NW,315,0.0,0.0,74,0.00,,---,0.00,VWS V14.01,2013-04-03 06:28:00,
2013-04-03 02:29:00,62.1,53.7,30.06,NW,315,0.0,0.0,74,0.00,,---,0.00,VWS V14.01,2013-04-03 06:29:00,
2013-04-03 02:30:00,62.1,53.7,30.06,NW,315,0.0,0.0,74,0.00,,---,0.00,VWS V14.01,2013-04-03 06:30:00,
2013-04-03 02:31:00,61.9,53.5,30.06,NW,315,0.0,0.0,74,0.00,,---,0.00,VWS V14.01,2013-04-03 06:31:00,
2013-04-03 02:32:00,61.9,53.5,30.06,NW,315,0.0,0.0,74,0.00,,---,0.00,VWS V14.01,2013-04-03 06:32:00,
2013-04-03 02:33:00,61.9,53.5,30.06,NW,315,0.0,0.0,74,0.00,,---,0.00,VWS V14.01,2013-04-03 06:33:00,
2013-04-03 02:34:00,61.9,53.5,30.06,NW,315,0.0,0.0,74,0.00,,---,0.00,VWS V14.01,2013-04-03 06:34:00,
2013-04-03 02:35:00,61.9,53.5,30.06,NW,315,0.0,0.0,74,0.00,,---,0.00,VWS V14.01,2013-04-03 06:35:00,
2013-04-03 02:36:00,61.7,53.3,30.06,NW,315,0.0,0.0,74,0.00,,---,0.00,VWS V14.01,2013-04-03 06:36:00,
2013-04-03 02:37:00,61.7,53.3,30.06,NW,315,0.0,0.0,74,0.00,,---,0.00,VWS V14.01,2013-04-03 06:37:00,
2013-04-03 02:38:00,61.7,53.3,30.06,NW,315,0.0,0.0,74,0.00,,---,0.00,VWS V14.01,2013-04-03 06:38:00,
2013-04-03 02:39:00,61.7,53.3,30.06,NW,315,0.0,0.0,74,0.00,,---,0.00,VWS V14.01,2013-04-03 06:39:00,
2013-04-03 02:40:00,61.7,53.3,30.06,NW,315,0.0,0.0,74,0.00,,---,0.00,VWS V14.01,2013-04-03 06:40:00,
2013-04-03 02:41:00,61.7,53.0,30.06,NW,315,0.0,0.0,73,0.00,,---,0.00,VWS V14.01,2013-04-03 06:41:00,
2013-04-03 02:42:00,61.7,53.0,30.03,NW,315,0.0,0.0,73,0.00,,---,0.00,VWS V14.01,2013-04-03 06:42:00,
2013-04-03 02:43:00,61.7,53.0,30.03,NW,315,0.0,0.0,73,0.00,,---,0.00,VWS V14.01,2013-04-03 06:43:00,
2013-04-03 02:44:00,61.7,53.0,30.03,NW,315,0.0,0.0,73,0.00,,---,0.00,VWS V14.01,2013-04-03 06:44:00,
2013-04-03 02:45:00,61.7,53.0,30.03,NW,315,0.0,0.0,73,0.00,,---,0.00,VWS V14.01,2013-04-03 06:45:00,
2013-04-03 02:46:00,61.7,53.3,30.03,NW,315,0.0,0.0,74,0.00,,---,0.00,VWS V14.01,2013-04-03 06:46:00,
2013-04-03 02:47:00,61.7,53.3,30.03,NW,315,0.0,0.0,74,0.00,,---,0.00,VWS V14.01,2013-04-03 06:47:00,
2013-04-03 02:48:00,61.7,53.3,30.03,NW,315,0.0,0.0,74,0.00,,---,0.00,VWS V14.01,2013-04-03 06:48:00,
2013-04-03 02:49:00,61.7,53.3,30.03,NW,315,0.0,0.0,74,0.00,,---,0.00,VWS V14.01,2013-04-03 06:49:00,
2013-04-03 02:50:00,61.7,53.3,30.03,NW,315,0.0,0.0,74,0.00,,---,0.00,VWS V14.01,2013-04-03 06:50:00,
2013-04-03 02:51:00,61.7,53.7,30.03,NW,315,0.0,0.0,75,0.00,,---,0.00,VWS V14.01,2013-04-03 06:51:00,
2013-04-03 02:52:00,61.7,53.7,30.03,NW,315,0.0,0.0,75,0.00,,---,0.00,VWS V14.01,2013-04-03 06:52:00,
2013-04-03 02:53:00,61.5,53.5,30.03,NW,315,0.0,0.0,75,0.00,,---,0.00,VWS V14.01,2013-04-03 06:53:00,
2013-04-03 02:54:00,61.5,53.5,30.03,NW,315,0.0,0.0,75,0.00,,---,0.00,VWS V14.01,2013-04-03 06:54:00,
2013-04-03 02:55:00,61.7,53.7,30.03,NW,315,0.0,0.0,75,0.00,,---,0.00,VWS V14.01,2013-04-03 06:55:00,
2013-04-03 02:56:00,61.7,53.7,30.03,NW,315,0.0,0.0,75,0.00,,---,0.00,VWS V14.01,2013-04-03 06:56:00,
2013-04-03 02:57:00,61.7,53.7,30.03,NW,315,0.0,0.0,75,0.00,,---,0.00,VWS V14.01,2013-04-03 06:57:00,
2013-04-03 02:58:00,61.7,54.1,30.03,NW,315,0.0,0.0,76,0.00,,---,0.00,VWS V14.01,2013-04-03 06:58:00,
2013-04-03 02:59:00,61.7,54.1,30.03,NW,315,0.0,0.0,76,0.00,,---,0.00,VWS V14.01,2013-04-03 06:59:00,
2013-04-03 03:00:00,61.7,54.1,30.03,NW,315,0.0,0.0,76,0.00,,---,0.00,VWS V14.01,2013-04-03 07:00:00,
2013-04-03 03:01:00,61.7,54.1,30.03,NW,315,0.0,0.0,76,0.00,,---,0.00,VWS V14.01,2013-04-03 07:01:00,
2013-04-03 03:02:00,61.7,54.1,30.03,NW,315,0.0,0.0,76,0.00,,---,0.00,VWS V14.01,2013-04-03 07:02:00,
2013-04-03 03:03:00,61.7,54.1,30.03,NW,315,0.0,0.0,76,0.00,,---,0.00,VWS V14.01,2013-04-03 07:03:00,
2013-04-03 03:04:00,61.7,54.1,30.03,NW,315,0.0,0.0,76,0.00,,---,0.00,VWS V14.01,2013-04-03 07:04:00,
2013-04-03 03:05:00,61.7,54.4,30.03,NW,315,0.0,0.0,77,0.00,,---,0.00,VWS V14.01,2013-04-03 07:05:00,
2013-04-03 03:06:00,61.7,54.4,30.03,NW,315,0.0,0.0,77,0.00,,---,0.00,VWS V14.01,2013-04-03 07:06:00,
2013-04-03 03:07:00,61.7,54.4,30.03,NW,315,0.0,0.0,77,0.00,,---,0.00,VWS V14.01,2013-04-03 07:07:00,
2013-04-03 03:08:00,61.7,54.4,30.03,NW,315,0.0,0.0,77,0.00,,---,0.00,VWS V14.01,2013-04-03 07:08:00,
2013-04-03 03:09:00,61.7,54.4,30.03,NW,315,0.0,0.0,77,0.00,,---,0.00,VWS V14.01,2013-04-03 07:09:00,
2013-04-03 03:10:00,61.7,54.4,30.03,NW,315,0.0,0.0,77,0.00,,---,0.00,VWS V14.01,2013-04-03 07:10:00,
2013-04-03 03:11:00,61.9,54.6,30.03,NW,315,0.0,0.0,77,0.00,,---,0.00,VWS V14.01,2013-04-03 07:11:00,
2013-04-03 03:12:00,61.9,54.6,30.03,NW,315,0.0,0.0,77,0.00,,---,0.00,VWS V14.01,2013-04-03 07:12:00,
2013-04-03 03:13:00,61.9,54.6,30.03,NW,315,0.0,0.0,77,0.00,,---,0.00,VWS V14.01,2013-04-03 07:13:00,
2013-04-03 03:14:00,61.9,55.0,30.03,NW,315,0.0,0.0,78,0.00,,---,0.00,VWS V14.01,2013-04-03 07:14:00,
2013-04-03 03:15:00,61.9,55.0,30.03,NW,315,0.0,0.0,78,0.00,,---,0.00,VWS V14.01,2013-04-03 07:15:00,
2013-04-03 03:16:00,61.9,54.6,30.03,NW,315,0.0,0.0,77,0.00,,---,0.00,VWS V14.01,2013-04-03 07:16:00,
2013-04-03 03:17:00,61.9,54.6,30.03,NW,315,0.0,0.0,77,0.00,,---,0.00,VWS V14.01,2013-04-03 07:17:00,
2013-04-03 03:18:00,61.9,55.0,30.03,NW,315,0.0,0.0,78,0.00,,---,0.00,VWS V14.01,2013-04-03 07:18:00,
2013-04-03 03:19:00,61.9,55.0,30.03,NW,315,0.0,0.0,78,0.00,,---,0.00,VWS V14.01,2013-04-03 07:19:00,
2013-04-03 03:20:00,61.9,54.6,30.03,NW,315,0.0,0.0,77,0.00,,---,0.00,VWS V14.01,2013-04-03 07:20:00,
2013-04-03 03:21:00,61.7,54.4,30.03,NW,315,0.0,0.0,77,0.00,,---,0.00,VWS V14.01,2013-04-03 07:21:00,
2013-04-03 03:22:00,61.7,54.4,30.03,NW,315,0.0,0.0,77,0.00,,---,0.00,VWS V14.01,2013-04-03 07:22:00,
2013-04-03 03:23:00,61.7,54.4,30.03,NW,315,0.0,0.0,77,0.00,,---,0.00,VWS V14.01,2013-04-03 07:23:00,
2013-04-03 03:24:00,61.7,54.4,30.03,NW,315,0.0,0.0,77,0.00,,---,0.00,VWS V14.01,2013-04-03 07:24:00,
2013-04-03 03:25:00,61.7,54.4,30.03,NW,315,0.0,0.0,77,0.00,,---,0.00,VWS V14.01,2013-04-03 07:25:00,
2013-04-03 03:26:00,61.7,54.4,30.03,NW,315,0.0,0.0,77,0.00,,---,0.00,VWS V14.01,2013-04-03 07:26:00,
2013-04-03 03:27:00,61.7,54.4,30.03,NW,315,0.0,0.0,77,0.00,,---,0.00,VWS V14.01,2013-04-03 07:27:00,
2013-04-03 03:28:00,61.7,54.4,30.03,NW,315,0.0,0.0,77,0.00,,---,0.00,VWS V14.01,2013-04-03 07:28:00,
2013-04-03 03:29:00,61.7,54.4,30.03,NW,315,0.0,0.0,77,0.00,,---,0.00,VWS V14.01,2013-04-03 07:29:00,
2013-04-03 03:30:00,61.7,54.4,30.03,NW,315,0.0,0.0,77,0.00,,---,0.00,VWS V14.01,2013-04-03 07:30:00,
2013-04-03 03:31:00,61.7,54.4,30.03,NW,315,0.0,0.0,77,0.00,,---,0.00,VWS V14.01,2013-04-03 07:31:00,
2013-04-03 03:32:00,61.7,54.4,30.03,NW,315,0.0,0.0,77,0.00,,---,0.00,VWS V14.01,2013-04-03 07:32:00,
2013-04-03 03:33:00,61.7,54.4,30.03,NW,315,0.0,0.0,77,0.00,,---,0.00,VWS V14.01,2013-04-03 07:33:00,
2013-04-03 03:34:00,61.7,54.4,30.03,NW,315,0.0,0.0,77,0.00,,---,0.00,VWS V14.01,2013-04-03 07:34:00,
2013-04-03 03:35:00,61.7,54.4,30.03,NW,315,0.0,0.0,77,0.00,,---,0.00,VWS V14.01,2013-04-03 07:35:00,
2013-04-03 03:36:00,61.7,54.4,30.03,NW,315,0.0,0.0,77,0.00,,---,0.00,VWS V14.01,2013-04-03 07:36:00,
2013-04-03 03:37:00,61.7,54.4,30.03,NW,315,0.0,0.0,77,0.00,,---,0.00,VWS V14.01,2013-04-03 07:37:00,
2013-04-03 03:38:00,61.7,54.4,30.03,NW,315,0.0,0.0,77,0.00,,---,0.00,VWS V14.01,2013-04-03 07:38:00,
2013-04-03 03:39:00,61.7,54.4,30.03,NW,315,0.0,0.0,77,0.00,,---,0.00,VWS V14.01,2013-04-03 07:39:00,
2013-04-03 03:40:00,61.7,54.4,30.03,NW,315,0.0,0.0,77,0.00,,---,0.00,VWS V14.01,2013-04-03 07:40:00,
2013-04-03 03:41:00,61.7,54.4,30.03,NW,315,0.0,0.0,77,0.00,,---,0.00,VWS V14.01,2013-04-03 07:41:00,
2013-04-03 03:42:00,61.7,54.4,30.03,NW,315,0.0,0.0,77,0.00,,---,0.00,VWS V14.01,2013-04-03 07:42:00,
2013-04-03 03:43:00,61.7,54.4,30.03,NW,315,0.0,0.0,77,0.00,,---,0.00,VWS V14.01,2013-04-03 07:43:00,
2013-04-03 03:44:00,61.7,54.4,30.03,NW,315,0.0,0.0,77,0.00,,---,0.00,VWS V14.01,2013-04-03 07:44:00,
2013-04-03 03:45:00,61.7,54.4,30.03,NW,315,0.0,0.0,77,0.00,,---,0.00,VWS V14.01,2013-04-03 07:45:00,
2013-04-03 03:46:00,61.7,54.4,30.03,NW,315,0.0,0.0,77,0.00,,---,0.00,VWS V14.01,2013-04-03 07:46:00,
2013-04-03 03:47:00,61.7,54.4,30.03,NW,315,0.0,0.0,77,0.00,,---,0.00,VWS V14.01,2013-04-03 07:47:00,
2013-04-03 03:48:00,61.9,54.6,30.03,NW,315,0.0,0.0,77,0.00,,---,0.00,VWS V14.01,2013-04-03 07:48:00,
2013-04-03 03:49:00,61.9,54.6,30.03,NW,315,0.0,0.0,77,0.00,,---,0.00,VWS V14.01,2013-04-03 07:49:00,
2013-04-03 03:50:00,61.9,55.0,30.03,NW,315,0.0,0.0,78,0.00,,---,0.00,VWS V14.01,2013-04-03 07:50:00,
2013-04-03 03:51:00,61.9,55.0,30.03,NW,315,0.0,0.0,78,0.00,,---,0.00,VWS V14.01,2013-04-03 07:51:00,
2013-04-03 03:52:00,61.7,54.4,30.03,NW,315,0.0,0.0,77,0.00,,---,0.00,VWS V14.01,2013-04-03 07:52:00,
2013-04-03 03:53:00,61.9,54.6,30.03,NW,315,0.0,0.0,77,0.00,,---,0.00,VWS V14.01,2013-04-03 07:53:00,
2013-04-03 03:54:00,61.9,54.6,30.03,NW,315,0.0,0.0,77,0.00,,---,0.00,VWS V14.01,2013-04-03 07:54:00,
2013-04-03 03:55:00,61.9,54.6,30.03,NW,315,0.0,0.0,77,0.00,,---,0.00,VWS V14.01,2013-04-03 07:55:00,
2013-04-03 03:56:00,61.9,55.0,30.03,NW,315,0.0,0.0,78,0.00,,---,0.00,VWS V14.01,2013-04-03 07:56:00,
2013-04-03 03:57:00,61.9,55.0,30.03,NW,315,0.0,0.0,78,0.00,,---,0.00,VWS V14.01,2013-04-03 07:57:00,
2013-04-03 03:58:00,61.9,55.0,30.03,NW,315,0.0,0.0,78,0.00,,---,0.00,VWS V14.01,2013-04-03 07:58:00,
2013-04-03 03:59:00,61.9,55.0,30.03,NW,315,0.0,0.0,78,0.00,,---,0.00,VWS V14.01,2013-04-03 07:59:00,
2013-04-03 04:00:00,61.9,55.0,30.03,NW,315,0.0,0.0,78,0.00,,---,0.00,VWS V14.01,2013-04-03 08:00:00,
2013-04-03 04:01:00,61.9,55.0,30.03,NW,315,0.0,0.0,78,0.00,,---,0.00,VWS V14.01,2013-04-03 08:01:00,
2013-04-03 04:02:00,61.9,55.0,30.03,NW,315,0.0,0.0,78,0.00,,---,0.00,VWS V14.01,2013-04-03 08:02:00,
2013-04-03 04:03:00,62.1,55.1,30.03,NW,315,0.0,0.0,78,0.00,,---,0.00,VWS V14.01,2013-04-03 08:03:00,
2013-04-03 04:04:00,62.1,55.1,30.03,NW,315,0.0,0.0,78,0.00,,---,0.00,VWS V14.01,2013-04-03 08:04:00,
2013-04-03 04:05:00,62.1,55.1,30.03,NW,315,0.0,0.0,78,0.00,,---,0.00,VWS V14.01,2013-04-03 08:05:00,
2013-04-03 04:06:00,62.1,55.1,30.03,NW,315,0.0,0.0,78,0.00,,---,0.00,VWS V14.01,2013-04-03 08:06:00,
2013-04-03 04:07:00,62.1,55.1,30.03,NW,315,0.0,0.0,78,0.00,,---,0.00,VWS V14.01,2013-04-03 08:07:00,
2013-04-03 04:08:00,62.1,55.1,30.03,NW,315,0.0,0.0,78,0.00,,---,0.00,VWS V14.01,2013-04-03 08:08:00,
2013-04-03 04:09:00,62.1,55.1,30.03,NW,315,0.0,0.0,78,0.00,,---,0.00,VWS V14.01,2013-04-03 08:09:00,
2013-04-03 04:10:00,62.1,55.1,30.03,NW,315,0.0,0.0,78,0.00,,---,0.00,VWS V14.01,2013-04-03 08:10:00,
2013-04-03 04:11:00,62.1,55.1,30.03,NW,315,0.0,0.0,78,0.00,,---,0.00,VWS V14.01,2013-04-03 08:11:00,
2013-04-03 04:12:00,62.1,55.1,30.03,NW,315,0.0,0.0,78,0.00,,---,0.00,VWS V14.01,2013-04-03 08:12:00,
2013-04-03 04:13:00,62.1,54.8,30.03,NW,315,0.0,0.0,77,0.00,,---,0.00,VWS V14.01,2013-04-03 08:13:00,
2013-04-03 04:14:00,62.1,54.8,30.03,NW,315,0.0,0.0,77,0.00,,---,0.00,VWS V14.01,2013-04-03 08:14:00,
2013-04-03 04:15:00,62.1,54.8,30.03,NW,315,0.0,0.0,77,0.00,,---,0.00,VWS V14.01,2013-04-03 08:15:00,
2013-04-03 04:16:00,62.2,55.0,30.03,NW,315,0.0,0.0,77,0.00,,---,0.00,VWS V14.01,2013-04-03 08:16:00,
2013-04-03 04:17:00,62.1,54.8,30.03,NW,315,0.0,0.0,77,0.00,,---,0.00,VWS V14.01,2013-04-03 08:17:00,
2013-04-03 04:18:00,62.1,54.8,30.03,NW,315,0.0,0.0,77,0.00,,---,0.00,VWS V14.01,2013-04-03 08:18:00,
2013-04-03 04:19:00,62.1,54.8,30.03,NW,315,0.0,0.0,77,0.00,,---,0.00,VWS V14.01,2013-04-03 08:19:00,
2013-04-03 04:20:00,62.1,54.8,30.03,NW,315,0.0,0.0,77,0.00,,---,0.00,VWS V14.01,2013-04-03 08:20:00,
2013-04-03 04:21:00,62.1,54.8,30.03,NW,315,0.0,0.0,77,0.00,,---,0.00,VWS V14.01,2013-04-03 08:21:00,
2013-04-03 04:22:00,62.1,54.8,30.03,NW,315,0.0,0.0,77,0.00,,---,0.00,VWS V14.01,2013-04-03 08:22:00,
2013-04-03 04:23:00,62.2,55.0,30.03,ENE,68,0.0,0.0,77,0.00,,---,0.00,VWS V14.01,2013-04-03 08:23:00,
2013-04-03 04:24:00,62.2,55.0,30.03,ENE,68,0.0,0.0,77,0.00,,---,0.00,VWS V14.01,2013-04-03 08:24:00,
2013-04-03 04:25:00,62.2,55.0,30.03,ENE,68,0.0,0.0,77,0.00,,---,0.00,VWS V14.01,2013-04-03 08:25:00,
2013-04-03 04:26:00,62.2,55.3,30.03,ENE,68,0.0,0.0,78,0.00,,---,0.00,VWS V14.01,2013-04-03 08:26:00,
2013-04-03 04:27:00,62.2,55.0,30.03,ENE,68,0.0,0.0,77,0.00,,---,0.00,VWS V14.01,2013-04-03 08:27:00,
2013-04-03 04:28:00,62.2,55.0,30.03,ENE,68,0.0,0.0,77,0.00,,---,0.00,VWS V14.01,2013-04-03 08:28:00,
2013-04-03 04:29:00,62.2,55.0,30.03,ENE,68,0.0,0.0,77,0.00,,---,0.00,VWS V14.01,2013-04-03 08:29:00,
2013-04-03 04:30:00,62.2,55.0,30.03,ENE,68,0.0,0.0,77,0.00,,---,0.00,VWS V14.01,2013-04-03 08:30:00,
2013-04-03 04:31:00,62.2,55.0,30.03,ENE,68,0.0,0.0,77,0.00,,---,0.00,VWS V14.01,2013-04-03 08:31:00,
2013-04-03 04:32:00,62.2,55.0,30.03,ENE,68,0.0,0.0,77,0.00,,---,0.00,VWS V14.01,2013-04-03 08:32:00,
2013-04-03 04:33:00,62.2,55.0,30.03,ENE,68,0.0,0.0,77,0.00,,---,0.00,VWS V14.01,2013-04-03 08:33:00,
2013-04-03 04:34:00,62.2,55.0,30.03,ENE,68,0.0,0.0,77,0.00,,---,0.00,VWS V14.01,2013-04-03 08:34:00,
2013-04-03 04:35:00,62.4,55.1,30.03,ENE,68,0.0,0.0,77,0.00,,---,0.00,VWS V14.01,2013-04-03 08:35:00,
2013-04-03 04:36:00,62.4,55.1,30.03,ENE,68,0.0,0.0,77,0.00,,---,0.00,VWS V14.01,2013-04-03 08:36:00,
2013-04-03 04:37:00,62.4,55.1,30.03,ENE,68,0.0,0.0,77,0.00,,---,0.00,VWS V14.01,2013-04-03 08:37:00,
2013-04-03 04:38:00,62.4,55.1,30.03,ENE,68,0.0,0.0,77,0.00,,---,0.00,VWS V14.01,2013-04-03 08:38:00,
2013-04-03 04:39:00,62.4,55.1,30.03,ENE,68,0.0,401.0,77,0.00,,---,0.00,VWS V14.01,2013-04-03 08:39:00,
2013-04-03 04:40:00,62.4,55.1,30.03,ENE,68,0.0,401.0,77,0.00,,---,0.00,VWS V14.01,2013-04-03 08:40:00,
2013-04-03 04:41:00,62.4,55.1,30.03,ENE,68,0.0,0.0,77,0.00,,---,0.00,VWS V14.01,2013-04-03 08:41:00,
2013-04-03 04:42:00,62.4,55.1,30.03,ENE,68,0.0,0.0,77,0.00,,---,0.00,VWS V14.01,2013-04-03 08:42:00,
2013-04-03 04:43:00,62.4,55.1,30.03,ENE,68,0.0,0.0,77,0.00,,---,0.00,VWS V14.01,2013-04-03 08:43:00,
2013-04-03 04:44:00,62.4,55.1,30.03,ENE,68,0.0,0.0,77,0.00,,---,0.00,VWS V14.01,2013-04-03 08:44:00,
2013-04-03 04:45:00,62.6,55.3,30.03,ENE,68,0.0,0.0,77,0.00,,---,0.00,VWS V14.01,2013-04-03 08:45:00,
2013-04-03 04:46:00,62.6,55.3,30.03,ENE,68,0.0,0.0,77,0.00,,---,0.00,VWS V14.01,2013-04-03 08:46:00,
2013-04-03 04:47:00,62.6,55.3,30.03,ENE,68,0.0,0.0,77,0.00,,---,0.00,VWS V14.01,2013-04-03 08:47:00,
2013-04-03 04:48:00,62.6,55.3,30.03,ENE,68,0.0,0.0,77,0.00,,---,0.00,VWS V14.01,2013-04-03 08:48:00,
2013-04-03 04:49:00,62.6,55.3,30.03,ENE,68,0.0,0.0,77,0.00,,---,0.00,VWS V14.01,2013-04-03 08:49:00,
2013-04-03 04:50:00,62.6,55.3,30.03,ENE,68,0.0,0.0,77,0.00,,---,0.00,VWS V14.01,2013-04-03 08:50:00,
2013-04-03 04:51:00,62.8,55.5,30.03,ENE,68,0.0,0.0,77,0.00,,---,0.00,VWS V14.01,2013-04-03 08:51:00,
2013-04-03 04:52:00,62.8,55.8,30.03,ENE,68,0.0,0.0,78,0.00,,---,0.00,VWS V14.01,2013-04-03 08:52:00,
2013-04-03 04:53:00,62.8,55.8,30.03,SSE,158,0.0,0.0,78,0.00,,---,0.00,VWS V14.01,2013-04-03 08:53:00,
2013-04-03 04:54:00,62.8,55.8,30.03,SSE,158,0.0,0.0,78,0.00,,---,0.00,VWS V14.01,2013-04-03 08:54:00,
2013-04-03 04:55:00,62.8,55.8,30.03,SSE,158,0.0,0.0,78,0.00,,---,0.00,VWS V14.01,2013-04-03 08:55:00,
2013-04-03 04:56:00,62.8,55.8,30.03,ENE,68,0.0,0.0,78,0.00,,---,0.00,VWS V14.01,2013-04-03 08:56:00,
2013-04-03 04:57:00,62.8,55.8,30.03,East,90,0.0,0.0,78,0.00,,---,0.00,VWS V14.01,2013-04-03 08:57:00,
2013-04-03 04:58:00,63.0,56.0,30.03,ESE,112,0.0,0.0,78,0.00,,---,0.00,VWS V14.01,2013-04-03 08:58:00,
2013-04-03 04:59:00,63.0,56.0,30.03,ESE,112,0.0,0.0,78,0.00,,---,0.00,VWS V14.01,2013-04-03 08:59:00,
2013-04-03 05:00:00,62.8,55.5,30.03,ESE,112,0.0,0.0,77,0.00,,---,0.00,VWS V14.01,2013-04-03 09:00:00,
2013-04-03 05:01:00,62.8,55.5,30.03,ESE,112,0.0,0.0,77,0.00,,---,0.00,VWS V14.01,2013-04-03 09:01:00,
2013-04-03 05:02:00,62.8,55.5,30.03,ESE,112,0.0,0.0,77,0.00,,---,0.00,VWS V14.01,2013-04-03 09:02:00,
2013-04-03 05:03:00,62.8,55.5,30.03,ESE,112,0.0,0.0,77,0.00,,---,0.00,VWS V14.01,2013-04-03 09:03:00,
2013-04-03 05:04:00,62.8,55.5,30.03,ESE,112,0.0,0.0,77,0.00,,---,0.00,VWS V14.01,2013-04-03 09:04:00,
2013-04-03 05:05:00,62.6,55.3,30.03,ESE,112,0.0,0.0,77,0.00,,---,0.00,VWS V14.01,2013-04-03 09:05:00,
2013-04-03 05:06:00,62.6,55.3,30.03,ESE,112,0.0,0.0,77,0.00,,---,0.00,VWS V14.01,2013-04-03 09:06:00,
2013-04-03 05:07:00,62.6,55.3,30.03,ESE,112,0.0,0.0,77,0.00,,---,0.00,VWS V14.01,2013-04-03 09:07:00,
2013-04-03 05:08:00,62.6,55.3,30.03,ESE,112,0.0,0.0,77,0.00,,---,0.00,VWS V14.01,2013-04-03 09:08:00,
2013-04-03 05:09:00,62.6,55.3,30.03,ESE,112,0.0,0.0,77,0.00,,---,0.00,VWS V14.01,2013-04-03 09:09:00,
2013-04-03 05:10:00,62.6,55.3,30.03,ESE,112,0.0,0.0,77,0.00,,---,0.00,VWS V14.01,2013-04-03 09:10:00,
2013-04-03 05:11:00,62.6,55.3,30.03,ESE,112,0.0,0.0,77,0.00,,---,0.00,VWS V14.01,2013-04-03 09:11:00,
2013-04-03 05:12:00,62.6,55.3,30.03,ESE,112,0.0,0.0,77,0.00,,---,0.00,VWS V14.01,2013-04-03 09:12:00,
2013-04-03 05:13:00,62.6,55.3,30.03,East,90,0.0,0.0,77,0.00,,---,0.00,VWS V14.01,2013-04-03 09:13:00,
2013-04-03 05:14:00,62.6,55.3,30.03,East,90,0.0,0.0,77,0.00,,---,0.00,VWS V14.01,2013-04-03 09:14:00,
2013-04-03 05:15:00,62.6,55.3,30.03,East,90,0.0,0.0,77,0.00,,---,0.00,VWS V14.01,2013-04-03 09:15:00,
2013-04-03 05:16:00,62.6,55.3,30.03,East,90,0.0,0.0,77,0.00,,---,0.00,VWS V14.01,2013-04-03 09:16:00,
2013-04-03 05:17:00,62.6,55.3,30.03,East,90,0.0,0.0,77,0.00,,---,0.00,VWS V14.01,2013-04-03 09:17:00,
2013-04-03 05:18:00,62.6,55.3,30.03,East,90,0.0,0.0,77,0.00,,---,0.00,VWS V14.01,2013-04-03 09:18:00,
2013-04-03 05:19:00,62.6,55.3,30.03,East,90,0.0,0.0,77,0.00,,---,0.00,VWS V14.01,2013-04-03 09:19:00,
2013-04-03 05:20:00,62.6,55.3,30.03,East,90,0.0,0.0,77,0.00,,---,0.00,VWS V14.01,2013-04-03 09:20:00,
2013-04-03 05:21:00,62.6,55.3,30.03,East,90,0.0,0.0,77,0.00,,---,0.00,VWS V14.01,2013-04-03 09:21:00,
2013-04-03 05:22:00,62.6,55.3,30.03,ESE,112,0.0,0.0,77,0.00,,---,0.00,VWS V14.01,2013-04-03 09:22:00,
2013-04-03 05:23:00,62.6,55.3,30.03,North,0,0.0,0.0,77,0.00,,---,0.00,VWS V14.01,2013-04-03 09:23:00,
2013-04-03 05:24:00,62.6,55.3,30.03,NNW,338,0.0,0.0,77,0.00,,---,0.00,VWS V14.01,2013-04-03 09:24:00,
2013-04-03 05:25:00,62.8,55.5,30.03,SE,135,0.0,2.0,77,0.00,,---,0.00,VWS V14.01,2013-04-03 09:25:00,
2013-04-03 05:26:00,62.8,55.5,30.03,SE,135,0.0,0.0,77,0.00,,---,0.00,VWS V14.01,2013-04-03 09:26:00,
2013-04-03 05:27:00,62.8,55.8,30.03,SE,135,0.0,0.0,78,0.00,,---,0.00,VWS V14.01,2013-04-03 09:27:00,
2013-04-03 05:28:00,62.8,55.8,30.03,ESE,112,0.0,1.1,78,0.00,,---,0.00,VWS V14.01,2013-04-03 09:28:00,
2013-04-03 05:29:00,62.8,55.5,30.03,ESE,112,0.0,0.0,77,0.00,,---,0.00,VWS V14.01,2013-04-03 09:29:00,
2013-04-03 05:30:00,62.8,55.5,30.03,ESE,112,0.0,0.0,77,0.00,,---,0.00,VWS V14.01,2013-04-03 09:30:00,
2013-04-03 05:31:00,62.8,55.5,30.03,ESE,112,0.0,0.0,77,0.00,,---,0.00,VWS V14.01,2013-04-03 09:31:00,
2013-04-03 05:32:00,62.8,55.5,30.03,ENE,68,0.0,0.0,77,0.00,,---,0.00,VWS V14.01,2013-04-03 09:32:00,
2013-04-03 05:33:00,62.8,55.5,30.03,ENE,68,0.0,0.0,77,0.00,,---,0.00,VWS V14.01,2013-04-03 09:33:00,
2013-04-03 05:34:00,63.0,56.0,30.03,ENE,68,0.0,0.0,78,0.00,,---,0.00,VWS V14.01,2013-04-03 09:34:00,
2013-04-03 05:35:00,63.0,56.0,30.03,ENE,68,0.0,0.0,78,0.00,,---,0.00,VWS V14.01,2013-04-03 09:35:00,
2013-04-03 05:36:00,63.0,56.0,30.03,ENE,68,0.0,0.0,78,0.00,,---,0.00,VWS V14.01,2013-04-03 09:36:00,
2013-04-03 05:37:00,63.0,56.0,30.03,SSE,158,0.0,0.0,78,0.00,,---,0.00,VWS V14.01,2013-04-03 09:37:00,
2013-04-03 05:38:00,63.0,56.0,30.03,SSE,158,0.0,0.0,78,0.00,,---,0.00,VWS V14.01,2013-04-03 09:38:00,
2013-04-03 05:39:00,63.0,56.0,30.03,SE,135,0.0,0.0,78,0.00,,---,0.00,VWS V14.01,2013-04-03 09:39:00,
2013-04-03 05:40:00,63.0,56.0,30.03,SE,135,0.0,0.0,78,0.00,,---,0.00,VWS V14.01,2013-04-03 09:40:00,
2013-04-03 05:41:00,63.0,56.0,30.03,SSE,158,0.0,0.0,78,0.00,,---,0.00,VWS V14.01,2013-04-03 09:41:00,
2013-04-03 05:42:00,63.0,56.0,30.03,SSE,158,0.0,0.0,78,0.00,,---,0.00,VWS V14.01,2013-04-03 09:42:00,
2013-04-03 05:43:00,63.0,56.0,30.03,SSE,158,0.0,0.0,78,0.00,,---,0.00,VWS V14.01,2013-04-03 09:43:00,
2013-04-03 05:44:00,63.1,56.2,30.03,SW,225,0.0,0.0,78,0.00,,---,0.00,VWS V14.01,2013-04-03 09:44:00,
2013-04-03 05:45:00,63.1,56.2,30.03,SW,225,0.0,0.0,78,0.00,,---,0.00,VWS V14.01,2013-04-03 09:45:00,
2013-04-03 05:46:00,63.1,56.2,30.03,SSE,158,0.0,0.0,78,0.00,,---,0.00,VWS V14.01,2013-04-03 09:46:00,
2013-04-03 05:47:00,63.1,56.2,30.03,SSE,158,0.0,0.0,78,0.00,,---,0.00,VWS V14.01,2013-04-03 09:47:00,
2013-04-03 05:48:00,63.1,56.2,30.03,SSE,158,0.0,0.0,78,0.00,,---,0.00,VWS V14.01,2013-04-03 09:48:00,
2013-04-03 05:49:00,63.1,56.2,30.03,SSE,158,0.0,0.0,78,0.00,,---,0.00,VWS V14.01,2013-04-03 09:49:00,
2013-04-03 05:50:00,63.1,56.2,30.03,SSE,158,0.0,0.0,78,0.00,,---,0.00,VWS V14.01,2013-04-03 09:50:00,
2013-04-03 05:51:00,63.1,56.2,30.03,SSE,158,0.0,0.0,78,0.00,,---,0.00,VWS V14.01,2013-04-03 09:51:00,
2013-04-03 05:52:00,63.1,56.2,30.03,ESE,112,0.0,0.0,78,0.00,,---,0.00,VWS V14.01,2013-04-03 09:52:00,
2013-04-03 05:53:00,63.3,56.3,30.03,ENE,68,0.0,0.0,78,0.00,,---,0.00,VWS V14.01,2013-04-03 09:53:00,
2013-04-03 05:54:00,63.3,56.3,30.03,ESE,112,0.0,0.0,78,0.00,,---,0.00,VWS V14.01,2013-04-03 09:54:00,
2013-04-03 05:55:00,63.3,56.3,30.03,ENE,68,0.0,0.0,78,0.00,,---,0.00,VWS V14.01,2013-04-03 09:55:00,
2013-04-03 05:56:00,63.3,56.3,30.03,ENE,68,0.0,0.0,78,0.00,,---,0.00,VWS V14.01,2013-04-03 09:56:00,
2013-04-03 05:57:00,63.3,56.3,30.00,ENE,68,0.0,0.0,78,0.00,,---,0.00,VWS V14.01,2013-04-03 09:57:00,
2013-04-03 05:58:00,63.3,56.3,30.00,ENE,68,0.0,0.0,78,0.00,,---,0.00,VWS V14.01,2013-04-03 09:58:00,
2013-04-03 05:59:00,63.3,56.3,30.00,ESE,112,0.0,0.0,78,0.00,,---,0.00,VWS V14.01,2013-04-03 09:59:00,
2013-04-03 06:00:00,63.3,56.3,30.00,ENE,68,0.0,0.0,78,0.00,,---,0.00,VWS V14.01,2013-04-03 10:00:00,
2013-04-03 06:01:00,63.3,56.7,30.00,ENE,68,0.0,0.0,79,0.00,,---,0.00,VWS V14.01,2013-04-03 10:01:00,
2013-04-03 06:02:00,63.5,56.9,30.00,ENE,68,0.0,0.0,79,0.00,,---,0.00,VWS V14.01,2013-04-03 10:02:00,
2013-04-03 06:03:00,63.5,56.9,30.00,ENE,68,0.0,0.0,79,0.00,,---,0.00,VWS V14.01,2013-04-03 10:03:00,
2013-04-03 06:04:00,63.5,56.9,30.00,ENE,68,0.0,0.0,79,0.00,,---,0.00,VWS V14.01,2013-04-03 10:04:00,
2013-04-03 06:05:00,63.5,56.9,30.00,ENE,68,0.0,0.0,79,0.00,,---,0.00,VWS V14.01,2013-04-03 10:05:00,
2013-04-03 06:06:00,63.5,56.9,30.00,ENE,68,0.0,0.0,79,0.00,,---,0.00,VWS V14.01,2013-04-03 10:06:00,
2013-04-03 06:07:00,63.5,56.9,30.00,NE,45,0.0,0.0,79,0.00,,---,0.00,VWS V14.01,2013-04-03 10:07:00,
2013-04-03 06:08:00,63.5,56.9,30.00,NE,45,0.0,0.0,79,0.00,,---,0.00,VWS V14.01,2013-04-03 10:08:00,
2013-04-03 06:09:00,63.5,56.9,30.00,NE,45,0.0,0.0,79,0.00,,---,0.00,VWS V14.01,2013-04-03 10:09:00,
2013-04-03 06:10:00,63.5,56.9,30.00,NE,45,0.0,0.0,79,0.00,,---,0.00,VWS V14.01,2013-04-03 10:10:00,
2013-04-03 06:11:00,63.5,56.9,30.00,NE,45,0.0,0.0,79,0.00,,---,0.00,VWS V14.01,2013-04-03 10:11:00,
2013-04-03 06:12:00,63.3,56.7,30.03,NE,45,0.0,0.0,79,0.00,,---,0.00,VWS V14.01,2013-04-03 10:12:00,
2013-04-03 06:13:00,63.5,56.9,30.03,East,90,0.0,0.0,79,0.00,,---,0.00,VWS V14.01,2013-04-03 10:13:00,
2013-04-03 06:14:00,63.5,56.9,30.03,East,90,0.0,0.0,79,0.00,,---,0.00,VWS V14.01,2013-04-03 10:14:00,
2013-04-03 06:15:00,63.5,56.9,30.03,East,90,0.0,0.0,79,0.00,,---,0.00,VWS V14.01,2013-04-03 10:15:00,
2013-04-03 06:16:00,63.5,56.9,30.03,East,90,0.0,0.0,79,0.00,,---,0.00,VWS V14.01,2013-04-03 10:16:00,
2013-04-03 06:17:00,63.5,56.9,30.03,East,90,0.0,0.0,79,0.00,,---,0.00,VWS V14.01,2013-04-03 10:17:00,
2013-04-03 06:18:00,63.5,56.9,30.03,SSE,158,0.0,0.0,79,0.00,,---,0.00,VWS V14.01,2013-04-03 10:18:00,
2013-04-03 06:19:00,63.5,56.9,30.03,SSE,158,0.0,0.0,79,0.00,,---,0.00,VWS V14.01,2013-04-03 10:19:00,
2013-04-03 06:20:00,63.5,56.9,30.03,SSE,158,0.0,0.0,79,0.00,,---,0.00,VWS V14.01,2013-04-03 10:20:00,
2013-04-03 06:21:00,63.5,56.9,30.03,ESE,112,0.0,0.0,79,0.00,,---,0.00,VWS V14.01,2013-04-03 10:21:00,
2013-04-03 06:22:00,63.5,56.9,30.03,East,90,0.0,0.0,79,0.00,,---,0.00,VWS V14.01,2013-04-03 10:22:00,
2013-04-03 06:23:00,63.7,57.0,30.03,NNW,338,0.0,0.0,79,0.00,,---,0.00,VWS V14.01,2013-04-03 10:23:00,
2013-04-03 06:24:00,63.7,57.0,30.03,SE,135,0.0,0.0,79,0.00,,---,0.00,VWS V14.01,2013-04-03 10:24:00,
2013-04-03 06:25:00,63.7,57.0,30.03,SSE,158,0.0,0.0,79,0.00,,---,0.00,VWS V14.01,2013-04-03 10:25:00,
2013-04-03 06:26:00,63.7,57.0,30.03,SSE,158,0.0,0.0,79,0.00,,---,0.00,VWS V14.01,2013-04-03 10:26:00,
2013-04-03 06:27:00,63.7,57.0,30.03,ENE,68,0.0,0.0,79,0.00,,---,0.00,VWS V14.01,2013-04-03 10:27:00,
2013-04-03 06:28:00,63.7,57.0,30.03,South,180,0.0,0.0,79,0.00,,---,0.00,VWS V14.01,2013-04-03 10:28:00,
2013-04-03 06:29:00,63.7,57.0,30.03,ENE,68,0.0,0.0,79,0.00,,---,0.00,VWS V14.01,2013-04-03 10:29:00,
2013-04-03 06:30:00,63.7,57.0,30.03,South,180,0.0,0.0,79,0.00,,---,0.00,VWS V14.01,2013-04-03 10:30:00,
2013-04-03 06:31:00,63.9,57.2,30.03,SE,135,0.0,0.0,79,0.00,,---,0.00,VWS V14.01,2013-04-03 10:31:00,
2013-04-03 06:32:00,63.9,57.6,30.03,SE,135,0.0,0.0,80,0.00,,---,0.00,VWS V14.01,2013-04-03 10:32:00,
2013-04-03 06:33:00,63.7,57.0,30.03,SE,135,0.0,0.0,79,0.00,,---,0.00,VWS V14.01,2013-04-03 10:33:00,
2013-04-03 06:34:00,63.9,57.2,30.03,SE,135,0.0,0.0,79,0.00,,---,0.00,VWS V14.01,2013-04-03 10:34:00,
2013-04-03 06:35:00,63.7,57.0,30.03,SE,135,0.0,0.0,79,0.00,,---,0.00,VWS V14.01,2013-04-03 10:35:00,
2013-04-03 06:36:00,63.7,57.0,30.03,SE,135,0.0,0.0,79,0.00,,---,0.00,VWS V14.01,2013-04-03 10:36:00,
2013-04-03 06:37:00,63.7,57.0,30.03,SE,135,0.0,0.0,79,0.00,,---,0.00,VWS V14.01,2013-04-03 10:37:00,
2013-04-03 06:38:00,63.7,57.0,30.03,ESE,112,0.0,0.0,79,0.00,,---,0.00,VWS V14.01,2013-04-03 10:38:00,
2013-04-03 06:39:00,63.7,57.0,30.03,ESE,112,0.0,0.0,79,0.00,,---,0.00,VWS V14.01,2013-04-03 10:39:00,
2013-04-03 06:40:00,63.7,57.0,30.03,ESE,112,0.0,0.0,79,0.00,,---,0.00,VWS V14.01,2013-04-03 10:40:00,
2013-04-03 06:41:00,63.7,57.0,30.03,NNW,338,0.0,0.0,79,0.00,,---,0.00,VWS V14.01,2013-04-03 10:41:00,
2013-04-03 06:42:00,63.7,57.0,30.03,South,180,0.0,0.0,79,0.00,,---,0.00,VWS V14.01,2013-04-03 10:42:00,
2013-04-03 06:43:00,63.7,57.0,30.03,SSE,158,0.0,0.0,79,0.00,,---,0.00,VWS V14.01,2013-04-03 10:43:00,
2013-04-03 06:44:00,63.7,57.0,30.03,SSE,158,0.0,0.0,79,0.00,,---,0.00,VWS V14.01,2013-04-03 10:44:00,
2013-04-03 06:45:00,63.7,57.0,30.03,SSW,202,0.0,0.0,79,0.00,,---,0.00,VWS V14.01,2013-04-03 10:45:00,
2013-04-03 06:46:00,63.7,57.4,30.03,SSE,158,0.0,0.0,80,0.00,,---,0.00,VWS V14.01,2013-04-03 10:46:00,
2013-04-03 06:47:00,63.7,57.4,30.03,SSE,158,0.0,0.0,80,0.00,,---,0.00,VWS V14.01,2013-04-03 10:47:00,
2013-04-03 06:48:00,63.7,57.4,30.03,SSE,158,0.0,0.0,80,0.00,,---,0.00,VWS V14.01,2013-04-03 10:48:00,
2013-04-03 06:49:00,63.7,57.4,30.03,ESE,112,0.0,0.0,80,0.00,,---,0.00,VWS V14.01,2013-04-03 10:49:00,
2013-04-03 06:50:00,63.7,57.4,30.03,SSE,158,0.0,0.0,80,0.00,,---,0.00,VWS V14.01,2013-04-03 10:50:00,
2013-04-03 06:51:00,63.7,57.4,30.03,SSE,158,0.0,0.0,80,0.00,,---,0.00,VWS V14.01,2013-04-03 10:51:00,
2013-04-03 06:52:00,63.7,57.4,30.03,ENE,68,0.0,0.0,80,0.00,,---,0.00,VWS V14.01,2013-04-03 10:52:00,
2013-04-03 06:53:00,63.7,57.4,30.03,East,90,0.0,0.0,80,0.00,,---,0.00,VWS V14.01,2013-04-03 10:53:00,
2013-04-03 06:54:00,63.7,57.4,30.03,East,90,0.0,0.0,80,0.00,,---,0.00,VWS V14.01,2013-04-03 10:54:00,
2013-04-03 06:55:00,63.7,57.4,30.03,East,90,0.0,0.0,80,0.00,,---,0.00,VWS V14.01,2013-04-03 10:55:00,
2013-04-03 06:56:00,63.7,57.4,30.03,East,90,0.0,0.0,80,0.00,,---,0.00,VWS V14.01,2013-04-03 10:56:00,
2013-04-03 06:57:00,63.5,57.2,30.03,East,90,0.0,0.0,80,0.00,,---,0.00,VWS V14.01,2013-04-03 10:57:00,
2013-04-03 06:58:00,63.5,57.2,30.03,ESE,112,0.0,0.0,80,0.00,,---,0.00,VWS V14.01,2013-04-03 10:58:00,
2013-04-03 06:59:00,63.5,57.2,30.03,ESE,112,0.0,0.0,80,0.00,,---,0.00,VWS V14.01,2013-04-03 10:59:00,
2013-04-03 07:00:00,63.5,57.2,30.03,ESE,112,0.0,0.0,80,0.00,,---,0.00,VWS V14.01,2013-04-03 11:00:00,
2013-04-03 07:01:00,63.5,57.2,30.03,SE,135,0.0,0.0,80,0.00,,---,0.00,VWS V14.01,2013-04-03 11:01:00,
2013-04-03 07:02:00,63.7,57.4,30.03,SE,135,0.0,0.0,80,0.00,,---,0.00,VWS V14.01,2013-04-03 11:02:00,
2013-04-03 07:03:00,63.7,57.4,30.03,ESE,112,0.0,0.0,80,0.00,,---,0.00,VWS V14.01,2013-04-03 11:03:00,
2013-04-03 07:04:00,63.7,57.4,30.03,ESE,112,0.0,0.0,80,0.00,,---,0.00,VWS V14.01,2013-04-03 11:04:00,
2013-04-03 07:05:00,63.7,57.4,30.03,ESE,112,0.0,0.0,80,0.00,,---,0.00,VWS V14.01,2013-04-03 11:05:00,
2013-04-03 07:06:00,63.7,57.4,30.03,ESE,112,0.0,0.0,80,0.00,,---,0.00,VWS V14.01,2013-04-03 11:06:00,
2013-04-03 07:07:00,63.5,57.2,30.03,ESE,112,0.0,0.0,80,0.00,,---,0.00,VWS V14.01,2013-04-03 11:07:00,
2013-04-03 07:08:00,63.7,57.4,30.03,ESE,112,0.0,0.0,80,0.00,,---,0.00,VWS V14.01,2013-04-03 11:08:00,
2013-04-03 07:09:00,63.7,57.4,30.03,SSE,158,0.0,0.0,80,0.00,,---,0.00,VWS V14.01,2013-04-03 11:09:00,
2013-04-03 07:10:00,63.7,57.4,30.03,SSE,158,0.0,0.0,80,0.00,,---,0.00,VWS V14.01,2013-04-03 11:10:00,
2013-04-03 07:11:00,63.7,57.4,30.03,SSE,158,0.0,0.0,80,0.00,,---,0.00,VWS V14.01,2013-04-03 11:11:00,
2013-04-03 07:12:00,63.7,57.4,30.03,South,180,0.0,0.0,80,0.00,,---,0.00,VWS V14.01,2013-04-03 11:12:00,
2013-04-03 07:13:00,63.7,57.8,30.03,SE,135,0.0,0.0,81,0.00,,---,0.00,VWS V14.01,2013-04-03 11:13:00,
2013-04-03 07:14:00,63.7,57.4,30.03,SE,135,0.0,0.0,80,0.00,,---,0.00,VWS V14.01,2013-04-03 11:14:00,
2013-04-03 07:15:00,63.7,57.8,30.03,NNE,22,0.0,0.0,81,0.00,,---,0.00,VWS V14.01,2013-04-03 11:15:00,
2013-04-03 07:16:00,63.9,57.9,30.03,East,90,0.0,0.0,81,0.00,,---,0.00,VWS V14.01,2013-04-03 11:16:00,
2013-04-03 07:17:00,63.9,57.9,30.03,ESE,112,0.0,0.0,81,0.00,,---,0.00,VWS V14.01,2013-04-03 11:17:00,
2013-04-03 07:18:00,63.9,57.9,30.03,ESE,112,0.0,0.0,81,0.00,,---,0.00,VWS V14.01,2013-04-03 11:18:00,
2013-04-03 07:19:00,63.9,57.9,30.03,ESE,112,0.0,0.0,81,0.00,,---,0.00,VWS V14.01,2013-04-03 11:19:00,
2013-04-03 07:20:00,63.9,57.9,30.03,East,90,0.0,0.0,81,0.00,,---,0.00,VWS V14.01,2013-04-03 11:20:00,
2013-04-03 07:21:00,64.0,58.1,30.03,East,90,0.0,0.0,81,0.00,,---,0.00,VWS V14.01,2013-04-03 11:21:00,
2013-04-03 07:22:00,64.0,58.1,30.03,East,90,0.0,0.0,81,0.00,,---,0.00,VWS V14.01,2013-04-03 11:22:00,
2013-04-03 07:23:00,64.0,58.1,30.03,SSE,158,0.0,0.0,81,0.00,,---,0.00,VWS V14.01,2013-04-03 11:23:00,
2013-04-03 07:24:00,64.0,58.1,30.03,SSE,158,0.0,0.0,81,0.00,,---,0.00,VWS V14.01,2013-04-03 11:24:00,
2013-04-03 07:25:00,64.0,58.1,30.03,SSE,158,0.0,0.0,81,0.00,,---,0.00,VWS V14.01,2013-04-03 11:25:00,
2013-04-03 07:26:00,64.0,58.1,30.03,SSE,158,0.0,0.0,81,0.00,,---,0.00,VWS V14.01,2013-04-03 11:26:00,
2013-04-03 07:27:00,64.0,58.1,30.03,ENE,68,0.0,0.0,81,0.00,,---,0.00,VWS V14.01,2013-04-03 11:27:00,
2013-04-03 07:28:00,64.2,58.3,30.03,ESE,112,0.0,0.0,81,0.00,,---,0.00,VWS V14.01,2013-04-03 11:28:00,
2013-04-03 07:29:00,64.2,58.3,30.03,ESE,112,0.0,0.0,81,0.00,,---,0.00,VWS V14.01,2013-04-03 11:29:00,
2013-04-03 07:30:00,64.2,58.3,30.03,ESE,112,0.0,0.0,81,0.00,,---,0.00,VWS V14.01,2013-04-03 11:30:00,
2013-04-03 07:31:00,64.2,58.3,30.03,SE,135,0.0,0.0,81,0.00,,---,0.00,VWS V14.01,2013-04-03 11:31:00,
2013-04-03 07:32:00,64.2,58.3,30.03,ENE,68,0.0,0.0,81,0.00,,---,0.00,VWS V14.01,2013-04-03 11:32:00,
2013-04-03 07:33:00,64.4,58.5,30.03,ESE,112,0.0,0.0,81,0.00,,---,0.00,VWS V14.01,2013-04-03 11:33:00,
2013-04-03 07:34:00,64.4,58.5,30.03,ESE,112,0.0,0.0,81,0.00,,---,0.00,VWS V14.01,2013-04-03 11:34:00,
2013-04-03 07:35:00,64.4,58.5,30.03,ESE,112,0.0,0.0,81,0.00,,---,0.00,VWS V14.01,2013-04-03 11:35:00,
2013-04-03 07:36:00,64.6,58.6,30.03,ENE,68,0.0,0.0,81,0.00,,---,0.00,VWS V14.01,2013-04-03 11:36:00,
2013-04-03 07:37:00,64.6,58.6,30.03,East,90,0.0,0.0,81,0.00,,---,0.00,VWS V14.01,2013-04-03 11:37:00,
2013-04-03 07:38:00,64.8,59.1,30.03,SE,135,0.0,0.0,82,0.00,,---,0.00,VWS V14.01,2013-04-03 11:38:00,
2013-04-03 07:39:00,64.6,58.6,30.03,SE,135,0.0,0.0,81,0.00,,---,0.00,VWS V14.01,2013-04-03 11:39:00,
2013-04-03 07:40:00,64.8,59.1,30.03,SE,135,0.0,0.0,82,0.00,,---,0.00,VWS V14.01,2013-04-03 11:40:00,
2013-04-03 07:41:00,64.8,58.8,30.03,SE,135,0.0,0.0,81,0.00,,---,0.00,VWS V14.01,2013-04-03 11:41:00,
2013-04-03 07:42:00,64.8,59.1,30.03,SE,135,0.0,0.0,82,0.00,,---,0.00,VWS V14.01,2013-04-03 11:42:00,
2013-04-03 07:43:00,64.9,59.3,30.03,SSE,158,0.0,0.0,82,0.00,,---,0.00,VWS V14.01,2013-04-03 11:43:00,
2013-04-03 07:44:00,64.9,59.3,30.03,SSE,158,0.0,0.0,82,0.00,,---,0.00,VWS V14.01,2013-04-03 11:44:00,
2013-04-03 07:45:00,64.9,59.3,30.03,SSE,158,0.0,0.0,82,0.00,,---,0.00,VWS V14.01,2013-04-03 11:45:00,
2013-04-03 07:46:00,64.9,59.3,30.03,SSE,158,0.0,0.0,82,0.00,,---,0.00,VWS V14.01,2013-04-03 11:46:00,
2013-04-03 07:47:00,65.1,59.5,30.03,SSE,158,0.0,0.0,82,0.00,,---,0.00,VWS V14.01,2013-04-03 11:47:00,
2013-04-03 07:48:00,65.1,59.5,30.03,SSE,158,0.0,0.0,82,0.00,,---,0.00,VWS V14.01,2013-04-03 11:48:00,
2013-04-03 07:49:00,65.3,59.7,30.03,South,180,0.0,0.0,82,0.00,,---,0.00,VWS V14.01,2013-04-03 11:49:00,
2013-04-03 07:50:00,65.3,59.7,30.03,South,180,0.0,0.0,82,0.00,,---,0.00,VWS V14.01,2013-04-03 11:50:00,
2013-04-03 07:51:00,65.3,59.7,30.03,South,180,0.0,0.0,82,0.00,,---,0.00,VWS V14.01,2013-04-03 11:51:00,
2013-04-03 07:52:00,65.5,59.8,30.03,SSE,158,0.0,0.0,82,0.00,,---,0.00,VWS V14.01,2013-04-03 11:52:00,
2013-04-03 07:53:00,65.5,59.8,30.03,ESE,112,0.0,0.0,82,0.00,,---,0.00,VWS V14.01,2013-04-03 11:53:00,
2013-04-03 07:54:00,65.8,60.5,30.03,SSE,158,0.0,0.0,83,0.00,,---,0.00,VWS V14.01,2013-04-03 11:54:00,
2013-04-03 07:55:00,65.8,60.5,30.03,SSE,158,0.0,2.2,83,0.00,,---,0.00,VWS V14.01,2013-04-03 11:55:00,
2013-04-03 07:56:00,65.8,60.5,30.03,ENE,68,0.0,0.0,83,0.00,,---,0.00,VWS V14.01,2013-04-03 11:56:00,
2013-04-03 07:57:00,65.8,60.5,30.03,SE,135,0.0,0.0,83,0.00,,---,0.00,VWS V14.01,2013-04-03 11:57:00,
2013-04-03 07:58:00,65.8,60.5,30.03,SE,135,0.0,0.0,83,0.00,,---,0.00,VWS V14.01,2013-04-03 11:58:00,
2013-04-03 07:59:00,66.2,60.9,30.03,SSE,158,0.0,0.0,83,0.00,,---,0.00,VWS V14.01,2013-04-03 11:59:00,
2013-04-03 08:00:00,66.0,60.7,30.03,SSE,158,0.0,0.0,83,0.00,,---,0.00,VWS V14.01,2013-04-03 12:00:00,
2013-04-03 08:01:00,66.2,60.9,30.03,SSE,158,0.0,0.0,83,0.00,,---,0.00,VWS V14.01,2013-04-03 12:01:00,
2013-04-03 08:02:00,66.4,61.1,30.03,SSE,158,0.0,0.0,83,0.00,,---,0.00,VWS V14.01,2013-04-03 12:02:00,
2013-04-03 08:03:00,66.4,61.1,30.03,SSE,158,0.0,0.0,83,0.00,,---,0.00,VWS V14.01,2013-04-03 12:03:00,
2013-04-03 08:04:00,66.6,61.2,30.03,SSW,202,0.0,0.0,83,0.00,,---,0.00,VWS V14.01,2013-04-03 12:04:00,
2013-04-03 08:05:00,66.6,61.2,30.03,SSW,202,0.0,3.6,83,0.00,,---,0.00,VWS V14.01,2013-04-03 12:05:00,
2013-04-03 08:06:00,66.6,61.2,30.03,SSW,202,0.0,0.0,83,0.00,,---,0.00,VWS V14.01,2013-04-03 12:06:00,
2013-04-03 08:07:00,66.6,61.2,30.03,South,180,0.0,0.0,83,0.00,,---,0.00,VWS V14.01,2013-04-03 12:07:00,
2013-04-03 08:08:00,66.7,61.8,30.03,SSE,158,4.7,4.7,84,0.00,,---,0.00,VWS V14.01,2013-04-03 12:08:00,
2013-04-03 08:09:00,67.1,62.5,30.03,ESE,112,0.0,0.0,85,0.00,,---,0.00,VWS V14.01,2013-04-03 12:09:00,
2013-04-03 08:10:00,67.1,62.5,30.03,SE,135,0.0,0.0,85,0.00,,---,0.00,VWS V14.01,2013-04-03 12:10:00,
2013-04-03 08:11:00,67.1,62.5,30.03,SSE,158,0.0,0.0,85,0.00,,---,0.00,VWS V14.01,2013-04-03 12:11:00,
2013-04-03 08:12:00,67.3,62.6,30.03,SSE,158,0.0,0.0,85,0.00,,---,0.00,VWS V14.01,2013-04-03 12:12:00,
2013-04-03 08:13:00,67.3,62.6,30.03,SSE,158,2.7,2.7,85,0.00,,---,0.00,VWS V14.01,2013-04-03 12:13:00,
2013-04-03 08:14:00,67.6,63.3,30.03,SE,135,7.6,7.6,86,0.00,,---,0.00,VWS V14.01,2013-04-03 12:14:00,
2013-04-03 08:15:00,67.5,63.1,30.03,South,180,2.9,6.0,86,0.00,,---,0.00,VWS V14.01,2013-04-03 12:15:00,
2013-04-03 08:16:00,67.6,63.3,30.03,SSE,158,2.7,7.6,86,0.00,,---,0.00,VWS V14.01,2013-04-03 12:16:00,
2013-04-03 08:17:00,67.8,63.5,30.03,SSE,158,4.9,4.9,86,0.00,,---,0.00,VWS V14.01,2013-04-03 12:17:00,
2013-04-03 08:18:00,67.8,63.2,30.03,South,180,1.1,4.9,85,0.00,,---,0.00,VWS V14.01,2013-04-03 12:18:00,
2013-04-03 08:19:00,68.0,63.0,30.03,SSE,158,0.9,0.9,84,0.00,,---,0.00,VWS V14.01,2013-04-03 12:19:00,
2013-04-03 08:20:00,68.0,63.0,30.03,South,180,0.0,3.8,84,0.00,,---,0.00,VWS V14.01,2013-04-03 12:20:00,
2013-04-03 08:21:00,68.0,63.0,30.03,South,180,2.7,5.6,84,0.00,,---,0.00,VWS V14.01,2013-04-03 12:21:00,
2013-04-03 08:22:00,68.2,62.8,30.03,SSE,158,2.7,2.9,83,0.00,,---,0.00,VWS V14.01,2013-04-03 12:22:00,
2013-04-03 08:23:00,68.2,62.8,30.03,South,180,2.2,3.8,83,0.00,,---,0.00,VWS V14.01,2013-04-03 12:23:00,
2013-04-03 08:24:00,68.4,62.3,30.03,South,180,4.3,5.6,81,0.00,,---,0.00,VWS V14.01,2013-04-03 12:24:00,
2013-04-03 08:25:00,68.4,62.3,30.03,SSE,158,4.3,7.2,81,0.00,,---,0.00,VWS V14.01,2013-04-03 12:25:00,
2013-04-03 08:26:00,68.4,62.0,30.03,SSE,158,3.6,5.6,80,0.00,,---,0.00,VWS V14.01,2013-04-03 12:26:00,
2013-04-03 08:27:00,68.5,62.1,30.03,SSW,202,2.0,7.8,80,0.00,,---,0.00,VWS V14.01,2013-04-03 12:27:00,
2013-04-03 08:28:00,68.5,62.1,30.03,SSE,158,2.9,4.3,80,0.00,,---,0.00,VWS V14.01,2013-04-03 12:28:00,
2013-04-03 08:29:00,68.7,61.6,30.03,SSE,158,4.0,4.0,78,0.00,,---,0.00,VWS V14.01,2013-04-03 12:29:00,
2013-04-03 08:30:00,68.7,62.0,30.03,SSE,158,0.0,1.6,79,0.00,,---,0.00,VWS V14.01,2013-04-03 12:30:00,
2013-04-03 08:31:00,68.7,61.6,30.03,SSE,158,8.1,8.1,78,0.00,,---,0.00,VWS V14.01,2013-04-03 12:31:00,
2013-04-03 08:32:00,68.7,61.2,30.03,South,180,1.3,8.5,77,0.00,,---,0.00,VWS V14.01,2013-04-03 12:32:00,
2013-04-03 08:33:00,68.9,61.4,30.03,SSW,202,2.0,6.7,77,0.00,,---,0.00,VWS V14.01,2013-04-03 12:33:00,
2013-04-03 08:34:00,69.1,61.2,30.03,SSE,158,4.5,7.4,76,0.00,,---,0.00,VWS V14.01,2013-04-03 12:34:00,
2013-04-03 08:35:00,69.1,61.2,30.03,SSE,158,5.8,6.0,76,0.00,,---,0.00,VWS V14.01,2013-04-03 12:35:00,
2013-04-03 08:36:00,69.1,60.8,30.03,SSW,202,2.9,7.4,75,0.00,,---,0.00,VWS V14.01,2013-04-03 12:36:00,
2013-04-03 08:37:00,69.3,60.6,30.03,South,180,6.0,6.0,74,0.00,,---,0.00,VWS V14.01,2013-04-03 12:37:00,
2013-04-03 08:38:00,69.4,60.8,30.03,SSW,202,4.9,6.0,74,0.00,,---,0.00,VWS V14.01,2013-04-03 12:38:00,
2013-04-03 08:39:00,69.8,60.0,30.03,SSE,158,2.0,3.8,71,0.00,,---,0.00,VWS V14.01,2013-04-03 12:39:00,
2013-04-03 08:40:00,69.8,60.0,30.03,South,180,3.8,4.9,71,0.00,,---,0.00,VWS V14.01,2013-04-03 12:40:00,
2013-04-03 08:41:00,69.6,59.8,30.03,SSE,158,7.8,9.2,71,0.00,,---,0.00,VWS V14.01,2013-04-03 12:41:00,
2013-04-03 08:42:00,69.8,59.6,30.03,SE,135,0.9,8.7,70,0.00,,---,0.00,VWS V14.01,2013-04-03 12:42:00,
2013-04-03 08:43:00,69.8,59.6,30.03,SSW,202,6.3,6.3,70,0.00,,---,0.00,VWS V14.01,2013-04-03 12:43:00,
2013-04-03 08:44:00,70.2,59.5,30.03,SSW,202,3.1,4.0,69,0.00,,---,0.00,VWS V14.01,2013-04-03 12:44:00,
2013-04-03 08:45:00,70.2,59.9,30.03,SSE,158,4.0,4.3,70,0.00,,---,0.00,VWS V14.01,2013-04-03 12:45:00,
2013-04-03 08:46:00,70.2,59.5,30.03,SSE,158,1.6,4.0,69,0.00,,---,0.00,VWS V14.01,2013-04-03 12:46:00,
2013-04-03 08:47:00,70.3,59.7,30.03,SSE,158,4.5,7.8,69,0.00,,---,0.00,VWS V14.01,2013-04-03 12:47:00,
2013-04-03 08:48:00,70.3,59.3,30.03,SSE,158,1.3,4.5,68,0.00,,---,0.00,VWS V14.01,2013-04-03 12:48:00,
2013-04-03 08:49:00,70.5,59.5,30.03,SSE,158,2.2,9.0,68,0.00,,---,0.00,VWS V14.01,2013-04-03 12:49:00,
2013-04-03 08:50:00,70.5,59.5,30.03,SSE,158,9.0,9.0,68,0.00,,---,0.00,VWS V14.01,2013-04-03 12:50:00,
2013-04-03 08:51:00,70.7,59.6,30.03,ESE,112,3.4,9.0,68,0.00,,---,0.00,VWS V14.01,2013-04-03 12:51:00,
2013-04-03 08:52:00,70.7,59.2,30.03,SSE,158,5.4,6.0,67,0.00,,---,0.00,VWS V14.01,2013-04-03 12:52:00,
2013-04-03 08:53:00,70.9,59.4,30.03,SSE,158,2.7,5.4,67,0.00,,---,0.00,VWS V14.01,2013-04-03 12:53:00,
2013-04-03 08:54:00,70.9,58.5,30.03,SE,135,6.3,9.6,65,0.00,,---,0.00,VWS V14.01,2013-04-03 12:54:00,
2013-04-03 08:55:00,70.9,58.5,30.03,SSE,158,9.6,10.5,65,0.00,,---,0.00,VWS V14.01,2013-04-03 12:55:00,
2013-04-03 08:56:00,70.9,58.5,30.03,South,180,7.4,10.3,65,0.00,,---,0.00,VWS V14.01,2013-04-03 12:56:00,
2013-04-03 08:57:00,70.9,58.5,30.03,SSE,158,3.6,9.4,65,0.00,,---,0.00,VWS V14.01,2013-04-03 12:57:00,
2013-04-03 08:58:00,71.1,58.7,30.03,SSE,158,3.6,4.0,65,0.00,,---,0.00,VWS V14.01,2013-04-03 12:58:00,
2013-04-03 08:59:00,71.4,59.0,30.03,SSE,158,3.6,4.5,65,0.00,,---,0.00,VWS V14.01,2013-04-03 12:59:00,
2013-04-03 09:00:00,71.4,59.0,30.03,SSE,158,2.7,5.6,65,0.00,,---,0.00,VWS V14.01,2013-04-03 13:00:00,
2013-04-03 09:01:00,71.4,59.0,30.03,ENE,68,10.3,10.3,65,0.00,,---,0.00,VWS V14.01,2013-04-03 13:01:00,
2013-04-03 09:02:00,71.4,58.6,30.03,SSE,158,2.5,10.3,64,0.00,,---,0.00,VWS V14.01,2013-04-03 13:02:00,
2013-04-03 09:03:00,71.4,58.6,30.03,SSE,158,2.0,4.9,64,0.00,,---,0.00,VWS V14.01,2013-04-03 13:03:00,
2013-04-03 09:04:00,71.6,58.3,30.03,SSW,202,1.6,4.9,63,0.00,,---,0.00,VWS V14.01,2013-04-03 13:04:00,
2013-04-03 09:05:00,71.6,58.3,30.03,SSE,158,4.0,6.3,63,0.00,,---,0.00,VWS V14.01,2013-04-03 13:05:00,
2013-04-03 09:06:00,71.8,59.0,30.03,SSW,202,2.7,4.9,64,0.00,,---,0.00,VWS V14.01,2013-04-03 13:06:00,
2013-04-03 09:07:00,72.1,59.3,30.03,SSE,158,3.8,4.9,64,0.00,,---,0.00,VWS V14.01,2013-04-03 13:07:00,
2013-04-03 09:08:00,72.3,59.5,30.03,SSE,158,4.7,4.7,64,0.00,,---,0.00,VWS V14.01,2013-04-03 13:08:00,
2013-04-03 09:09:00,72.7,58.9,30.03,SSE,158,3.4,6.5,62,0.00,,---,0.00,VWS V14.01,2013-04-03 13:09:00,
2013-04-03 09:10:00,72.5,58.8,30.03,SSW,202,6.5,6.5,62,0.00,,---,0.00,VWS V14.01,2013-04-03 13:10:00,
2013-04-03 09:11:00,72.7,58.5,30.03,South,180,2.5,6.5,61,0.00,,---,0.00,VWS V14.01,2013-04-03 13:11:00,
2013-04-03 09:12:00,72.9,59.1,30.03,South,180,3.6,3.6,62,0.00,,---,0.00,VWS V14.01,2013-04-03 13:12:00,
2013-04-03 09:13:00,72.7,58.9,30.03,ESE,112,0.0,4.5,62,0.00,,---,0.00,VWS V14.01,2013-04-03 13:13:00,
2013-04-03 09:14:00,72.1,57.5,30.03,SW,225,1.3,5.4,60,0.00,,---,0.00,VWS V14.01,2013-04-03 13:14:00,
2013-04-03 09:15:00,72.3,57.7,30.03,South,180,5.4,5.4,60,0.00,,---,0.00,VWS V14.01,2013-04-03 13:15:00,
2013-04-03 09:16:00,72.1,57.5,30.03,SSE,158,0.0,5.4,60,0.00,,---,0.00,VWS V14.01,2013-04-03 13:16:00,
2013-04-03 09:17:00,72.1,58.0,30.03,SE,135,2.9,3.6,61,0.00,,---,0.00,VWS V14.01,2013-04-03 13:17:00,
2013-04-03 09:18:00,72.0,57.8,30.03,SSW,202,6.0,6.0,61,0.00,,---,0.00,VWS V14.01,2013-04-03 13:18:00,
2013-04-03 09:19:00,72.0,57.3,30.03,ESE,112,5.4,5.4,60,0.00,,---,0.00,VWS V14.01,2013-04-03 13:19:00,
2013-04-03 09:20:00,72.0,57.3,30.03,South,180,4.9,5.6,60,0.00,,---,0.00,VWS V14.01,2013-04-03 13:20:00,
2013-04-03 09:21:00,72.1,57.5,30.03,South,180,0.9,6.5,60,0.00,,---,0.00,VWS V14.01,2013-04-03 13:21:00,
2013-04-03 09:22:00,72.1,57.5,30.03,SSE,158,4.3,10.7,60,0.00,,---,0.00,VWS V14.01,2013-04-03 13:22:00,
2013-04-03 09:23:00,72.1,58.0,30.03,SSE,158,3.1,4.3,61,0.00,,---,0.00,VWS V14.01,2013-04-03 13:23:00,
2013-04-03 09:24:00,72.0,57.3,30.03,SSW,202,2.7,3.1,60,0.00,,---,0.00,VWS V14.01,2013-04-03 13:24:00,
2013-04-03 09:25:00,72.0,57.3,30.03,South,180,2.5,8.1,60,0.00,,---,0.00,VWS V14.01,2013-04-03 13:25:00,
2013-04-03 09:26:00,72.1,57.5,30.03,South,180,6.0,6.0,60,0.00,,---,0.00,VWS V14.01,2013-04-03 13:26:00,
2013-04-03 09:27:00,72.1,57.5,30.00,South,180,3.6,6.0,60,0.00,,---,0.00,VWS V14.01,2013-04-03 13:27:00,
2013-04-03 09:28:00,72.5,58.3,30.00,SSE,158,1.3,3.6,61,0.00,,---,0.00,VWS V14.01,2013-04-03 13:28:00,
2013-04-03 09:29:00,73.0,58.3,30.00,SSE,158,3.1,3.8,60,0.00,,---,0.00,VWS V14.01,2013-04-03 13:29:00,
2013-04-03 09:30:00,72.9,58.2,30.00,ESE,112,3.8,3.8,60,0.00,,---,0.00,VWS V14.01,2013-04-03 13:30:00,
2013-04-03 09:31:00,73.0,58.3,30.00,SSE,158,3.8,10.1,60,0.00,,---,0.00,VWS V14.01,2013-04-03 13:31:00,
2013-04-03 09:32:00,72.9,57.7,30.00,SSE,158,7.4,7.4,59,0.00,,---,0.00,VWS V14.01,2013-04-03 13:32:00,
2013-04-03 09:33:00,72.9,57.2,30.00,ESE,112,4.7,9.8,58,0.00,,---,0.00,VWS V14.01,2013-04-03 13:33:00,
2013-04-03 09:34:00,73.2,58.0,30.00,South,180,2.9,5.4,59,0.00,,---,0.00,VWS V14.01,2013-04-03 13:34:00,
2013-04-03 09:35:00,73.2,58.0,30.00,SE,135,3.1,7.4,59,0.00,,---,0.00,VWS V14.01,2013-04-03 13:35:00,
2013-04-03 09:36:00,73.2,58.0,30.00,South,180,2.0,5.4,59,0.00,,---,0.00,VWS V14.01,2013-04-03 13:36:00,
2013-04-03 09:37:00,73.6,57.9,30.00,SSE,158,5.4,5.4,58,0.00,,---,0.00,VWS V14.01,2013-04-03 13:37:00,
2013-04-03 09:38:00,73.6,57.4,30.00,SSW,202,1.3,5.4,57,0.00,,---,0.00,VWS V14.01,2013-04-03 13:38:00,
2013-04-03 09:39:00,73.8,57.1,30.00,ESE,112,0.0,3.8,56,0.00,,---,0.00,VWS V14.01,2013-04-03 13:39:00,
2013-04-03 09:40:00,73.8,57.1,30.00,SSE,158,3.8,6.3,56,0.00,,---,0.00,VWS V14.01,2013-04-03 13:40:00,
2013-04-03 09:41:00,73.8,57.1,30.00,SSE,158,1.6,3.8,56,0.00,,---,0.00,VWS V14.01,2013-04-03 13:41:00,
2013-04-03 09:42:00,74.3,58.1,30.03,South,180,2.0,4.9,57,0.00,,---,0.00,VWS V14.01,2013-04-03 13:42:00,
2013-04-03 09:43:00,74.3,57.6,30.03,South,180,3.6,4.7,56,0.00,,---,0.00,VWS V14.01,2013-04-03 13:43:00,
2013-04-03 09:44:00,74.3,56.6,30.03,SSE,158,4.0,8.1,54,0.00,,---,0.00,VWS V14.01,2013-04-03 13:44:00,
2013-04-03 09:45:00,74.7,57.4,30.03,South,180,3.8,5.8,55,0.00,,---,0.00,VWS V14.01,2013-04-03 13:45:00,
2013-04-03 09:46:00,74.7,57.4,30.03,South,180,3.8,5.8,55,0.00,,---,0.00,VWS V14.01,2013-04-03 13:46:00,
2013-04-03 09:47:00,74.8,57.1,30.03,SSW,202,3.1,5.4,54,0.00,,---,0.00,VWS V14.01,2013-04-03 13:47:00,
2013-04-03 09:48:00,74.7,56.4,30.03,SE,135,5.4,7.8,53,0.00,,---,0.00,VWS V14.01,2013-04-03 13:48:00,
2013-04-03 09:49:00,74.7,56.4,30.03,South,180,2.9,5.6,53,0.00,,---,0.00,VWS V14.01,2013-04-03 13:49:00,
2013-04-03 09:50:00,74.8,56.6,30.03,South,180,2.5,5.6,53,0.00,,---,0.00,VWS V14.01,2013-04-03 13:50:00,
2013-04-03 09:51:00,74.8,56.6,30.03,South,180,2.5,5.6,53,0.00,,---,0.00,VWS V14.01,2013-04-03 13:51:00,
2013-04-03 09:52:00,75.2,56.9,30.03,SSE,158,2.9,3.8,53,0.00,,---,0.00,VWS V14.01,2013-04-03 13:52:00,
2013-04-03 09:53:00,75.4,57.1,30.03,South,180,2.0,2.9,53,0.00,,---,0.00,VWS V14.01,2013-04-03 13:53:00,
2013-04-03 09:54:00,75.6,56.7,30.03,South,180,1.6,3.4,52,0.00,,---,0.00,VWS V14.01,2013-04-03 13:54:00,
2013-04-03 09:55:00,75.6,55.6,30.03,SE,135,3.6,11.0,50,0.00,,---,0.00,VWS V14.01,2013-04-03 13:55:00,
2013-04-03 09:56:00,75.6,55.6,30.03,SSE,158,6.0,11.0,50,0.00,,---,0.00,VWS V14.01,2013-04-03 13:56:00,
2013-04-03 09:57:00,75.0,55.1,30.00,South,180,0.0,7.4,50,0.00,,---,0.00,VWS V14.01,2013-04-03 13:57:00,
2013-04-03 09:58:00,75.2,55.3,30.00,South,180,8.1,8.1,50,0.00,,---,0.00,VWS V14.01,2013-04-03 13:58:00,
2013-04-03 09:59:00,75.0,55.1,30.00,SSW,202,9.6,11.0,50,0.00,,---,0.00,VWS V14.01,2013-04-03 13:59:00,
2013-04-03 10:00:00,74.8,55.0,30.00,SSE,158,9.4,12.8,50,0.00,,---,0.00,VWS V14.01,2013-04-03 14:00:00,
2013-04-03 10:01:00,74.8,55.0,30.00,SSE,158,9.4,12.8,50,0.00,,---,0.00,VWS V14.01,2013-04-03 14:01:00,
2013-04-03 10:02:00,74.5,54.6,30.00,SSE,158,2.7,9.4,50,0.00,,---,0.00,VWS V14.01,2013-04-03 14:02:00,
2013-04-03 10:03:00,74.5,55.2,30.00,SSE,158,5.4,5.4,51,0.00,,---,0.00,VWS V14.01,2013-04-03 14:03:00,
2013-04-03 10:04:00,74.8,56.0,30.00,SSE,158,3.1,6.0,52,0.00,,---,0.00,VWS V14.01,2013-04-03 14:04:00,
2013-04-03 10:05:00,75.2,55.8,30.00,SSW,202,4.0,6.5,51,0.00,,---,0.00,VWS V14.01,2013-04-03 14:05:00,
2013-04-03 10:06:00,75.2,55.8,30.00,SSW,202,4.0,6.5,51,0.00,,---,0.00,VWS V14.01,2013-04-03 14:06:00,
2013-04-03 10:07:00,75.2,55.8,30.00,South,180,5.8,10.7,51,0.00,,---,0.00,VWS V14.01,2013-04-03 14:07:00,
2013-04-03 10:08:00,75.0,55.7,30.00,SSE,158,2.7,5.8,51,0.00,,---,0.00,VWS V14.01,2013-04-03 14:08:00,
2013-04-03 10:09:00,75.2,55.3,30.00,South,180,3.8,8.1,50,0.00,,---,0.00,VWS V14.01,2013-04-03 14:09:00,
2013-04-03 10:10:00,75.4,55.5,30.00,South,180,5.6,5.6,50,0.00,,---,0.00,VWS V14.01,2013-04-03 14:10:00,
2013-04-03 10:11:00,75.4,55.5,30.00,SSE,158,5.6,5.6,50,0.00,,---,0.00,VWS V14.01,2013-04-03 14:11:00,
2013-04-03 10:12:00,75.0,54.6,30.03,SSE,158,10.3,11.0,49,0.00,,---,0.00,VWS V14.01,2013-04-03 14:12:00,
2013-04-03 10:13:00,74.8,55.0,30.03,SSW,202,8.1,14.3,50,0.00,,---,0.00,VWS V14.01,2013-04-03 14:13:00,
2013-04-03 10:14:00,75.0,55.1,30.03,South,180,11.0,11.0,50,0.00,,---,0.00,VWS V14.01,2013-04-03 14:14:00,
2013-04-03 10:15:00,75.2,55.3,30.03,SSE,158,2.2,4.3,50,0.00,,---,0.00,VWS V14.01,2013-04-03 14:15:00,
2013-04-03 10:16:00,75.2,55.3,30.03,SSE,158,2.2,4.3,50,0.00,,---,0.00,VWS V14.01,2013-04-03 14:16:00,
2013-04-03 10:17:00,75.7,55.8,30.03,SSE,158,5.4,5.4,50,0.00,,---,0.00,VWS V14.01,2013-04-03 14:17:00,
2013-04-03 10:18:00,75.9,55.4,30.03,South,180,10.3,10.3,49,0.00,,---,0.00,VWS V14.01,2013-04-03 14:18:00,
2013-04-03 10:19:00,75.9,55.4,30.03,West,270,6.7,10.3,49,0.00,,---,0.00,VWS V14.01,2013-04-03 14:19:00,
2013-04-03 10:20:00,75.4,54.3,30.03,SSW,202,6.7,10.3,48,0.00,,---,0.00,VWS V14.01,2013-04-03 14:20:00,
2013-04-03 10:21:00,75.4,54.3,30.03,SSW,202,6.7,10.3,48,0.00,,---,0.00,VWS V14.01,2013-04-03 14:21:00,
2013-04-03 10:22:00,75.6,54.5,30.03,SW,225,3.4,6.7,48,0.00,,---,0.00,VWS V14.01,2013-04-03 14:22:00,
2013-04-03 10:23:00,75.6,54.5,30.03,SSE,158,6.3,6.3,48,0.00,,---,0.00,VWS V14.01,2013-04-03 14:23:00,
2013-04-03 10:24:00,75.6,54.5,30.03,SSE,158,8.5,12.5,48,0.00,,---,0.00,VWS V14.01,2013-04-03 14:24:00,
2013-04-03 10:25:00,75.4,54.3,30.03,South,180,9.6,12.1,48,0.00,,---,0.00,VWS V14.01,2013-04-03 14:25:00,
2013-04-03 10:26:00,75.6,54.5,30.03,South,180,9.6,12.1,48,0.00,,---,0.00,VWS V14.01,2013-04-03 14:26:00,
2013-04-03 10:27:00,75.6,54.5,30.03,SE,135,8.7,9.6,48,0.00,,---,0.00,VWS V14.01,2013-04-03 14:27:00,
2013-04-03 10:28:00,75.2,54.2,30.03,SSW,202,3.6,10.7,48,0.00,,---,0.00,VWS V14.01,2013-04-03 14:28:00,
2013-04-03 10:29:00,75.6,55.1,30.03,SSE,158,6.0,6.0,49,0.00,,---,0.00,VWS V14.01,2013-04-03 14:29:00,
2013-04-03 10:30:00,75.9,55.4,30.03,SSE,158,9.4,9.4,49,0.00,,---,0.00,VWS V14.01,2013-04-03 14:30:00,
2013-04-03 10:31:00,75.9,55.4,30.03,SSE,158,9.4,9.4,49,0.00,,---,0.00,VWS V14.01,2013-04-03 14:31:00,
2013-04-03 10:32:00,76.1,55.0,30.03,SSW,202,2.7,9.4,48,0.00,,---,0.00,VWS V14.01,2013-04-03 14:32:00,
2013-04-03 10:33:00,76.3,55.2,30.03,SSW,202,5.8,6.5,48,0.00,,---,0.00,VWS V14.01,2013-04-03 14:33:00,
2013-04-03 10:34:00,76.6,55.5,30.03,ESE,112,4.9,5.8,48,0.00,,---,0.00,VWS V14.01,2013-04-03 14:34:00,
2013-04-03 10:35:00,76.3,54.6,30.03,South,180,3.1,6.5,47,0.00,,---,0.00,VWS V14.01,2013-04-03 14:35:00,
2013-04-03 10:36:00,76.3,54.6,30.03,South,180,3.1,6.5,47,0.00,,---,0.00,VWS V14.01,2013-04-03 14:36:00,
2013-04-03 10:37:00,76.6,54.9,30.03,South,180,2.0,4.0,47,0.00,,---,0.00,VWS V14.01,2013-04-03 14:37:00,
2013-04-03 10:38:00,76.8,55.1,30.03,SSE,158,8.1,8.1,47,0.00,,---,0.00,VWS V14.01,2013-04-03 14:38:00,
2013-04-03 10:39:00,76.8,55.1,30.03,SE,135,3.6,10.1,47,0.00,,---,0.00,VWS V14.01,2013-04-03 14:39:00,
2013-04-03 10:40:00,76.8,54.5,30.03,SSE,158,2.7,3.6,46,0.00,,---,0.00,VWS V14.01,2013-04-03 14:40:00,
2013-04-03 10:41:00,76.6,54.3,30.03,SSE,158,3.6,10.1,46,0.00,,---,0.00,VWS V14.01,2013-04-03 14:41:00,
2013-04-03 10:42:00,76.8,54.5,30.03,SSE,158,12.3,12.3,46,0.00,,---,0.00,VWS V14.01,2013-04-03 14:42:00,
2013-04-03 10:43:00,76.8,54.5,30.03,SSW,202,6.0,15.4,46,0.00,,---,0.00,VWS V14.01,2013-04-03 14:43:00,
2013-04-03 10:44:00,76.8,54.5,30.03,SSE,158,10.1,10.1,46,0.00,,---,0.00,VWS V14.01,2013-04-03 14:44:00,
2013-04-03 10:45:00,76.5,54.2,30.03,South,180,3.8,10.5,46,0.00,,---,0.00,VWS V14.01,2013-04-03 14:45:00,
2013-04-03 10:46:00,76.5,54.2,30.03,South,180,3.8,10.5,46,0.00,,---,0.00,VWS V14.01,2013-04-03 14:46:00,
2013-04-03 10:47:00,76.8,54.5,30.03,SSE,158,10.1,13.2,46,0.00,,---,0.00,VWS V14.01,2013-04-03 14:47:00,
2013-04-03 10:48:00,76.8,54.5,30.03,SSE,158,2.9,10.1,46,0.00,,---,0.00,VWS V14.01,2013-04-03 14:48:00,
2013-04-03 10:49:00,77.4,55.0,30.03,SSW,202,4.0,4.0,46,0.00,,---,0.00,VWS V14.01,2013-04-03 14:49:00,
2013-04-03 10:50:00,77.0,53.4,30.03,SSE,158,4.9,5.4,44,0.00,,---,0.00,VWS V14.01,2013-04-03 14:50:00,
2013-04-03 10:51:00,77.0,53.4,30.03,SE,135,5.4,12.3,44,0.00,,---,0.00,VWS V14.01,2013-04-03 14:51:00,
2013-04-03 10:52:00,77.0,53.4,30.03,SSE,158,3.8,5.4,44,0.00,,---,0.00,VWS V14.01,2013-04-03 14:52:00,
2013-04-03 10:53:00,77.2,53.6,30.03,SSE,158,4.5,6.5,44,0.00,,---,0.00,VWS V14.01,2013-04-03 14:53:00,
2013-04-03 10:54:00,77.2,53.6,30.03,SSE,158,3.8,4.5,44,0.00,,---,0.00,VWS V14.01,2013-04-03 14:54:00,
2013-04-03 10:55:00,77.9,54.3,30.03,SSE,158,4.0,4.0,44,0.00,,---,0.00,VWS V14.01,2013-04-03 14:55:00,
2013-04-03 10:56:00,77.9,54.3,30.03,SSE,158,4.0,4.0,44,0.00,,---,0.00,VWS V14.01,2013-04-03 14:56:00,
2013-04-03 10:57:00,78.1,54.4,30.00,SSW,202,3.1,5.8,44,0.00,,---,0.00,VWS V14.01,2013-04-03 14:57:00,
2013-04-03 10:58:00,78.3,53.3,30.00,South,180,7.8,9.8,42,0.00,,---,0.00,VWS V14.01,2013-04-03 14:58:00,
2013-04-03 10:59:00,78.3,53.3,30.00,SSW,202,7.6,7.8,42,0.00,,---,0.00,VWS V14.01,2013-04-03 14:59:00,
2013-04-03 11:00:00,77.7,53.5,30.00,SSE,158,3.1,10.7,43,0.00,,---,0.00,VWS V14.01,2013-04-03 15:00:00,
2013-04-03 11:01:00,77.7,53.5,30.00,SSE,158,3.1,10.7,43,0.00,,---,0.00,VWS V14.01,2013-04-03 15:01:00,
2013-04-03 11:02:00,77.9,53.6,30.00,South,180,5.4,5.4,43,0.00,,---,0.00,VWS V14.01,2013-04-03 15:02:00,
2013-04-03 11:03:00,78.1,53.8,30.00,South,180,3.4,6.9,43,0.00,,---,0.00,VWS V14.01,2013-04-03 15:03:00,
2013-04-03 11:04:00,78.1,53.8,30.00,SSE,158,10.1,10.1,43,0.00,,---,0.00,VWS V14.01,2013-04-03 15:04:00,
2013-04-03 11:05:00,78.1,53.8,30.00,SE,135,2.5,4.7,43,0.00,,---,0.00,VWS V14.01,2013-04-03 15:05:00,
2013-04-03 11:06:00,78.1,53.8,30.00,South,180,4.7,6.3,43,0.00,,---,0.00,VWS V14.01,2013-04-03 15:06:00,
2013-04-03 11:07:00,78.1,53.8,30.00,SSE,158,5.4,5.4,43,0.00,,---,0.00,VWS V14.01,2013-04-03 15:07:00,
2013-04-03 11:08:00,78.8,53.8,30.00,South,180,3.6,6.0,42,0.00,,---,0.00,VWS V14.01,2013-04-03 15:08:00,
2013-04-03 11:09:00,79.0,54.0,30.00,SSE,158,7.6,7.6,42,0.00,,---,0.00,VWS V14.01,2013-04-03 15:09:00,
2013-04-03 11:10:00,78.6,53.0,30.00,SSE,158,7.2,14.8,41,0.00,,---,0.00,VWS V14.01,2013-04-03 15:10:00,
2013-04-03 11:11:00,79.0,53.3,30.00,SSE,158,14.8,14.8,41,0.00,,---,0.00,VWS V14.01,2013-04-03 15:11:00,
2013-04-03 11:12:00,78.6,53.0,30.03,South,180,2.9,14.8,41,0.00,,---,0.00,VWS V14.01,2013-04-03 15:12:00,
2013-04-03 11:13:00,78.8,53.1,30.03,SSE,158,4.7,11.0,41,0.00,,---,0.00,VWS V14.01,2013-04-03 15:13:00,
2013-04-03 11:14:00,78.6,53.0,30.03,SSW,202,3.8,13.0,41,0.00,,---,0.00,VWS V14.01,2013-04-03 15:14:00,
2013-04-03 11:15:00,79.3,53.6,30.03,SE,135,1.3,2.0,41,0.00,,---,0.00,VWS V14.01,2013-04-03 15:15:00,
2013-04-03 11:16:00,79.3,53.6,30.03,SSW,202,2.0,6.3,41,0.00,,---,0.00,VWS V14.01,2013-04-03 15:16:00,
2013-04-03 11:17:00,79.7,53.9,30.03,NNW,338,3.8,3.8,41,0.00,,---,0.00,VWS V14.01,2013-04-03 15:17:00,
2013-04-03 11:18:00,80.2,54.4,30.03,South,180,3.4,3.8,41,0.00,,---,0.00,VWS V14.01,2013-04-03 15:18:00,
2013-04-03 11:19:00,80.2,53.8,30.03,ENE,68,3.8,5.8,40,0.00,,---,0.00,VWS V14.01,2013-04-03 15:19:00,
2013-04-03 11:20:00,79.3,53.0,30.03,SSE,158,6.3,6.3,40,0.00,,---,0.00,VWS V14.01,2013-04-03 15:20:00,
2013-04-03 11:21:00,79.3,53.0,30.03,SSE,158,4.0,12.1,40,0.00,,---,0.00,VWS V14.01,2013-04-03 15:21:00,
2013-04-03 11:22:00,79.5,53.1,30.03,SE,135,4.0,6.3,40,0.00,,---,0.00,VWS V14.01,2013-04-03 15:22:00,
2013-04-03 11:23:00,79.9,53.4,30.03,South,180,4.7,8.1,40,0.00,,---,0.00,VWS V14.01,2013-04-03 15:23:00,
2013-04-03 11:24:00,80.2,53.8,30.03,SSE,158,12.3,12.3,40,0.00,,---,0.00,VWS V14.01,2013-04-03 15:24:00,
2013-04-03 11:25:00,79.5,51.7,30.03,SSW,202,5.8,11.0,38,0.00,,---,0.00,VWS V14.01,2013-04-03 15:25:00,
2013-04-03 11:26:00,79.7,51.9,30.03,SSE,158,4.0,8.1,38,0.00,,---,0.00,VWS V14.01,2013-04-03 15:26:00,
2013-04-03 11:27:00,79.5,51.7,30.03,SSW,202,4.9,11.0,38,0.00,,---,0.00,VWS V14.01,2013-04-03 15:27:00,
2013-04-03 11:28:00,79.3,50.8,30.03,SSW,202,5.8,12.1,37,0.00,,---,0.00,VWS V14.01,2013-04-03 15:28:00,
2013-04-03 11:29:00,79.0,51.2,30.03,ENE,68,2.0,14.1,38,0.00,,---,0.00,VWS V14.01,2013-04-03 15:29:00,
2013-04-03 11:30:00,78.3,50.6,30.03,SSE,158,10.5,10.5,38,0.00,,---,0.00,VWS V14.01,2013-04-03 15:30:00,
2013-04-03 11:31:00,78.3,50.6,30.03,SSE,158,6.5,10.5,38,0.00,,---,0.00,VWS V14.01,2013-04-03 15:31:00,
2013-04-03 11:32:00,77.9,51.0,30.03,SSE,158,7.6,10.5,39,0.00,,---,0.00,VWS V14.01,2013-04-03 15:32:00,
2013-04-03 11:33:00,78.1,51.8,30.03,SSE,158,2.9,7.6,40,0.00,,---,0.00,VWS V14.01,2013-04-03 15:33:00,
2013-04-03 11:34:00,78.4,52.1,30.03,SE,135,3.8,6.5,40,0.00,,---,0.00,VWS V14.01,2013-04-03 15:34:00,
2013-04-03 11:35:00,78.6,52.3,30.03,SSE,158,4.3,4.3,40,0.00,,---,0.00,VWS V14.01,2013-04-03 15:35:00,
2013-04-03 11:36:00,78.6,52.3,30.03,SSE,158,2.7,10.5,40,0.00,,---,0.00,VWS V14.01,2013-04-03 15:36:00,
2013-04-03 11:37:00,79.0,52.6,30.03,SSE,158,6.5,6.5,40,0.00,,---,0.00,VWS V14.01,2013-04-03 15:37:00,
2013-04-03 11:38:00,78.4,51.5,30.03,SSE,158,4.0,10.7,39,0.00,,---,0.00,VWS V14.01,2013-04-03 15:38:00,
2013-04-03 11:39:00,78.4,51.5,30.03,South,180,6.0,6.0,39,0.00,,---,0.00,VWS V14.01,2013-04-03 15:39:00,
2013-04-03 11:40:00,78.6,51.6,30.03,SSW,202,2.5,6.3,39,0.00,,---,0.00,VWS V14.01,2013-04-03 15:40:00,
2013-04-03 11:41:00,78.6,51.6,30.03,South,180,6.3,10.1,39,0.00,,---,0.00,VWS V14.01,2013-04-03 15:41:00,
2013-04-03 11:42:00,78.6,51.6,30.03,SSE,158,5.8,6.3,39,0.00,,---,0.00,VWS V14.01,2013-04-03 15:42:00,
2013-04-03 11:43:00,78.8,51.8,30.03,South,180,7.2,9.6,39,0.00,,---,0.00,VWS V14.01,2013-04-03 15:43:00,
2013-04-03 11:44:00,78.8,51.8,30.03,South,180,3.4,10.7,39,0.00,,---,0.00,VWS V14.01,2013-04-03 15:44:00,
2013-04-03 11:45:00,78.6,51.6,30.03,South,180,6.7,6.7,39,0.00,,---,0.00,VWS V14.01,2013-04-03 15:45:00,
2013-04-03 11:46:00,78.4,51.5,30.03,SSE,158,2.9,4.9,39,0.00,,---,0.00,VWS V14.01,2013-04-03 15:46:00,
2013-04-03 11:47:00,78.6,51.6,30.03,South,180,5.8,6.7,39,0.00,,---,0.00,VWS V14.01,2013-04-03 15:47:00,
2013-04-03 11:48:00,79.0,51.2,30.03,SSW,202,6.7,6.7,38,0.00,,---,0.00,VWS V14.01,2013-04-03 15:48:00,
2013-04-03 11:49:00,79.2,51.4,30.03,SE,135,2.9,6.7,38,0.00,,---,0.00,VWS V14.01,2013-04-03 15:49:00,
2013-04-03 11:50:00,79.3,51.5,30.03,SSE,158,4.0,6.3,38,0.00,,---,0.00,VWS V14.01,2013-04-03 15:50:00,
2013-04-03 11:51:00,79.3,51.5,30.03,ESE,112,3.6,7.6,38,0.00,,---,0.00,VWS V14.01,2013-04-03 15:51:00,
2013-04-03 11:52:00,79.5,51.0,30.03,SSE,158,2.7,6.3,37,0.00,,---,0.00,VWS V14.01,2013-04-03 15:52:00,
2013-04-03 11:53:00,80.1,51.5,30.03,SSW,202,3.8,4.0,37,0.00,,---,0.00,VWS V14.01,2013-04-03 15:53:00,
2013-04-03 11:54:00,80.1,51.5,30.03,SSE,158,5.4,7.8,37,0.00,,---,0.00,VWS V14.01,2013-04-03 15:54:00,
2013-04-03 11:55:00,80.6,50.5,30.03,SSE,158,6.5,10.1,35,0.00,,---,0.00,VWS V14.01,2013-04-03 15:55:00,
2013-04-03 11:56:00,80.6,51.2,30.03,SE,135,10.1,10.1,36,0.00,,---,0.00,VWS V14.01,2013-04-03 15:56:00,
2013-04-03 11:57:00,80.6,50.5,30.03,SE,135,4.9,10.1,35,0.00,,---,0.00,VWS V14.01,2013-04-03 15:57:00,
2013-04-03 11:58:00,80.6,50.5,30.03,SSE,158,3.6,8.1,35,0.00,,---,0.00,VWS V14.01,2013-04-03 15:58:00,
2013-04-03 11:59:00,80.4,50.3,30.03,SSE,158,3.4,10.7,35,0.00,,---,0.00,VWS V14.01,2013-04-03 15:59:00,
2013-04-03 12:00:00,81.0,50.8,30.03,SSE,158,2.0,4.0,35,0.00,,---,0.00,VWS V14.01,2013-04-03 16:00:00,
2013-04-03 12:01:00,80.6,49.7,30.03,SSE,158,6.5,7.8,34,0.00,,---,0.00,VWS V14.01,2013-04-03 16:01:00,
2013-04-03 12:02:00,80.6,49.7,30.03,SSE,158,6.5,7.8,34,0.00,,---,0.00,VWS V14.01,2013-04-03 16:02:00,
2013-04-03 12:03:00,80.8,49.8,30.03,SSW,202,3.4,6.9,34,0.00,,---,0.00,VWS V14.01,2013-04-03 16:03:00,
2013-04-03 12:04:00,81.1,50.1,30.03,SSE,158,6.3,6.3,34,0.00,,---,0.00,VWS V14.01,2013-04-03 16:04:00,
2013-04-03 12:05:00,81.1,50.1,30.03,South,180,6.7,6.7,34,0.00,,---,0.00,VWS V14.01,2013-04-03 16:05:00,
2013-04-03 12:06:00,81.7,49.8,30.03,South,180,2.7,6.3,33,0.00,,---,0.00,VWS V14.01,2013-04-03 16:06:00,
2013-04-03 12:07:00,81.7,49.8,30.03,South,180,2.9,6.3,33,0.00,,---,0.00,VWS V14.01,2013-04-03 16:07:00,
2013-04-03 12:08:00,81.9,50.0,30.03,SW,225,4.0,4.0,33,0.00,,---,0.00,VWS V14.01,2013-04-03 16:08:00,
2013-04-03 12:09:00,81.5,48.8,30.03,SSE,158,6.0,9.8,32,0.00,,---,0.00,VWS V14.01,2013-04-03 16:09:00,
2013-04-03 12:10:00,81.1,49.3,30.03,SSE,158,12.5,12.5,33,0.00,,---,0.00,VWS V14.01,2013-04-03 16:10:00,
2013-04-03 12:11:00,81.1,49.3,30.03,SSE,158,2.9,2.9,33,0.00,,---,0.00,VWS V14.01,2013-04-03 16:11:00,
2013-04-03 12:12:00,81.1,49.3,30.03,SSE,158,2.9,2.9,33,0.00,,---,0.00,VWS V14.01,2013-04-03 16:12:00,
2013-04-03 12:13:00,81.0,49.2,30.03,SSE,158,4.5,9.8,33,0.00,,---,0.00,VWS V14.01,2013-04-03 16:13:00,
2013-04-03 12:14:00,81.1,49.3,30.03,SSW,202,3.1,4.7,33,0.00,,---,0.00,VWS V14.01,2013-04-03 16:14:00,
2013-04-03 12:15:00,81.5,49.7,30.03,SSW,202,6.5,6.5,33,0.00,,---,0.00,VWS V14.01,2013-04-03 16:15:00,
2013-04-03 12:16:00,81.9,50.0,30.03,SSW,202,2.5,6.3,33,0.00,,---,0.00,VWS V14.01,2013-04-03 16:16:00,
2013-04-03 12:17:00,81.9,50.0,30.03,SSW,202,2.5,6.3,33,0.00,,---,0.00,VWS V14.01,2013-04-03 16:17:00,
2013-04-03 12:18:00,82.2,50.3,30.03,SSW,202,4.7,4.7,33,0.00,,---,0.00,VWS V14.01,2013-04-03 16:18:00,
2013-04-03 12:19:00,82.2,49.5,30.03,SSE,158,3.4,4.7,32,0.00,,---,0.00,VWS V14.01,2013-04-03 16:19:00,
2013-04-03 12:20:00,81.9,49.1,30.03,SSE,158,5.6,8.7,32,0.00,,---,0.00,VWS V14.01,2013-04-03 16:20:00,
2013-04-03 12:21:00,81.5,48.8,30.03,SE,135,2.7,6.0,32,0.00,,---,0.00,VWS V14.01,2013-04-03 16:21:00,
2013-04-03 12:22:00,81.5,48.8,30.03,WNW,292,6.0,6.0,32,0.00,,---,0.00,VWS V14.01,2013-04-03 16:22:00,
2013-04-03 12:23:00,81.7,49.0,30.03,SSW,202,3.6,6.0,32,0.00,,---,0.00,VWS V14.01,2013-04-03 16:23:00,
2013-04-03 12:24:00,81.9,49.1,30.03,West,270,2.0,3.6,32,0.00,,---,0.00,VWS V14.01,2013-04-03 16:24:00,
2013-04-03 12:25:00,82.0,49.3,30.03,SSE,158,2.7,3.4,32,0.00,,---,0.00,VWS V14.01,2013-04-03 16:25:00,
2013-04-03 12:26:00,81.3,48.7,30.03,East,90,1.1,2.7,32,0.00,,---,0.00,VWS V14.01,2013-04-03 16:26:00,
2013-04-03 12:27:00,81.5,48.8,30.03,South,180,2.7,6.5,32,0.00,,---,0.00,VWS V14.01,2013-04-03 16:27:00,
2013-04-03 12:28:00,81.5,48.8,30.03,SSE,158,3.4,3.4,32,0.00,,---,0.00,VWS V14.01,2013-04-03 16:28:00,
2013-04-03 12:29:00,81.7,49.0,30.03,SSE,158,4.9,7.8,32,0.00,,---,0.00,VWS V14.01,2013-04-03 16:29:00,
2013-04-03 12:30:00,81.7,49.0,30.03,SSE,158,2.0,4.9,32,0.00,,---,0.00,VWS V14.01,2013-04-03 16:30:00,
2013-04-03 12:31:00,82.9,50.1,30.03,SSE,158,3.1,3.6,32,0.00,,---,0.00,VWS V14.01,2013-04-03 16:31:00,
2013-04-03 12:32:00,82.4,49.6,30.03,South,180,3.6,6.0,32,0.00,,---,0.00,VWS V14.01,2013-04-03 16:32:00,
2013-04-03 12:33:00,82.9,50.1,30.03,SSW,202,3.1,3.6,32,0.00,,---,0.00,VWS V14.01,2013-04-03 16:33:00,
2013-04-03 12:34:00,82.9,49.2,30.03,SSE,158,4.9,9.8,31,0.00,,---,0.00,VWS V14.01,2013-04-03 16:34:00,
2013-04-03 12:35:00,82.6,48.9,30.03,SE,135,2.2,4.9,31,0.00,,---,0.00,VWS V14.01,2013-04-03 16:35:00,
2013-04-03 12:36:00,83.3,49.5,30.03,SSE,158,4.7,4.7,31,0.00,,---,0.00,VWS V14.01,2013-04-03 16:36:00,
2013-04-03 12:37:00,83.3,48.7,30.03,SSW,202,4.9,4.9,30,0.00,,---,0.00,VWS V14.01,2013-04-03 16:37:00,
2013-04-03 12:38:00,83.3,48.7,30.03,SSE,158,4.3,4.9,30,0.00,,---,0.00,VWS V14.01,2013-04-03 16:38:00,
2013-04-03 12:39:00,83.1,48.5,30.03,SSE,158,7.4,7.4,30,0.00,,---,0.00,VWS V14.01,2013-04-03 16:39:00,
2013-04-03 12:40:00,83.3,48.7,30.03,SSE,158,5.6,7.4,30,0.00,,---,0.00,VWS V14.01,2013-04-03 16:40:00,
2013-04-03 12:41:00,83.7,49.0,30.03,SSW,202,3.8,3.8,30,0.00,,---,0.00,VWS V14.01,2013-04-03 16:41:00,
2013-04-03 12:42:00,83.3,48.7,30.03,SSW,202,3.4,6.5,30,0.00,,---,0.00,VWS V14.01,2013-04-03 16:42:00,
2013-04-03 12:43:00,84.0,49.3,30.03,SE,135,1.1,3.8,30,0.00,,---,0.00,VWS V14.01,2013-04-03 16:43:00,
2013-04-03 12:44:00,84.2,49.4,30.03,SSE,158,9.2,9.2,30,0.00,,---,0.00,VWS V14.01,2013-04-03 16:44:00,
2013-04-03 12:45:00,84.0,49.3,30.03,South,180,5.4,9.2,30,0.00,,---,0.00,VWS V14.01,2013-04-03 16:45:00,
2013-04-03 12:46:00,83.7,48.1,30.03,SSW,202,9.8,11.9,29,0.00,,---,0.00,VWS V14.01,2013-04-03 16:46:00,
2013-04-03 12:47:00,83.8,49.1,30.03,South,180,4.7,8.1,30,0.00,,---,0.00,VWS V14.01,2013-04-03 16:47:00,
2013-04-03 12:48:00,83.8,49.1,30.03,SSE,158,2.7,8.1,30,0.00,,---,0.00,VWS V14.01,2013-04-03 16:48:00,
2013-04-03 12:49:00,84.4,49.6,30.03,SSE,158,1.6,2.7,30,0.00,,---,0.00,VWS V14.01,2013-04-03 16:49:00,
2013-04-03 12:50:00,85.1,50.2,30.03,SSE,158,3.8,3.8,30,0.00,,---,0.00,VWS V14.01,2013-04-03 16:50:00,
2013-04-03 12:51:00,85.6,50.7,30.03,South,180,2.2,3.8,30,0.00,,---,0.00,VWS V14.01,2013-04-03 16:51:00,
2013-04-03 12:52:00,84.9,49.2,30.03,SSE,158,4.0,6.0,29,0.00,,---,0.00,VWS V14.01,2013-04-03 16:52:00,
2013-04-03 12:53:00,84.9,49.2,30.03,SSE,158,4.0,6.0,29,0.00,,---,0.00,VWS V14.01,2013-04-03 16:53:00,
2013-04-03 12:54:00,85.3,49.5,30.03,SSE,158,1.6,4.0,29,0.00,,---,0.00,VWS V14.01,2013-04-03 16:54:00,
2013-04-03 12:55:00,85.6,49.8,30.03,SSE,158,2.5,4.5,29,0.00,,---,0.00,VWS V14.01,2013-04-03 16:55:00,
2013-04-03 12:56:00,86.0,50.1,30.03,SSE,158,4.0,4.0,29,0.00,,---,0.00,VWS V14.01,2013-04-03 16:56:00,
2013-04-03 12:57:00,85.5,49.6,30.00,SSE,158,10.3,10.3,29,0.00,,---,0.00,VWS V14.01,2013-04-03 16:57:00,
2013-04-03 12:58:00,85.5,49.6,30.00,SSE,158,10.3,10.3,29,0.00,,---,0.00,VWS V14.01,2013-04-03 16:58:00,
2013-04-03 12:59:00,84.4,47.8,30.00,SSE,158,5.6,10.7,28,0.00,,---,0.00,VWS V14.01,2013-04-03 16:59:00,
2013-04-03 13:00:00,84.0,48.4,30.00,East,90,7.8,7.8,29,0.00,,---,0.00,VWS V14.01,2013-04-03 17:00:00,
2013-04-03 13:01:00,83.8,48.2,30.00,SSE,158,5.8,9.8,29,0.00,,---,0.00,VWS V14.01,2013-04-03 17:01:00,
2013-04-03 13:02:00,84.7,49.0,30.00,SSE,158,2.7,3.6,29,0.00,,---,0.00,VWS V14.01,2013-04-03 17:02:00,
2013-04-03 13:03:00,84.7,49.0,30.00,SSE,158,2.7,3.6,29,0.00,,---,0.00,VWS V14.01,2013-04-03 17:03:00,
2013-04-03 13:04:00,84.7,49.0,30.00,SSE,158,5.4,7.6,29,0.00,,---,0.00,VWS V14.01,2013-04-03 17:04:00,
2013-04-03 13:05:00,84.7,49.0,30.00,SSE,158,5.4,9.4,29,0.00,,---,0.00,VWS V14.01,2013-04-03 17:05:00,
2013-04-03 13:06:00,84.6,48.8,30.00,SSW,202,4.3,5.4,29,0.00,,---,0.00,VWS V14.01,2013-04-03 17:06:00,
2013-04-03 13:07:00,84.6,48.8,30.00,SSE,158,6.3,6.3,29,0.00,,---,0.00,VWS V14.01,2013-04-03 17:07:00,
2013-04-03 13:08:00,84.6,48.8,30.00,SSW,202,2.7,4.9,29,0.00,,---,0.00,VWS V14.01,2013-04-03 17:08:00,
2013-04-03 13:09:00,84.4,48.7,30.00,SSE,158,3.8,6.3,29,0.00,,---,0.00,VWS V14.01,2013-04-03 17:09:00,
2013-04-03 13:10:00,84.2,48.5,30.00,SSW,202,8.7,10.3,29,0.00,,---,0.00,VWS V14.01,2013-04-03 17:10:00,
2013-04-03 13:11:00,83.8,48.2,30.00,SSW,202,6.3,11.0,29,0.00,,---,0.00,VWS V14.01,2013-04-03 17:11:00,
2013-04-03 13:12:00,84.2,48.5,30.00,South,180,4.0,7.4,29,0.00,,---,0.00,VWS V14.01,2013-04-03 17:12:00,
2013-04-03 13:13:00,84.2,48.5,30.00,South,180,4.0,7.4,29,0.00,,---,0.00,VWS V14.01,2013-04-03 17:13:00,
2013-04-03 13:14:00,84.7,49.0,30.00,SSE,158,3.6,4.0,29,0.00,,---,0.00,VWS V14.01,2013-04-03 17:14:00,
2013-04-03 13:15:00,84.9,49.2,30.00,SSE,158,3.6,5.4,29,0.00,,---,0.00,VWS V14.01,2013-04-03 17:15:00,
2013-04-03 13:16:00,84.6,47.9,30.00,SSE,158,5.6,6.0,28,0.00,,---,0.00,VWS V14.01,2013-04-03 17:16:00,
2013-04-03 13:17:00,84.9,49.2,30.00,SSE,158,2.5,3.4,29,0.00,,---,0.00,VWS V14.01,2013-04-03 17:17:00,
2013-04-03 13:18:00,84.9,49.2,30.00,SSE,158,2.5,3.4,29,0.00,,---,0.00,VWS V14.01,2013-04-03 17:18:00,
2013-04-03 13:19:00,85.3,49.5,30.00,South,180,0.9,2.7,29,0.00,,---,0.00,VWS V14.01,2013-04-03 17:19:00,
2013-04-03 13:20:00,85.6,49.8,30.00,SSE,158,3.6,3.6,29,0.00,,---,0.00,VWS V14.01,2013-04-03 17:20:00,
2013-04-03 13:21:00,85.5,48.7,30.00,SSE,158,2.5,4.9,28,0.00,,---,0.00,VWS V14.01,2013-04-03 17:21:00,
2013-04-03 13:22:00,85.5,48.7,30.00,South,180,4.3,4.3,28,0.00,,---,0.00,VWS V14.01,2013-04-03 17:22:00,
2013-04-03 13:23:00,85.5,48.7,30.00,South,180,4.3,4.3,28,0.00,,---,0.00,VWS V14.01,2013-04-03 17:23:00,
2013-04-03 13:24:00,86.0,49.1,30.00,South,180,1.1,4.3,28,0.00,,---,0.00,VWS V14.01,2013-04-03 17:24:00,
2013-04-03 13:25:00,86.5,49.6,30.00,SSE,158,2.0,3.1,28,0.00,,---,0.00,VWS V14.01,2013-04-03 17:25:00,
2013-04-03 13:26:00,86.5,48.6,30.00,South,180,1.6,4.9,27,0.00,,---,0.00,VWS V14.01,2013-04-03 17:26:00,
2013-04-03 13:27:00,87.1,50.1,30.00,SSW,202,1.3,3.4,28,0.00,,---,0.00,VWS V14.01,2013-04-03 17:27:00,
2013-04-03 13:28:00,86.9,48.9,30.00,South,180,3.4,3.4,27,0.00,,---,0.00,VWS V14.01,2013-04-03 17:28:00,
2013-04-03 13:29:00,87.1,49.1,30.00,South,180,2.2,3.4,27,0.00,,---,0.00,VWS V14.01,2013-04-03 17:29:00,
2013-04-03 13:30:00,87.3,49.2,30.00,South,180,1.3,2.2,27,0.00,,---,0.00,VWS V14.01,2013-04-03 17:30:00,
2013-04-03 13:31:00,87.6,49.5,30.00,SSE,158,2.2,2.5,27,0.00,,---,0.00,VWS V14.01,2013-04-03 17:31:00,
2013-04-03 13:32:00,88.0,48.8,30.00,SSE,158,2.0,4.0,26,0.00,,---,0.00,VWS V14.01,2013-04-03 17:32:00,
2013-04-03 13:33:00,88.0,48.8,30.00,SSE,158,2.0,4.0,26,0.00,,---,0.00,VWS V14.01,2013-04-03 17:33:00,
2013-04-03 13:34:00,87.8,47.6,30.00,SSE,158,5.8,5.8,25,0.00,,---,0.00,VWS V14.01,2013-04-03 17:34:00,
2013-04-03 13:35:00,87.1,46.0,30.00,SSE,158,5.4,6.3,24,0.00,,---,0.00,VWS V14.01,2013-04-03 17:35:00,
2013-04-03 13:36:00,86.0,45.0,30.00,ESE,112,3.4,8.1,24,0.00,,---,0.00,VWS V14.01,2013-04-03 17:36:00,
2013-04-03 13:37:00,86.4,47.5,30.00,SSE,158,3.1,4.7,26,0.00,,---,0.00,VWS V14.01,2013-04-03 17:37:00,
2013-04-03 13:38:00,86.4,47.5,30.00,SSE,158,4.5,4.5,26,0.00,,---,0.00,VWS V14.01,2013-04-03 17:38:00,
2013-04-03 13:39:00,86.4,47.5,30.00,South,180,2.0,4.7,26,0.00,,---,0.00,VWS V14.01,2013-04-03 17:39:00,
2013-04-03 13:40:00,86.7,47.8,30.00,SSE,158,2.2,2.9,26,0.00,,---,0.00,VWS V14.01,2013-04-03 17:40:00,
2013-04-03 13:41:00,86.9,47.9,30.00,South,180,1.3,2.2,26,0.00,,---,0.00,VWS V14.01,2013-04-03 17:41:00,
2013-04-03 13:42:00,87.8,48.7,30.00,NNW,338,2.9,2.9,26,0.00,,---,0.00,VWS V14.01,2013-04-03 17:42:00,
2013-04-03 13:43:00,87.4,48.4,30.00,SSW,202,1.3,2.2,26,0.00,,---,0.00,VWS V14.01,2013-04-03 17:43:00,
2013-04-03 13:44:00,87.8,47.6,30.00,SSE,158,1.6,3.1,25,0.00,,---,0.00,VWS V14.01,2013-04-03 17:44:00,
2013-04-03 13:45:00,87.8,47.6,30.00,SSE,158,1.6,3.6,25,0.00,,---,0.00,VWS V14.01,2013-04-03 17:45:00,
2013-04-03 13:46:00,88.0,47.8,30.00,East,90,2.5,2.5,25,0.00,,---,0.00,VWS V14.01,2013-04-03 17:46:00,
2013-04-03 13:47:00,87.8,46.5,30.00,South,180,1.1,2.0,24,0.00,,---,0.00,VWS V14.01,2013-04-03 17:47:00,
2013-04-03 13:48:00,87.8,45.4,30.00,SSE,158,2.0,3.1,23,0.00,,---,0.00,VWS V14.01,2013-04-03 17:48:00,
2013-04-03 13:49:00,87.8,46.5,30.00,ESE,112,1.6,2.0,24,0.00,,---,0.00,VWS V14.01,2013-04-03 17:49:00,
2013-04-03 13:50:00,88.0,46.7,30.00,SSE,158,1.1,2.5,24,0.00,,---,0.00,VWS V14.01,2013-04-03 17:50:00,
2013-04-03 13:51:00,88.0,46.7,30.00,ESE,112,1.1,2.5,24,0.00,,---,0.00,VWS V14.01,2013-04-03 17:51:00,
2013-04-03 13:52:00,88.5,47.2,30.00,South,180,2.0,2.5,24,0.00,,---,0.00,VWS V14.01,2013-04-03 17:52:00,
2013-04-03 13:53:00,88.5,47.2,30.00,South,180,2.5,2.5,24,0.00,,---,0.00,VWS V14.01,2013-04-03 17:53:00,
2013-04-03 13:54:00,88.5,47.2,30.00,SE,135,1.6,2.5,24,0.00,,---,0.00,VWS V14.01,2013-04-03 17:54:00,
2013-04-03 13:55:00,88.7,47.3,30.00,SSW,202,1.3,3.4,24,0.00,,---,0.00,VWS V14.01,2013-04-03 17:55:00,
2013-04-03 13:56:00,88.5,46.0,30.00,SSE,158,2.2,2.7,23,0.00,,---,0.00,VWS V14.01,2013-04-03 17:56:00,
2013-04-03 13:57:00,88.2,45.7,30.00,NE,45,3.1,3.4,23,0.00,,---,0.00,VWS V14.01,2013-04-03 17:57:00,
2013-04-03 13:58:00,88.5,47.2,30.00,South,180,3.4,4.0,24,0.00,,---,0.00,VWS V14.01,2013-04-03 17:58:00,
2013-04-03 13:59:00,88.0,45.6,30.00,SSE,158,3.6,3.6,23,0.00,,---,0.00,VWS V14.01,2013-04-03 17:59:00,
2013-04-03 14:00:00,88.0,45.6,30.00,ESE,112,1.1,3.6,23,0.00,,---,0.00,VWS V14.01,2013-04-03 18:00:00,
2013-04-03 14:01:00,88.0,45.6,30.00,East,90,1.6,2.2,23,0.00,,---,0.00,VWS V14.01,2013-04-03 18:01:00,
2013-04-03 14:02:00,87.6,46.4,30.00,WSW,248,0.0,3.1,24,0.00,,---,0.00,VWS V14.01,2013-04-03 18:02:00,
2013-04-03 14:03:00,87.6,46.4,30.00,ENE,68,3.1,3.1,24,0.00,,---,0.00,VWS V14.01,2013-04-03 18:03:00,
2013-04-03 14:04:00,87.6,46.4,30.00,SE,135,2.0,3.1,24,0.00,,---,0.00,VWS V14.01,2013-04-03 18:04:00,
2013-04-03 14:05:00,87.8,46.5,30.00,WSW,248,1.3,2.7,24,0.00,,---,0.00,VWS V14.01,2013-04-03 18:05:00,
2013-04-03 14:06:00,87.8,46.5,30.00,SSW,202,0.0,1.3,24,0.00,,---,0.00,VWS V14.01,2013-04-03 18:06:00,
2013-04-03 14:07:00,88.5,47.2,30.00,SE,135,1.6,2.0,24,0.00,,---,0.00,VWS V14.01,2013-04-03 18:07:00,
2013-04-03 14:08:00,88.2,46.9,30.00,West,270,0.0,3.8,24,0.00,,---,0.00,VWS V14.01,2013-04-03 18:08:00,
2013-04-03 14:09:00,88.5,47.2,30.00,SSE,158,0.9,2.0,24,0.00,,---,0.00,VWS V14.01,2013-04-03 18:09:00,
2013-04-03 14:10:00,88.9,47.5,30.00,SSE,158,0.0,1.3,24,0.00,,---,0.00,VWS V14.01,2013-04-03 18:10:00,
2013-04-03 14:11:00,89.1,47.6,30.00,SSE,158,1.6,2.2,24,0.00,,---,0.00,VWS V14.01,2013-04-03 18:11:00,
2013-04-03 14:12:00,89.8,47.1,30.00,SSE,158,0.0,2.0,23,0.00,,---,0.00,VWS V14.01,2013-04-03 18:12:00,
2013-04-03 14:13:00,89.6,46.9,30.00,SSE,158,2.0,2.5,23,0.00,,---,0.00,VWS V14.01,2013-04-03 18:13:00,
2013-04-03 14:14:00,90.1,48.5,30.00,SSE,158,0.0,2.0,24,0.00,,---,0.00,VWS V14.01,2013-04-03 18:14:00,
2013-04-03 14:15:00,90.1,47.4,30.00,SE,135,2.2,2.2,23,0.00,,---,0.00,VWS V14.01,2013-04-03 18:15:00,
2013-04-03 14:16:00,90.0,46.1,30.00,SSE,158,2.9,3.4,22,0.00,,---,0.00,VWS V14.01,2013-04-03 18:16:00,
2013-04-03 14:17:00,89.4,45.6,30.00,ESE,112,1.6,3.6,22,0.00,,---,0.00,VWS V14.01,2013-04-03 18:17:00,
2013-04-03 14:18:00,89.4,45.6,30.00,SE,135,0.9,2.0,22,0.00,,---,0.00,VWS V14.01,2013-04-03 18:18:00,
2013-04-03 14:19:00,89.6,44.5,30.00,SSE,158,1.3,3.1,21,0.00,,---,0.00,VWS V14.01,2013-04-03 18:19:00,
2013-04-03 14:20:00,89.4,45.6,30.00,NE,45,2.0,2.0,22,0.00,,---,0.00,VWS V14.01,2013-04-03 18:20:00,
2013-04-03 14:21:00,89.6,45.8,30.00,East,90,1.6,2.7,22,0.00,,---,0.00,VWS V14.01,2013-04-03 18:21:00,
2013-04-03 14:22:00,90.0,46.1,30.00,SSE,158,0.9,2.0,22,0.00,,---,0.00,VWS V14.01,2013-04-03 18:22:00,
2013-04-03 14:23:00,89.4,44.4,30.00,SE,135,1.3,1.6,21,0.00,,---,0.00,VWS V14.01,2013-04-03 18:23:00,
2013-04-03 14:24:00,89.4,44.4,30.00,ESE,112,1.6,3.6,21,0.00,,---,0.00,VWS V14.01,2013-04-03 18:24:00,
2013-04-03 14:25:00,89.4,45.6,30.00,SSE,158,2.5,2.5,22,0.00,,---,0.00,VWS V14.01,2013-04-03 18:25:00,
2013-04-03 14:26:00,89.2,44.2,30.00,SSE,158,1.6,5.6,21,0.00,,---,0.00,VWS V14.01,2013-04-03 18:26:00,
2013-04-03 14:27:00,89.2,44.2,30.00,ESE,112,1.3,2.7,21,0.00,,---,0.00,VWS V14.01,2013-04-03 18:27:00,
2013-04-03 14:28:00,89.2,44.2,30.00,SSW,202,4.3,4.3,21,0.00,,---,0.00,VWS V14.01,2013-04-03 18:28:00,
2013-04-03 14:29:00,89.2,44.2,30.00,NE,45,2.9,2.9,21,0.00,,---,0.00,VWS V14.01,2013-04-03 18:29:00,
2013-04-03 14:30:00,89.2,44.2,30.00,South,180,2.9,4.3,21,0.00,,---,0.00,VWS V14.01,2013-04-03 18:30:00,
2013-04-03 14:31:00,89.1,44.1,30.00,SSE,158,1.3,2.9,21,0.00,,---,0.00,VWS V14.01,2013-04-03 18:31:00,
2013-04-03 14:32:00,89.2,44.2,30.00,SW,225,0.0,2.0,21,0.00,,---,0.00,VWS V14.01,2013-04-03 18:32:00,
2013-04-03 14:33:00,89.2,44.2,30.00,ESE,112,1.6,3.8,21,0.00,,---,0.00,VWS V14.01,2013-04-03 18:33:00,
2013-04-03 14:34:00,89.2,44.2,30.00,SSE,158,1.6,1.6,21,0.00,,---,0.00,VWS V14.01,2013-04-03 18:34:00,
2013-04-03 14:35:00,89.2,44.2,30.00,ESE,112,1.6,3.8,21,0.00,,---,0.00,VWS V14.01,2013-04-03 18:35:00,
2013-04-03 14:36:00,89.1,44.1,30.00,SSE,158,2.5,2.5,21,0.00,,---,0.00,VWS V14.01,2013-04-03 18:36:00,
2013-04-03 14:37:00,89.1,44.1,30.00,SSE,158,1.3,2.7,21,0.00,,---,0.00,VWS V14.01,2013-04-03 18:37:00,
2013-04-03 14:38:00,89.2,45.5,30.00,ESE,112,0.0,1.3,22,0.00,,---,0.00,VWS V14.01,2013-04-03 18:38:00,
2013-04-03 14:39:00,89.1,44.1,30.00,ENE,68,1.3,1.3,21,0.00,,---,0.00,VWS V14.01,2013-04-03 18:39:00,
2013-04-03 14:40:00,89.1,44.1,30.00,ENE,68,1.3,3.4,21,0.00,,---,0.00,VWS V14.01,2013-04-03 18:40:00,
2013-04-03 14:41:00,89.1,44.1,30.00,SE,135,0.0,1.3,21,0.00,,---,0.00,VWS V14.01,2013-04-03 18:41:00,
2013-04-03 14:42:00,89.1,45.3,30.00,SSE,158,2.0,2.0,22,0.00,,---,0.00,VWS V14.01,2013-04-03 18:42:00,
2013-04-03 14:43:00,88.9,45.2,30.00,East,90,1.1,2.0,22,0.00,,---,0.00,VWS V14.01,2013-04-03 18:43:00,
2013-04-03 14:44:00,88.5,44.9,30.00,ENE,68,1.1,2.2,22,0.00,,---,0.00,VWS V14.01,2013-04-03 18:44:00,
2013-04-03 14:45:00,88.5,44.9,30.00,ENE,68,1.1,2.2,22,0.00,,---,0.00,VWS V14.01,2013-04-03 18:45:00,
2013-04-03 14:46:00,88.5,44.9,30.00,East,90,1.3,1.3,22,0.00,,---,0.00,VWS V14.01,2013-04-03 18:46:00,
2013-04-03 14:47:00,88.3,44.7,30.00,WSW,248,1.6,2.5,22,0.00,,---,0.00,VWS V14.01,2013-04-03 18:47:00,
2013-04-03 14:48:00,88.5,44.9,30.00,ENE,68,1.6,1.6,22,0.00,,---,0.00,VWS V14.01,2013-04-03 18:48:00,
2013-04-03 14:49:00,88.7,45.0,30.00,SE,135,1.3,1.3,22,0.00,,---,0.00,VWS V14.01,2013-04-03 18:49:00,
2013-04-03 14:50:00,88.7,45.0,30.00,SE,135,1.3,1.3,22,0.00,,---,0.00,VWS V14.01,2013-04-03 18:50:00,
2013-04-03 14:51:00,88.7,45.0,30.00,ESE,112,1.1,3.1,22,0.00,,---,0.00,VWS V14.01,2013-04-03 18:51:00,
2013-04-03 14:52:00,88.2,43.3,30.00,NE,45,2.9,2.9,21,0.00,,---,0.00,VWS V14.01,2013-04-03 18:52:00,
2013-04-03 14:53:00,88.0,43.2,30.00,SSE,158,2.9,2.9,21,0.00,,---,0.00,VWS V14.01,2013-04-03 18:53:00,
2013-04-03 14:54:00,87.3,43.8,30.00,SSE,158,0.0,3.8,22,0.00,,---,0.00,VWS V14.01,2013-04-03 18:54:00,
2013-04-03 14:55:00,87.3,43.8,30.00,SSE,158,0.0,3.8,22,0.00,,---,0.00,VWS V14.01,2013-04-03 18:55:00,
2013-04-03 14:56:00,87.3,43.8,30.00,ESE,112,2.7,2.7,22,0.00,,---,0.00,VWS V14.01,2013-04-03 18:56:00,
2013-04-03 14:57:00,87.3,43.8,29.97,ENE,68,1.3,2.7,22,0.00,,---,0.00,VWS V14.01,2013-04-03 18:57:00,
2013-04-03 14:58:00,87.3,43.8,29.97,SSE,158,0.0,1.3,22,0.00,,---,0.00,VWS V14.01,2013-04-03 18:58:00,
2013-04-03 14:59:00,87.6,44.1,29.97,NNE,22,0.9,2.9,22,0.00,,---,0.00,VWS V14.01,2013-04-03 18:59:00,
2013-04-03 15:00:00,87.6,44.1,29.97,NNE,22,0.9,2.9,22,0.00,,---,0.00,VWS V14.01,2013-04-03 19:00:00,
2013-04-03 15:01:00,87.6,45.3,29.97,SE,135,1.1,2.0,23,0.00,,---,0.00,VWS V14.01,2013-04-03 19:01:00,
2013-04-03 15:02:00,87.6,45.3,29.97,SSE,158,1.1,2.0,23,0.00,,---,0.00,VWS V14.01,2013-04-03 19:02:00,
2013-04-03 15:03:00,87.6,44.1,29.97,SE,135,1.3,2.2,22,0.00,,---,0.00,VWS V14.01,2013-04-03 19:03:00,
2013-04-03 15:04:00,87.3,43.8,29.97,SSE,158,2.5,5.4,22,0.00,,---,0.00,VWS V14.01,2013-04-03 19:04:00,
2013-04-03 15:05:00,87.3,43.8,29.97,SSE,158,2.5,5.4,22,0.00,,---,0.00,VWS V14.01,2013-04-03 19:05:00,
2013-04-03 15:06:00,87.1,43.7,29.97,South,180,2.9,4.0,22,0.00,,---,0.00,VWS V14.01,2013-04-03 19:06:00,
2013-04-03 15:07:00,86.9,43.5,29.97,SSE,158,3.4,3.4,22,0.00,,---,0.00,VWS V14.01,2013-04-03 19:07:00,
2013-04-03 15:08:00,86.5,43.2,29.97,SSE,158,4.9,6.5,22,0.00,,---,0.00,VWS V14.01,2013-04-03 19:08:00,
2013-04-03 15:09:00,86.9,44.7,29.97,West,270,0.0,2.0,23,0.00,,---,0.00,VWS V14.01,2013-04-03 19:09:00,
2013-04-03 15:10:00,86.9,44.7,29.97,West,270,0.0,2.0,23,0.00,,---,0.00,VWS V14.01,2013-04-03 19:10:00,
2013-04-03 15:11:00,86.9,44.7,29.97,SE,135,2.7,2.9,23,0.00,,---,0.00,VWS V14.01,2013-04-03 19:11:00,
2013-04-03 15:12:00,87.1,44.8,29.97,South,180,0.0,2.7,23,0.00,,---,0.00,VWS V14.01,2013-04-03 19:12:00,
2013-04-03 15:13:00,87.1,46.0,29.97,South,180,2.7,2.7,24,0.00,,---,0.00,VWS V14.01,2013-04-03 19:13:00,
2013-04-03 15:14:00,87.1,44.8,29.97,SSE,158,4.0,4.7,23,0.00,,---,0.00,VWS V14.01,2013-04-03 19:14:00,
2013-04-03 15:15:00,87.1,44.8,29.97,SSE,158,4.7,4.7,23,0.00,,---,0.00,VWS V14.01,2013-04-03 19:15:00,
2013-04-03 15:16:00,86.4,44.2,29.97,SSW,202,1.6,4.7,23,0.00,,---,0.00,VWS V14.01,2013-04-03 19:16:00,
2013-04-03 15:17:00,86.4,44.2,29.97,West,270,2.0,2.9,23,0.00,,---,0.00,VWS V14.01,2013-04-03 19:17:00,
2013-04-03 15:18:00,86.5,44.4,29.97,SSW,202,2.5,2.9,23,0.00,,---,0.00,VWS V14.01,2013-04-03 19:18:00,
2013-04-03 15:19:00,86.7,43.4,29.97,SSW,202,1.3,1.3,22,0.00,,---,0.00,VWS V14.01,2013-04-03 19:19:00,
2013-04-03 15:20:00,86.7,43.4,29.97,SSW,202,1.3,2.5,22,0.00,,---,0.00,VWS V14.01,2013-04-03 19:20:00,
2013-04-03 15:21:00,86.7,43.4,29.97,SSW,202,2.0,2.2,22,0.00,,---,0.00,VWS V14.01,2013-04-03 19:21:00,
2013-04-03 15:22:00,86.7,43.4,29.97,SW,225,1.1,2.2,22,0.00,,---,0.00,VWS V14.01,2013-04-03 19:22:00,
2013-04-03 15:23:00,87.1,43.7,29.97,WSW,248,2.0,2.0,22,0.00,,---,0.00,VWS V14.01,2013-04-03 19:23:00,
2013-04-03 15:24:00,87.1,43.7,29.97,SSW,202,2.5,2.5,22,0.00,,---,0.00,VWS V14.01,2013-04-03 19:24:00,
2013-04-03 15:25:00,87.1,43.7,29.97,SE,135,1.6,2.0,22,0.00,,---,0.00,VWS V14.01,2013-04-03 19:25:00,
2013-04-03 15:26:00,87.1,43.7,29.97,WSW,248,2.5,2.5,22,0.00,,---,0.00,VWS V14.01,2013-04-03 19:26:00,
2013-04-03 15:27:00,87.1,43.7,29.97,SSW,202,1.3,2.5,22,0.00,,---,0.00,VWS V14.01,2013-04-03 19:27:00,
2013-04-03 15:28:00,86.7,43.4,29.97,SSW,202,2.7,5.4,22,0.00,,---,0.00,VWS V14.01,2013-04-03 19:28:00,
2013-04-03 15:29:00,86.4,43.1,29.97,SSW,202,2.0,2.2,22,0.00,,---,0.00,VWS V14.01,2013-04-03 19:29:00,
2013-04-03 15:30:00,86.4,43.1,29.97,South,180,0.0,2.9,22,0.00,,---,0.00,VWS V14.01,2013-04-03 19:30:00,
2013-04-03 15:31:00,86.5,43.2,29.97,SSE,158,2.7,2.7,22,0.00,,---,0.00,VWS V14.01,2013-04-03 19:31:00,
2013-04-03 15:32:00,86.2,42.9,29.97,SW,225,2.2,7.4,22,0.00,,---,0.00,VWS V14.01,2013-04-03 19:32:00,
2013-04-03 15:33:00,86.0,42.8,29.97,SSE,158,4.7,4.9,22,0.00,,---,0.00,VWS V14.01,2013-04-03 19:33:00,
2013-04-03 15:34:00,85.8,42.6,29.97,South,180,2.5,3.6,22,0.00,,---,0.00,VWS V14.01,2013-04-03 19:34:00,
2013-04-03 15:35:00,85.6,42.5,29.97,SSW,202,2.2,3.6,22,0.00,,---,0.00,VWS V14.01,2013-04-03 19:35:00,
2013-04-03 15:36:00,85.8,42.6,29.97,SSW,202,1.1,3.6,22,0.00,,---,0.00,VWS V14.01,2013-04-03 19:36:00,
2013-04-03 15:37:00,86.0,42.8,29.97,SSW,202,2.5,2.7,22,0.00,,---,0.00,VWS V14.01,2013-04-03 19:37:00,
2013-04-03 15:38:00,85.8,42.6,29.97,WSW,248,3.8,3.8,22,0.00,,---,0.00,VWS V14.01,2013-04-03 19:38:00,
2013-04-03 15:39:00,85.5,42.3,29.97,SSE,158,1.3,3.4,22,0.00,,---,0.00,VWS V14.01,2013-04-03 19:39:00,
2013-04-03 15:40:00,85.3,42.2,29.97,SSW,202,3.4,3.4,22,0.00,,---,0.00,VWS V14.01,2013-04-03 19:40:00,
2013-04-03 15:41:00,85.5,42.3,29.97,WNW,292,1.3,3.4,22,0.00,,---,0.00,VWS V14.01,2013-04-03 19:41:00,
2013-04-03 15:42:00,85.5,43.5,29.97,WSW,248,2.5,2.5,23,0.00,,---,0.00,VWS V14.01,2013-04-03 19:42:00,
2013-04-03 15:43:00,85.6,42.5,29.97,SW,225,1.6,2.5,22,0.00,,---,0.00,VWS V14.01,2013-04-03 19:43:00,
2013-04-03 15:44:00,85.5,42.3,29.97,SSW,202,1.3,3.6,22,0.00,,---,0.00,VWS V14.01,2013-04-03 19:44:00,
2013-04-03 15:45:00,85.5,42.3,29.97,SSW,202,3.6,3.6,22,0.00,,---,0.00,VWS V14.01,2013-04-03 19:45:00,
2013-04-03 15:46:00,85.5,42.3,29.97,SSW,202,1.1,3.6,22,0.00,,---,0.00,VWS V14.01,2013-04-03 19:46:00,
2013-04-03 15:47:00,85.5,42.3,29.97,SSE,158,1.1,2.7,22,0.00,,---,0.00,VWS V14.01,2013-04-03 19:47:00,
2013-04-03 15:48:00,84.9,41.9,29.97,SSE,158,5.4,5.4,22,0.00,,---,0.00,VWS V14.01,2013-04-03 19:48:00,
2013-04-03 15:49:00,84.9,41.9,29.97,SSE,158,0.0,1.6,22,0.00,,---,0.00,VWS V14.01,2013-04-03 19:49:00,
2013-04-03 15:50:00,84.9,41.9,29.97,SSW,202,1.6,2.2,22,0.00,,---,0.00,VWS V14.01,2013-04-03 19:50:00,
2013-04-03 15:51:00,84.9,41.9,29.97,SSW,202,0.0,1.6,22,0.00,,---,0.00,VWS V14.01,2013-04-03 19:51:00,
2013-04-03 15:52:00,85.1,42.0,29.97,SW,225,2.5,2.5,22,0.00,,---,0.00,VWS V14.01,2013-04-03 19:52:00,
2013-04-03 15:53:00,85.1,43.2,29.97,SSW,202,2.7,2.7,23,0.00,,---,0.00,VWS V14.01,2013-04-03 19:53:00,
2013-04-03 15:54:00,84.9,41.9,29.97,SSW,202,1.6,2.7,22,0.00,,---,0.00,VWS V14.01,2013-04-03 19:54:00,
2013-04-03 15:55:00,84.9,41.9,29.97,SW,225,0.9,1.6,22,0.00,,---,0.00,VWS V14.01,2013-04-03 19:55:00,
2013-04-03 15:56:00,84.9,41.9,29.97,SW,225,0.9,1.6,22,0.00,,---,0.00,VWS V14.01,2013-04-03 19:56:00,
2013-04-03 15:57:00,84.9,41.9,29.97,WSW,248,2.0,2.0,22,0.00,,---,0.00,VWS V14.01,2013-04-03 19:57:00,
2013-04-03 15:58:00,84.7,41.7,29.97,SW,225,0.9,3.1,22,0.00,,---,0.00,VWS V14.01,2013-04-03 19:58:00,
2013-04-03 15:59:00,84.7,41.7,29.97,WSW,248,1.6,1.6,22,0.00,,---,0.00,VWS V14.01,2013-04-03 19:59:00,
2013-04-03 16:00:00,84.6,41.6,29.97,SSW,202,1.3,2.7,22,0.00,,---,0.00,VWS V14.01,2013-04-03 20:00:00,
2013-04-03 16:01:00,84.6,41.6,29.97,SSW,202,1.3,2.7,22,0.00,,---,0.00,VWS V14.01,2013-04-03 20:01:00,
2013-04-03 16:02:00,84.6,41.6,29.97,SSW,202,1.1,1.6,22,0.00,,---,0.00,VWS V14.01,2013-04-03 20:02:00,
2013-04-03 16:03:00,84.6,41.6,29.97,SSW,202,1.3,1.6,22,0.00,,---,0.00,VWS V14.01,2013-04-03 20:03:00,
2013-04-03 16:04:00,84.6,41.6,29.97,WSW,248,2.9,3.6,22,0.00,,---,0.00,VWS V14.01,2013-04-03 20:04:00,
2013-04-03 16:05:00,84.6,41.6,29.97,SW,225,2.5,2.5,22,0.00,,---,0.00,VWS V14.01,2013-04-03 20:05:00,
2013-04-03 16:06:00,84.6,41.6,29.97,SW,225,2.5,2.5,22,0.00,,---,0.00,VWS V14.01,2013-04-03 20:06:00,
2013-04-03 16:07:00,84.6,41.6,29.97,WSW,248,2.5,3.4,22,0.00,,---,0.00,VWS V14.01,2013-04-03 20:07:00,
2013-04-03 16:08:00,84.4,41.4,29.97,SSE,158,1.6,2.7,22,0.00,,---,0.00,VWS V14.01,2013-04-03 20:08:00,
2013-04-03 16:09:00,84.4,40.2,29.97,WSW,248,2.2,2.5,21,0.00,,---,0.00,VWS V14.01,2013-04-03 20:09:00,
2013-04-03 16:10:00,84.4,40.2,29.97,WSW,248,2.5,3.1,21,0.00,,---,0.00,VWS V14.01,2013-04-03 20:10:00,
2013-04-03 16:11:00,84.4,40.2,29.97,WSW,248,2.5,3.1,21,0.00,,---,0.00,VWS V14.01,2013-04-03 20:11:00,
2013-04-03 16:12:00,84.4,40.2,29.94,SW,225,1.6,2.7,21,0.00,,---,0.00,VWS V14.01,2013-04-03 20:12:00,
2013-04-03 16:13:00,84.4,40.2,29.94,SSW,202,2.7,3.4,21,0.00,,---,0.00,VWS V14.01,2013-04-03 20:13:00,
2013-04-03 16:14:00,83.7,39.6,29.94,SW,225,1.3,2.7,21,0.00,,---,0.00,VWS V14.01,2013-04-03 20:14:00,
2013-04-03 16:15:00,83.5,40.7,29.94,SSW,202,0.9,3.8,22,0.00,,---,0.00,VWS V14.01,2013-04-03 20:15:00,
2013-04-03 16:16:00,83.5,40.7,29.94,SSW,202,0.9,3.8,22,0.00,,---,0.00,VWS V14.01,2013-04-03 20:16:00,
2013-04-03 16:17:00,83.5,40.7,29.94,SSW,202,0.0,0.9,22,0.00,,---,0.00,VWS V14.01,2013-04-03 20:17:00,
2013-04-03 16:18:00,83.5,40.7,29.94,SSW,202,1.1,2.7,22,0.00,,---,0.00,VWS V14.01,2013-04-03 20:18:00,
2013-04-03 16:19:00,83.3,40.5,29.94,NE,45,1.1,3.4,22,0.00,,---,0.00,VWS V14.01,2013-04-03 20:19:00,
2013-04-03 16:20:00,83.3,40.5,29.94,South,180,2.0,2.7,22,0.00,,---,0.00,VWS V14.01,2013-04-03 20:20:00,
2013-04-03 16:21:00,83.3,40.5,29.94,South,180,2.0,2.7,22,0.00,,---,0.00,VWS V14.01,2013-04-03 20:21:00,
2013-04-03 16:22:00,83.3,40.5,29.94,SE,135,3.1,3.1,22,0.00,,---,0.00,VWS V14.01,2013-04-03 20:22:00,
2013-04-03 16:23:00,82.9,40.2,29.94,WSW,248,0.9,4.3,22,0.00,,---,0.00,VWS V14.01,2013-04-03 20:23:00,
2013-04-03 16:24:00,82.9,40.2,29.94,SSW,202,1.1,2.2,22,0.00,,---,0.00,VWS V14.01,2013-04-03 20:24:00,
2013-04-03 16:25:00,82.8,40.1,29.94,SW,225,1.6,1.6,22,0.00,,---,0.00,VWS V14.01,2013-04-03 20:25:00,
2013-04-03 16:26:00,82.8,40.1,29.94,SW,225,1.6,1.6,22,0.00,,---,0.00,VWS V14.01,2013-04-03 20:26:00,
2013-04-03 16:27:00,82.8,40.1,29.94,SW,225,2.7,2.7,22,0.00,,---,0.00,VWS V14.01,2013-04-03 20:27:00,
2013-04-03 16:28:00,82.6,39.9,29.94,SSW,202,2.2,2.7,22,0.00,,---,0.00,VWS V14.01,2013-04-03 20:28:00,
2013-04-03 16:29:00,82.6,39.9,29.94,South,180,2.5,2.7,22,0.00,,---,0.00,VWS V14.01,2013-04-03 20:29:00,
2013-04-03 16:30:00,82.0,40.6,29.94,West,270,3.1,3.1,23,0.00,,---,0.00,VWS V14.01,2013-04-03 20:30:00,
2013-04-03 16:31:00,82.0,40.6,29.94,West,270,3.1,3.1,23,0.00,,---,0.00,VWS V14.01,2013-04-03 20:31:00,
2013-04-03 16:32:00,82.0,40.6,29.94,SSW,202,2.5,3.1,23,0.00,,---,0.00,VWS V14.01,2013-04-03 20:32:00,
2013-04-03 16:33:00,81.9,40.5,29.94,SSW,202,1.6,2.5,23,0.00,,---,0.00,VWS V14.01,2013-04-03 20:33:00,
2013-04-03 16:34:00,81.9,40.5,29.94,SSE,158,1.1,1.6,23,0.00,,---,0.00,VWS V14.01,2013-04-03 20:34:00,
2013-04-03 16:35:00,81.9,40.5,29.94,South,180,2.9,2.9,23,0.00,,---,0.00,VWS V14.01,2013-04-03 20:35:00,
2013-04-03 16:36:00,81.9,40.5,29.94,South,180,2.9,2.9,23,0.00,,---,0.00,VWS V14.01,2013-04-03 20:36:00,
2013-04-03 16:37:00,81.7,39.2,29.94,SW,225,2.0,2.9,22,0.00,,---,0.00,VWS V14.01,2013-04-03 20:37:00,
2013-04-03 16:38:00,81.5,40.2,29.94,WNW,292,1.6,2.0,23,0.00,,---,0.00,VWS V14.01,2013-04-03 20:38:00,
2013-04-03 16:39:00,81.5,40.2,29.94,South,180,0.0,3.1,23,0.00,,---,0.00,VWS V14.01,2013-04-03 20:39:00,
2013-04-03 16:40:00,81.1,39.9,29.94,SSW,202,1.6,3.1,23,0.00,,---,0.00,VWS V14.01,2013-04-03 20:40:00,
2013-04-03 16:41:00,81.1,39.9,29.94,SSW,202,1.6,3.1,23,0.00,,---,0.00,VWS V14.01,2013-04-03 20:41:00,
2013-04-03 16:42:00,81.0,39.7,29.97,SSW,202,2.0,2.7,23,0.00,,---,0.00,VWS V14.01,2013-04-03 20:42:00,
2013-04-03 16:43:00,81.0,39.7,29.97,SW,225,1.1,3.4,23,0.00,,---,0.00,VWS V14.01,2013-04-03 20:43:00,
2013-04-03 16:44:00,80.8,39.6,29.97,SSW,202,2.2,3.1,23,0.00,,---,0.00,VWS V14.01,2013-04-03 20:44:00,
2013-04-03 16:45:00,80.6,40.5,29.97,SSW,202,2.7,2.7,24,0.00,,---,0.00,VWS V14.01,2013-04-03 20:45:00,
2013-04-03 16:46:00,80.6,40.5,29.97,SSW,202,2.5,2.7,24,0.00,,---,0.00,VWS V14.01,2013-04-03 20:46:00,
2013-04-03 16:47:00,80.6,40.5,29.97,SW,225,1.6,2.5,24,0.00,,---,0.00,VWS V14.01,2013-04-03 20:47:00,
2013-04-03 16:48:00,80.6,40.5,29.97,SSW,202,1.1,2.5,24,0.00,,---,0.00,VWS V14.01,2013-04-03 20:48:00,
2013-04-03 16:49:00,80.6,40.5,29.97,SSW,202,2.7,2.7,24,0.00,,---,0.00,VWS V14.01,2013-04-03 20:49:00,
2013-04-03 16:50:00,80.2,41.3,29.97,South,180,2.9,2.9,25,0.00,,---,0.00,VWS V14.01,2013-04-03 20:50:00,
2013-04-03 16:51:00,80.2,41.3,29.97,South,180,2.9,2.9,25,0.00,,---,0.00,VWS V14.01,2013-04-03 20:51:00,
2013-04-03 16:52:00,80.2,41.3,29.97,SSW,202,1.6,2.9,25,0.00,,---,0.00,VWS V14.01,2013-04-03 20:52:00,
2013-04-03 16:53:00,80.1,42.1,29.97,SSW,202,2.0,2.5,26,0.00,,---,0.00,VWS V14.01,2013-04-03 20:53:00,
2013-04-03 16:54:00,80.1,43.1,29.97,SSW,202,1.6,2.5,27,0.00,,---,0.00,VWS V14.01,2013-04-03 20:54:00,
2013-04-03 16:55:00,79.9,43.0,29.97,SSW,202,0.0,2.0,27,0.00,,---,0.00,VWS V14.01,2013-04-03 20:55:00,
2013-04-03 16:56:00,79.9,43.0,29.97,SSW,202,2.0,2.0,27,0.00,,---,0.00,VWS V14.01,2013-04-03 20:56:00,
2013-04-03 16:57:00,79.9,43.0,29.97,SSE,158,1.6,2.0,27,0.00,,---,0.00,VWS V14.01,2013-04-03 20:57:00,
2013-04-03 16:58:00,79.9,43.0,29.97,SSW,202,2.0,2.2,27,0.00,,---,0.00,VWS V14.01,2013-04-03 20:58:00,
2013-04-03 16:59:00,79.9,44.8,29.97,WSW,248,2.5,2.5,29,0.00,,---,0.00,VWS V14.01,2013-04-03 20:59:00,
2013-04-03 17:00:00,79.9,45.7,29.97,SSW,202,1.1,1.6,30,0.00,,---,0.00,VWS V14.01,2013-04-03 21:00:00,
2013-04-03 17:01:00,79.9,45.7,29.97,SW,225,1.6,1.6,30,0.00,,---,0.00,VWS V14.01,2013-04-03 21:01:00,
2013-04-03 17:02:00,79.9,45.7,29.97,SSW,202,0.0,1.6,30,0.00,,---,0.00,VWS V14.01,2013-04-03 21:02:00,
2013-04-03 17:03:00,79.9,45.7,29.97,SSW,202,0.0,0.0,30,0.00,,---,0.00,VWS V14.01,2013-04-03 21:03:00,
2013-04-03 17:04:00,79.9,45.7,29.97,SW,225,2.2,2.2,30,0.00,,---,0.00,VWS V14.01,2013-04-03 21:04:00,
2013-04-03 17:05:00,79.7,45.6,29.97,SW,225,1.3,1.6,30,0.00,,---,0.00,VWS V14.01,2013-04-03 21:05:00,
2013-04-03 17:06:00,79.7,45.6,29.97,SW,225,1.6,1.6,30,0.00,,---,0.00,VWS V14.01,2013-04-03 21:06:00,
2013-04-03 17:07:00,79.7,45.6,29.97,SSW,202,1.3,1.6,30,0.00,,---,0.00,VWS V14.01,2013-04-03 21:07:00,
2013-04-03 17:08:00,79.7,45.6,29.97,WSW,248,2.5,2.5,30,0.00,,---,0.00,VWS V14.01,2013-04-03 21:08:00,
2013-04-03 17:09:00,79.5,45.4,29.97,SSW,202,1.6,2.9,30,0.00,,---,0.00,VWS V14.01,2013-04-03 21:09:00,
2013-04-03 17:10:00,79.3,45.2,29.97,WSW,248,0.0,0.0,30,0.00,,---,0.00,VWS V14.01,2013-04-03 21:10:00,
2013-04-03 17:11:00,79.3,45.2,29.97,SSE,158,0.0,1.3,30,0.00,,---,0.00,VWS V14.01,2013-04-03 21:11:00,
2013-04-03 17:12:00,79.3,45.2,29.97,WSW,248,0.0,0.0,30,0.00,,---,0.00,VWS V14.01,2013-04-03 21:12:00,
2013-04-03 17:13:00,79.3,46.1,29.97,NW,315,0.0,0.0,31,0.00,,---,0.00,VWS V14.01,2013-04-03 21:13:00,
2013-04-03 17:14:00,79.2,46.0,29.97,NW,315,0.0,0.0,31,0.00,,---,0.00,VWS V14.01,2013-04-03 21:14:00,
2013-04-03 17:15:00,79.2,46.0,29.97,South,180,0.0,0.0,31,0.00,,---,0.00,VWS V14.01,2013-04-03 21:15:00,
2013-04-03 17:16:00,79.0,45.8,29.97,SSW,202,2.0,2.5,31,0.00,,---,0.00,VWS V14.01,2013-04-03 21:16:00,
2013-04-03 17:17:00,79.0,45.8,29.97,SSW,202,2.0,2.5,31,0.00,,---,0.00,VWS V14.01,2013-04-03 21:17:00,
2013-04-03 17:18:00,79.0,45.8,29.97,WSW,248,2.2,2.5,31,0.00,,---,0.00,VWS V14.01,2013-04-03 21:18:00,
2013-04-03 17:19:00,79.0,45.8,29.97,SSW,202,0.9,2.2,31,0.00,,---,0.00,VWS V14.01,2013-04-03 21:19:00,
2013-04-03 17:20:00,78.8,45.6,29.97,SSW,202,1.3,2.0,31,0.00,,---,0.00,VWS V14.01,2013-04-03 21:20:00,
2013-04-03 17:21:00,78.6,46.3,29.97,WSW,248,3.1,3.1,32,0.00,,---,0.00,VWS V14.01,2013-04-03 21:21:00,
2013-04-03 17:22:00,78.6,46.3,29.97,South,180,2.0,3.1,32,0.00,,---,0.00,VWS V14.01,2013-04-03 21:22:00,
2013-04-03 17:23:00,78.6,46.3,29.97,SW,225,1.6,3.1,32,0.00,,---,0.00,VWS V14.01,2013-04-03 21:23:00,
2013-04-03 17:24:00,78.4,46.2,29.97,West,270,2.0,2.0,32,0.00,,---,0.00,VWS V14.01,2013-04-03 21:24:00,
2013-04-03 17:25:00,78.4,46.2,29.97,SSW,202,2.0,2.0,32,0.00,,---,0.00,VWS V14.01,2013-04-03 21:25:00,
2013-04-03 17:26:00,78.3,46.0,29.97,SSW,202,0.0,2.2,32,0.00,,---,0.00,VWS V14.01,2013-04-03 21:26:00,
2013-04-03 17:27:00,78.3,46.0,29.97,SSW,202,2.2,2.2,32,0.00,,---,0.00,VWS V14.01,2013-04-03 21:27:00,
2013-04-03 17:28:00,78.3,46.0,29.97,SSW,202,0.0,2.2,32,0.00,,---,0.00,VWS V14.01,2013-04-03 21:28:00,
2013-04-03 17:29:00,78.3,46.0,29.97,SSW,202,1.3,1.3,32,0.00,,---,0.00,VWS V14.01,2013-04-03 21:29:00,
2013-04-03 17:30:00,78.4,46.2,29.97,WSW,248,1.6,1.6,32,0.00,,---,0.00,VWS V14.01,2013-04-03 21:30:00,
2013-04-03 17:31:00,78.4,46.2,29.97,WSW,248,0.0,0.0,32,0.00,,---,0.00,VWS V14.01,2013-04-03 21:31:00,
2013-04-03 17:32:00,78.4,46.2,29.97,WSW,248,0.0,0.0,32,0.00,,---,0.00,VWS V14.01,2013-04-03 21:32:00,
2013-04-03 17:33:00,78.4,46.2,29.97,WSW,248,0.0,0.0,32,0.00,,---,0.00,VWS V14.01,2013-04-03 21:33:00,
2013-04-03 17:34:00,78.4,46.2,29.97,SSW,202,1.6,1.6,32,0.00,,---,0.00,VWS V14.01,2013-04-03 21:34:00,
2013-04-03 17:35:00,78.4,46.2,29.97,SSW,202,0.0,1.6,32,0.00,,---,0.00,VWS V14.01,2013-04-03 21:35:00,
2013-04-03 17:36:00,78.4,46.2,29.97,SSW,202,1.3,1.3,32,0.00,,---,0.00,VWS V14.01,2013-04-03 21:36:00,
2013-04-03 17:37:00,78.4,46.2,29.97,SW,225,0.9,1.3,32,0.00,,---,0.00,VWS V14.01,2013-04-03 21:37:00,
2013-04-03 17:38:00,78.4,46.2,29.97,SSW,202,1.1,1.3,32,0.00,,---,0.00,VWS V14.01,2013-04-03 21:38:00,
2013-04-03 17:39:00,78.4,46.2,29.97,SSW,202,0.0,1.1,32,0.00,,---,0.00,VWS V14.01,2013-04-03 21:39:00,
2013-04-03 17:40:00,78.4,46.2,29.97,SSW,202,0.0,0.0,32,0.00,,---,0.00,VWS V14.01,2013-04-03 21:40:00,
2013-04-03 17:41:00,78.4,46.2,29.97,SSE,158,0.0,1.1,32,0.00,,---,0.00,VWS V14.01,2013-04-03 21:41:00,
2013-04-03 17:42:00,78.4,46.2,29.97,SSW,202,0.0,0.0,32,0.00,,---,0.00,VWS V14.01,2013-04-03 21:42:00,
2013-04-03 17:43:00,78.4,46.2,29.97,SSW,202,0.0,0.0,32,0.00,,---,0.00,VWS V14.01,2013-04-03 21:43:00,
2013-04-03 17:44:00,78.4,46.2,29.97,SSW,202,0.0,0.0,32,0.00,,---,0.00,VWS V14.01,2013-04-03 21:44:00,
2013-04-03 17:45:00,78.4,46.2,29.97,ESE,112,0.0,0.0,32,0.00,,---,0.00,VWS V14.01,2013-04-03 21:45:00,
2013-04-03 17:46:00,78.4,46.2,29.97,SW,225,0.0,1.3,32,0.00,,---,0.00,VWS V14.01,2013-04-03 21:46:00,
2013-04-03 17:47:00,78.4,47.0,29.97,East,90,3.4,3.4,33,0.00,,---,0.00,VWS V14.01,2013-04-03 21:47:00,
2013-04-03 17:48:00,78.4,47.0,29.97,East,90,3.4,3.4,33,0.00,,---,0.00,VWS V14.01,2013-04-03 21:48:00,
2013-04-03 17:49:00,78.3,46.8,29.97,SSE,158,3.4,4.0,33,0.00,,---,0.00,VWS V14.01,2013-04-03 21:49:00,
2013-04-03 17:50:00,78.1,46.7,29.97,SSE,158,3.6,3.6,33,0.00,,---,0.00,VWS V14.01,2013-04-03 21:50:00,
2013-04-03 17:51:00,78.1,46.7,29.97,South,180,0.0,3.6,33,0.00,,---,0.00,VWS V14.01,2013-04-03 21:51:00,
2013-04-03 17:52:00,78.1,46.7,29.97,SSE,158,2.0,2.2,33,0.00,,---,0.00,VWS V14.01,2013-04-03 21:52:00,
2013-04-03 17:53:00,78.1,46.7,29.97,SSE,158,2.0,2.2,33,0.00,,---,0.00,VWS V14.01,2013-04-03 21:53:00,
2013-04-03 17:54:00,78.1,46.7,29.97,SSW,202,2.2,3.1,33,0.00,,---,0.00,VWS V14.01,2013-04-03 21:54:00,
2013-04-03 17:55:00,78.1,46.7,29.97,SSW,202,2.0,2.2,33,0.00,,---,0.00,VWS V14.01,2013-04-03 21:55:00,
2013-04-03 17:56:00,78.1,46.7,29.97,SW,225,2.0,2.5,33,0.00,,---,0.00,VWS V14.01,2013-04-03 21:56:00,
2013-04-03 17:57:00,77.9,46.5,29.97,West,270,1.6,4.3,33,0.00,,---,0.00,VWS V14.01,2013-04-03 21:57:00,
2013-04-03 17:58:00,77.9,46.5,29.97,West,270,1.6,4.3,33,0.00,,---,0.00,VWS V14.01,2013-04-03 21:58:00,
2013-04-03 17:59:00,77.9,46.5,29.97,ESE,112,3.4,3.4,33,0.00,,---,0.00,VWS V14.01,2013-04-03 21:59:00,
2013-04-03 18:00:00,77.9,46.5,29.97,SW,225,1.1,3.4,33,0.00,,---,0.00,VWS V14.01,2013-04-03 22:00:00,
2013-04-03 18:01:00,77.9,46.5,29.97,SW,225,0.0,1.3,33,0.00,,---,0.00,VWS V14.01,2013-04-03 22:01:00,
2013-04-03 18:02:00,77.9,46.5,29.97,SSE,158,2.7,2.7,33,0.00,,---,0.00,VWS V14.01,2013-04-03 22:02:00,
2013-04-03 18:03:00,77.9,46.5,29.97,SSE,158,2.7,3.6,33,0.00,,---,0.00,VWS V14.01,2013-04-03 22:03:00,
2013-04-03 18:04:00,77.7,46.3,29.97,SSE,158,2.0,3.8,33,0.00,,---,0.00,VWS V14.01,2013-04-03 22:04:00,
2013-04-03 18:05:00,77.5,46.2,29.97,South,180,2.2,5.4,33,0.00,,---,0.00,VWS V14.01,2013-04-03 22:05:00,
2013-04-03 18:06:00,77.5,46.2,29.97,SSE,158,0.9,2.2,33,0.00,,---,0.00,VWS V14.01,2013-04-03 22:06:00,
2013-04-03 18:07:00,77.7,46.3,29.97,SE,135,2.0,2.2,33,0.00,,---,0.00,VWS V14.01,2013-04-03 22:07:00,
2013-04-03 18:08:00,77.7,46.3,29.97,SE,135,2.0,2.2,33,0.00,,---,0.00,VWS V14.01,2013-04-03 22:08:00,
2013-04-03 18:09:00,77.5,46.2,29.97,SSE,158,2.7,4.0,33,0.00,,---,0.00,VWS V14.01,2013-04-03 22:09:00,
2013-04-03 18:10:00,77.5,46.2,29.97,SSE,158,4.3,5.8,33,0.00,,---,0.00,VWS V14.01,2013-04-03 22:10:00,
2013-04-03 18:11:00,77.4,46.0,29.97,South,180,4.3,6.5,33,0.00,,---,0.00,VWS V14.01,2013-04-03 22:11:00,
2013-04-03 18:12:00,77.4,45.2,29.97,South,180,5.4,6.5,32,0.00,,---,0.00,VWS V14.01,2013-04-03 22:12:00,
2013-04-03 18:13:00,77.4,45.2,29.97,South,180,4.7,6.5,32,0.00,,---,0.00,VWS V14.01,2013-04-03 22:13:00,
2013-04-03 18:14:00,77.2,45.1,29.97,SSW,202,2.5,4.7,32,0.00,,---,0.00,VWS V14.01,2013-04-03 22:14:00,
2013-04-03 18:15:00,77.2,45.9,29.97,SSE,158,1.1,3.1,33,0.00,,---,0.00,VWS V14.01,2013-04-03 22:15:00,
2013-04-03 18:16:00,77.2,45.9,29.97,SSW,202,2.5,2.5,33,0.00,,---,0.00,VWS V14.01,2013-04-03 22:16:00,
2013-04-03 18:17:00,77.2,45.9,29.97,SSW,202,2.7,3.8,33,0.00,,---,0.00,VWS V14.01,2013-04-03 22:17:00,
2013-04-03 18:18:00,77.2,45.9,29.97,SSW,202,2.7,3.8,33,0.00,,---,0.00,VWS V14.01,2013-04-03 22:18:00,
2013-04-03 18:19:00,77.2,45.9,29.97,SSW,202,2.7,2.7,33,0.00,,---,0.00,VWS V14.01,2013-04-03 22:19:00,
2013-04-03 18:20:00,77.2,45.9,29.97,WNW,292,1.3,2.7,33,0.00,,---,0.00,VWS V14.01,2013-04-03 22:20:00,
2013-04-03 18:21:00,77.0,45.7,29.97,SSW,202,2.7,2.9,33,0.00,,---,0.00,VWS V14.01,2013-04-03 22:21:00,
2013-04-03 18:22:00,77.0,45.7,29.97,SSW,202,1.3,2.5,33,0.00,,---,0.00,VWS V14.01,2013-04-03 22:22:00,
2013-04-03 18:23:00,77.0,45.7,29.97,SSW,202,1.3,2.5,33,0.00,,---,0.00,VWS V14.01,2013-04-03 22:23:00,
2013-04-03 18:24:00,76.8,46.3,29.97,SSW,202,1.6,2.5,34,0.00,,---,0.00,VWS V14.01,2013-04-03 22:24:00,
2013-04-03 18:25:00,76.8,46.3,29.97,SSW,202,3.6,4.9,34,0.00,,---,0.00,VWS V14.01,2013-04-03 22:25:00,
2013-04-03 18:26:00,76.8,46.3,29.97,SE,135,2.7,3.6,34,0.00,,---,0.00,VWS V14.01,2013-04-03 22:26:00,
2013-04-03 18:27:00,76.6,46.2,29.97,SSW,202,3.8,3.8,34,0.00,,---,0.00,VWS V14.01,2013-04-03 22:27:00,
2013-04-03 18:28:00,76.6,46.2,29.97,SSW,202,3.8,3.8,34,0.00,,---,0.00,VWS V14.01,2013-04-03 22:28:00,
2013-04-03 18:29:00,76.6,46.2,29.97,SSW,202,2.2,3.8,34,0.00,,---,0.00,VWS V14.01,2013-04-03 22:29:00,
2013-04-03 18:30:00,76.6,46.2,29.97,ESE,112,3.4,3.4,34,0.00,,---,0.00,VWS V14.01,2013-04-03 22:30:00,
2013-04-03 18:31:00,76.6,47.0,29.97,SW,225,1.6,3.8,35,0.00,,---,0.00,VWS V14.01,2013-04-03 22:31:00,
2013-04-03 18:32:00,76.6,47.0,29.97,SE,135,1.3,2.0,35,0.00,,---,0.00,VWS V14.01,2013-04-03 22:32:00,
2013-04-03 18:33:00,76.6,47.0,29.97,SSW,202,2.0,2.2,35,0.00,,---,0.00,VWS V14.01,2013-04-03 22:33:00,
2013-04-03 18:34:00,76.5,46.8,29.97,SSW,202,2.5,3.1,35,0.00,,---,0.00,VWS V14.01,2013-04-03 22:34:00,
2013-04-03 18:35:00,76.5,46.8,29.97,SSW,202,1.6,2.5,35,0.00,,---,0.00,VWS V14.01,2013-04-03 22:35:00,
2013-04-03 18:36:00,76.5,46.8,29.97,SSW,202,0.0,1.6,35,0.00,,---,0.00,VWS V14.01,2013-04-03 22:36:00,
2013-04-03 18:37:00,76.5,46.8,29.97,SSW,202,1.6,1.6,35,0.00,,---,0.00,VWS V14.01,2013-04-03 22:37:00,
2013-04-03 18:38:00,76.5,46.8,29.97,SSW,202,1.6,1.6,35,0.00,,---,0.00,VWS V14.01,2013-04-03 22:38:00,
2013-04-03 18:39:00,76.5,47.5,29.97,SSW,202,3.1,3.1,36,0.00,,---,0.00,VWS V14.01,2013-04-03 22:39:00,
2013-04-03 18:40:00,76.3,47.4,29.97,South,180,1.6,3.1,36,0.00,,---,0.00,VWS V14.01,2013-04-03 22:40:00,
2013-04-03 18:41:00,76.3,47.4,29.97,SSW,202,2.0,2.0,36,0.00,,---,0.00,VWS V14.01,2013-04-03 22:41:00,
2013-04-03 18:42:00,76.3,47.4,29.97,SSW,202,0.9,1.1,36,0.00,,---,0.00,VWS V14.01,2013-04-03 22:42:00,
2013-04-03 18:43:00,76.3,47.4,29.97,SSW,202,0.9,1.1,36,0.00,,---,0.00,VWS V14.01,2013-04-03 22:43:00,
2013-04-03 18:44:00,76.3,47.4,29.97,SSE,158,3.1,3.1,36,0.00,,---,0.00,VWS V14.01,2013-04-03 22:44:00,
2013-04-03 18:45:00,76.3,47.4,29.97,SSW,202,2.5,3.4,36,0.00,,---,0.00,VWS V14.01,2013-04-03 22:45:00,
2013-04-03 18:46:00,76.3,47.4,29.97,East,90,2.2,2.5,36,0.00,,---,0.00,VWS V14.01,2013-04-03 22:46:00,
2013-04-03 18:47:00,76.1,48.0,29.97,SSW,202,2.0,5.6,37,0.00,,---,0.00,VWS V14.01,2013-04-03 22:47:00,
2013-04-03 18:48:00,76.1,48.0,29.97,SSW,202,2.0,5.6,37,0.00,,---,0.00,VWS V14.01,2013-04-03 22:48:00,
2013-04-03 18:49:00,76.1,48.0,29.97,South,180,2.2,2.2,37,0.00,,---,0.00,VWS V14.01,2013-04-03 22:49:00,
2013-04-03 18:50:00,76.1,48.0,29.97,SSE,158,2.0,2.9,37,0.00,,---,0.00,VWS V14.01,2013-04-03 22:50:00,
2013-04-03 18:51:00,76.1,48.0,29.97,South,180,3.1,3.4,37,0.00,,---,0.00,VWS V14.01,2013-04-03 22:51:00,
2013-04-03 18:52:00,76.1,48.0,29.97,SSW,202,1.3,1.3,37,0.00,,---,0.00,VWS V14.01,2013-04-03 22:52:00,
2013-04-03 18:53:00,76.1,48.0,29.97,SSW,202,1.3,1.3,37,0.00,,---,0.00,VWS V14.01,2013-04-03 22:53:00,
2013-04-03 18:54:00,76.1,48.0,29.97,SSW,202,0.0,1.3,37,0.00,,---,0.00,VWS V14.01,2013-04-03 22:54:00,
2013-04-03 18:55:00,76.1,48.0,29.97,SSW,202,1.3,1.3,37,0.00,,---,0.00,VWS V14.01,2013-04-03 22:55:00,
2013-04-03 18:56:00,76.1,48.0,29.97,SSW,202,0.0,1.3,37,0.00,,---,0.00,VWS V14.01,2013-04-03 22:56:00,
2013-04-03 18:57:00,76.1,48.7,29.97,South,180,0.0,1.1,38,0.00,,---,0.00,VWS V14.01,2013-04-03 22:57:00,
2013-04-03 18:58:00,76.1,48.7,29.97,South,180,1.1,2.7,38,0.00,,---,0.00,VWS V14.01,2013-04-03 22:58:00,
2013-04-03 18:59:00,75.9,48.5,29.97,South,180,0.0,1.1,38,0.00,,---,0.00,VWS V14.01,2013-04-03 22:59:00,
2013-04-03 19:00:00,75.9,48.5,29.97,South,180,0.0,0.0,38,0.00,,---,0.00,VWS V14.01,2013-04-03 23:00:00,
2013-04-03 19:01:00,75.9,47.8,29.97,SSE,158,0.0,1.1,37,0.00,,---,0.00,VWS V14.01,2013-04-03 23:01:00,
2013-04-03 19:02:00,75.9,48.5,29.97,SSE,158,0.0,0.0,38,0.00,,---,0.00,VWS V14.01,2013-04-03 23:02:00,
2013-04-03 19:03:00,75.9,48.5,29.97,SSE,158,0.0,0.9,38,0.00,,---,0.00,VWS V14.01,2013-04-03 23:03:00,
2013-04-03 19:04:00,75.9,48.5,29.97,SSE,158,2.2,2.2,38,0.00,,---,0.00,VWS V14.01,2013-04-03 23:04:00,
2013-04-03 19:05:00,75.9,48.5,29.97,South,180,0.0,2.2,38,0.00,,---,0.00,VWS V14.01,2013-04-03 23:05:00,
2013-04-03 19:06:00,75.9,48.5,29.97,SE,135,1.1,1.1,38,0.00,,---,0.00,VWS V14.01,2013-04-03 23:06:00,
2013-04-03 19:07:00,75.7,48.4,29.97,South,180,0.0,1.6,38,0.00,,---,0.00,VWS V14.01,2013-04-03 23:07:00,
2013-04-03 19:08:00,75.7,48.4,29.97,South,180,0.0,1.6,38,0.00,,---,0.00,VWS V14.01,2013-04-03 23:08:00,
2013-04-03 19:09:00,75.7,48.4,29.97,SSE,158,2.5,2.5,38,0.00,,---,0.00,VWS V14.01,2013-04-03 23:09:00,
2013-04-03 19:10:00,75.7,49.0,29.97,SE,135,0.0,2.5,39,0.00,,---,0.00,VWS V14.01,2013-04-03 23:10:00,
2013-04-03 19:11:00,75.7,48.4,29.97,SE,135,0.0,0.0,38,0.00,,---,0.00,VWS V14.01,2013-04-03 23:11:00,
2013-04-03 19:12:00,75.7,49.0,29.97,South,180,1.3,1.3,39,0.00,,---,0.00,VWS V14.01,2013-04-03 23:12:00,
2013-04-03 19:13:00,75.7,49.0,29.97,South,180,0.0,0.0,39,0.00,,---,0.00,VWS V14.01,2013-04-03 23:13:00,
2013-04-03 19:14:00,75.7,49.0,29.97,South,180,0.9,1.6,39,0.00,,---,0.00,VWS V14.01,2013-04-03 23:14:00,
2013-04-03 19:15:00,75.7,49.0,29.97,SSW,202,2.0,2.0,39,0.00,,---,0.00,VWS V14.01,2013-04-03 23:15:00,
2013-04-03 19:16:00,75.7,49.0,29.97,SSE,158,0.0,2.2,39,0.00,,---,0.00,VWS V14.01,2013-04-03 23:16:00,
2013-04-03 19:17:00,75.6,49.6,29.97,SE,135,0.9,1.6,40,0.00,,---,0.00,VWS V14.01,2013-04-03 23:17:00,
2013-04-03 19:18:00,75.6,49.6,29.97,SE,135,1.6,2.7,40,0.00,,---,0.00,VWS V14.01,2013-04-03 23:18:00,
2013-04-03 19:19:00,75.6,48.9,29.97,SE,135,0.0,1.6,39,0.00,,---,0.00,VWS V14.01,2013-04-03 23:19:00,
2013-04-03 19:20:00,75.6,48.9,29.97,SE,135,1.3,1.3,39,0.00,,---,0.00,VWS V14.01,2013-04-03 23:20:00,
2013-04-03 19:21:00,75.6,49.6,29.97,SE,135,0.0,1.3,40,0.00,,---,0.00,VWS V14.01,2013-04-03 23:21:00,
2013-04-03 19:22:00,75.6,49.6,29.97,SSW,202,1.3,1.3,40,0.00,,---,0.00,VWS V14.01,2013-04-03 23:22:00,
2013-04-03 19:23:00,75.6,49.6,29.97,SSW,202,0.0,1.3,40,0.00,,---,0.00,VWS V14.01,2013-04-03 23:23:00,
2013-04-03 19:24:00,75.6,49.6,29.97,SSW,202,0.0,1.3,40,0.00,,---,0.00,VWS V14.01,2013-04-03 23:24:00,
2013-04-03 19:25:00,75.6,50.2,29.97,SSE,158,3.1,3.1,41,0.00,,---,0.00,VWS V14.01,2013-04-03 23:25:00,
2013-04-03 19:26:00,75.6,50.2,29.97,SSE,158,0.0,3.1,41,0.00,,---,0.00,VWS V14.01,2013-04-03 23:26:00,
2013-04-03 19:27:00,75.4,50.1,29.97,SSE,158,0.0,1.6,41,0.00,,---,0.00,VWS V14.01,2013-04-03 23:27:00,
2013-04-03 19:28:00,75.6,50.2,29.97,SSE,158,0.0,2.5,41,0.00,,---,0.00,VWS V14.01,2013-04-03 23:28:00,
2013-04-03 19:29:00,75.4,50.1,29.97,SSE,158,0.0,1.6,41,0.00,,---,0.00,VWS V14.01,2013-04-03 23:29:00,
2013-04-03 19:30:00,75.4,50.1,29.97,SE,135,0.9,2.0,41,0.00,,---,0.00,VWS V14.01,2013-04-03 23:30:00,
2013-04-03 19:31:00,75.4,50.1,29.97,SSE,158,0.0,2.2,41,0.00,,---,0.00,VWS V14.01,2013-04-03 23:31:00,
2013-04-03 19:32:00,75.4,50.7,29.97,SSE,158,2.2,2.2,42,0.00,,---,0.00,VWS V14.01,2013-04-03 23:32:00,
2013-04-03 19:33:00,75.2,50.6,29.97,South,180,2.2,3.1,42,0.00,,---,0.00,VWS V14.01,2013-04-03 23:33:00,
2013-04-03 19:34:00,75.2,50.6,29.97,South,180,2.2,3.1,42,0.00,,---,0.00,VWS V14.01,2013-04-03 23:34:00,
2013-04-03 19:35:00,75.2,50.6,29.97,SSE,158,1.6,2.7,42,0.00,,---,0.00,VWS V14.01,2013-04-03 23:35:00,
2013-04-03 19:36:00,75.2,50.6,29.97,SSE,158,0.9,3.1,42,0.00,,---,0.00,VWS V14.01,2013-04-03 23:36:00,
2013-04-03 19:37:00,75.2,50.6,29.97,SSW,202,0.0,2.2,42,0.00,,---,0.00,VWS V14.01,2013-04-03 23:37:00,
2013-04-03 19:38:00,75.2,50.6,29.97,SSE,158,2.2,2.5,42,0.00,,---,0.00,VWS V14.01,2013-04-03 23:38:00,
2013-04-03 19:39:00,75.2,50.6,29.97,SSE,158,2.2,2.5,42,0.00,,---,0.00,VWS V14.01,2013-04-03 23:39:00,
2013-04-03 19:40:00,75.2,50.6,29.97,SSE,158,1.3,3.1,42,0.00,,---,0.00,VWS V14.01,2013-04-03 23:40:00,
2013-04-03 19:41:00,75.2,51.2,29.97,SSE,158,3.8,3.8,43,0.00,,---,0.00,VWS V14.01,2013-04-03 23:41:00,
2013-04-03 19:42:00,75.0,51.0,29.97,SSE,158,3.6,3.8,43,0.00,,---,0.00,VWS V14.01,2013-04-03 23:42:00,
2013-04-03 19:43:00,75.0,51.7,29.97,SSE,158,5.4,5.4,44,0.00,,---,0.00,VWS V14.01,2013-04-03 23:43:00,
2013-04-03 19:44:00,75.0,51.7,29.97,SSE,158,5.4,5.4,44,0.00,,---,0.00,VWS V14.01,2013-04-03 23:44:00,
2013-04-03 19:45:00,75.0,52.3,29.97,SSE,158,2.7,5.4,45,0.00,,---,0.00,VWS V14.01,2013-04-03 23:45:00,
2013-04-03 19:46:00,75.0,51.7,29.97,SSE,158,2.2,2.7,44,0.00,,---,0.00,VWS V14.01,2013-04-03 23:46:00,
2013-04-03 19:47:00,75.0,51.7,29.97,SSW,202,3.1,3.8,44,0.00,,---,0.00,VWS V14.01,2013-04-03 23:47:00,
2013-04-03 19:48:00,74.8,51.5,29.97,SSW,202,2.0,5.4,44,0.00,,---,0.00,VWS V14.01,2013-04-03 23:48:00,
2013-04-03 19:49:00,74.8,51.5,29.97,SSW,202,2.0,5.4,44,0.00,,---,0.00,VWS V14.01,2013-04-03 23:49:00,
2013-04-03 19:50:00,74.8,52.1,29.97,SSE,158,4.9,6.3,45,0.00,,---,0.00,VWS V14.01,2013-04-03 23:50:00,
2013-04-03 19:51:00,74.8,52.1,29.97,South,180,1.6,5.8,45,0.00,,---,0.00,VWS V14.01,2013-04-03 23:51:00,
2013-04-03 19:52:00,74.8,52.1,29.97,SSE,158,2.5,2.5,45,0.00,,---,0.00,VWS V14.01,2013-04-03 23:52:00,
2013-04-03 19:53:00,74.8,52.1,29.97,SSE,158,3.1,7.6,45,0.00,,---,0.00,VWS V14.01,2013-04-03 23:53:00,
2013-04-03 19:54:00,74.8,52.1,29.97,SSE,158,3.1,7.6,45,0.00,,---,0.00,VWS V14.01,2013-04-03 23:54:00,
2013-04-03 19:55:00,74.7,51.9,29.97,SSE,158,1.3,4.0,45,0.00,,---,0.00,VWS V14.01,2013-04-03 23:55:00,
2013-04-03 19:56:00,74.7,51.9,29.97,SSE,158,1.3,2.0,45,0.00,,---,0.00,VWS V14.01,2013-04-03 23:56:00,
2013-04-03 19:57:00,74.7,51.9,29.97,SSE,158,3.1,4.3,45,0.00,,---,0.00,VWS V14.01,2013-04-03 23:57:00,
2013-04-03 19:58:00,74.7,52.5,29.97,SSE,158,3.1,4.9,46,0.00,,---,0.00,VWS V14.01,2013-04-03 23:58:00,
2013-04-03 19:59:00,74.7,52.5,29.97,SSE,158,3.1,4.9,46,0.00,,---,0.00,VWS V14.01,2013-04-03 23:59:00,
2013-04-03 20:00:00,74.7,52.5,29.97,SSE,158,2.0,3.1,46,0.00,,---,0.00,VWS V14.01,2013-04-04 00:00:00,
2013-04-03 20:01:00,74.7,52.5,29.97,South,180,1.6,2.5,46,0.00,,---,0.00,VWS V14.01,2013-04-04 00:01:00,
2013-04-03 20:02:00,74.7,52.5,29.97,SSE,158,2.0,2.9,46,0.00,,---,0.00,VWS V14.01,2013-04-04 00:02:00,
2013-04-03 20:03:00,74.7,51.9,29.97,ESE,112,2.7,2.7,45,0.00,,---,0.00,VWS V14.01,2013-04-04 00:03:00,
2013-04-03 20:04:00,74.7,51.9,29.97,ESE,112,2.7,2.7,45,0.00,,---,0.00,VWS V14.01,2013-04-04 00:04:00,
2013-04-03 20:05:00,74.7,51.9,29.97,SE,135,0.0,3.1,45,0.00,,---,0.00,VWS V14.01,2013-04-04 00:05:00,
2013-04-03 20:06:00,74.7,51.9,29.97,SE,135,0.0,0.0,45,0.00,,---,0.00,VWS V14.01,2013-04-04 00:06:00,
2013-04-03 20:07:00,74.5,51.8,29.97,SSE,158,0.0,0.0,45,0.00,,---,0.00,VWS V14.01,2013-04-04 00:07:00,
2013-04-03 20:08:00,74.5,51.8,29.97,SSW,202,0.0,0.0,45,0.00,,---,0.00,VWS V14.01,2013-04-04 00:08:00,
2013-04-03 20:09:00,74.5,51.8,29.97,SSW,202,0.0,0.9,45,0.00,,---,0.00,VWS V14.01,2013-04-04 00:09:00,
2013-04-03 20:10:00,74.5,51.8,29.97,ESE,112,0.0,0.0,45,0.00,,---,0.00,VWS V14.01,2013-04-04 00:10:00,
2013-04-03 20:12:00,74.5,51.8,29.97,SE,135,0.0,0.0,45,0.00,,---,0.00,VWS V14.01,2013-04-04 00:12:00,
2013-04-03 20:13:00,74.5,51.8,29.97,SE,135,0.0,0.0,45,0.00,,---,0.00,VWS V14.01,2013-04-04 00:13:00,
2013-04-03 20:14:00,74.5,51.8,29.97,SE,135,0.0,0.0,45,0.00,,---,0.00,VWS V14.01,2013-04-04 00:14:00,
2013-04-03 20:15:00,74.3,51.6,29.97,SE,135,0.0,0.0,45,0.00,,---,0.00,VWS V14.01,2013-04-04 00:15:00,
2013-04-03 20:16:00,74.3,51.6,29.97,SE,135,0.0,0.0,45,0.00,,---,0.00,VWS V14.01,2013-04-04 00:16:00,
2013-04-03 20:17:00,74.3,51.6,29.97,SE,135,0.0,0.0,45,0.00,,---,0.00,VWS V14.01,2013-04-04 00:17:00,
2013-04-03 20:18:00,74.3,51.6,29.97,SE,135,0.0,0.0,45,0.00,,---,0.00,VWS V14.01,2013-04-04 00:18:00,
2013-04-03 20:19:00,74.3,51.6,29.97,SE,135,0.0,0.0,45,0.00,,---,0.00,VWS V14.01,2013-04-04 00:19:00,
2013-04-03 20:20:00,74.3,51.6,29.97,SE,135,0.0,0.0,45,0.00,,---,0.00,VWS V14.01,2013-04-04 00:20:00,
2013-04-03 20:21:00,74.3,51.6,29.97,ENE,68,0.0,0.9,45,0.00,,---,0.00,VWS V14.01,2013-04-04 00:21:00,
2013-04-03 20:22:00,74.3,51.6,29.97,ENE,68,0.0,0.0,45,0.00,,---,0.00,VWS V14.01,2013-04-04 00:22:00,
2013-04-03 20:23:00,74.3,51.6,29.97,ENE,68,0.0,0.0,45,0.00,,---,0.00,VWS V14.01,2013-04-04 00:23:00,
2013-04-03 20:24:00,74.3,51.6,29.97,ENE,68,0.0,0.0,45,0.00,,---,0.00,VWS V14.01,2013-04-04 00:24:00,
2013-04-03 20:25:00,74.3,51.6,29.97,ENE,68,0.0,0.0,45,0.00,,---,0.00,VWS V14.01,2013-04-04 00:25:00,
2013-04-03 20:26:00,74.1,51.4,29.97,NNE,22,0.0,0.0,45,0.00,,---,0.00,VWS V14.01,2013-04-04 00:26:00,
2013-04-03 20:27:00,74.1,51.4,29.97,SE,135,0.0,0.0,45,0.00,,---,0.00,VWS V14.01,2013-04-04 00:27:00,
2013-04-03 20:28:00,74.1,52.0,29.97,SE,135,0.0,0.0,46,0.00,,---,0.00,VWS V14.01,2013-04-04 00:28:00,
2013-04-03 20:29:00,74.1,52.0,29.97,SE,135,0.0,0.0,46,0.00,,---,0.00,VWS V14.01,2013-04-04 00:29:00,
2013-04-03 20:30:00,74.1,51.4,29.97,SE,135,0.0,0.0,45,0.00,,---,0.00,VWS V14.01,2013-04-04 00:30:00,
2013-04-03 20:31:00,74.1,51.4,29.97,SE,135,0.0,0.0,45,0.00,,---,0.00,VWS V14.01,2013-04-04 00:31:00,
2013-04-03 20:32:00,74.1,51.4,29.97,SSW,202,0.0,0.0,45,0.00,,---,0.00,VWS V14.01,2013-04-04 00:32:00,
2013-04-03 20:33:00,74.1,52.0,29.97,SSW,202,0.0,0.0,46,0.00,,---,0.00,VWS V14.01,2013-04-04 00:33:00,
2013-04-03 20:34:00,74.1,52.0,29.97,SSW,202,0.0,0.0,46,0.00,,---,0.00,VWS V14.01,2013-04-04 00:34:00,
2013-04-03 20:35:00,74.1,52.0,29.97,SSW,202,0.0,0.0,46,0.00,,---,0.00,VWS V14.01,2013-04-04 00:35:00,
2013-04-03 20:36:00,74.1,52.0,29.97,SSW,202,0.0,0.0,46,0.00,,---,0.00,VWS V14.01,2013-04-04 00:36:00,
2013-04-03 20:37:00,73.9,51.9,29.97,SSW,202,0.0,0.0,46,0.00,,---,0.00,VWS V14.01,2013-04-04 00:37:00,
2013-04-03 20:38:00,73.9,51.9,29.97,SSW,202,0.0,0.0,46,0.00,,---,0.00,VWS V14.01,2013-04-04 00:38:00,
2013-04-03 20:39:00,73.9,52.5,29.97,SSW,202,0.0,0.0,47,0.00,,---,0.00,VWS V14.01,2013-04-04 00:39:00,
2013-04-03 20:40:00,73.9,52.5,29.97,SSW,202,0.0,0.0,47,0.00,,---,0.00,VWS V14.01,2013-04-04 00:40:00,
2013-04-03 20:41:00,73.8,52.3,29.97,SSW,202,0.0,0.0,47,0.00,,---,0.00,VWS V14.01,2013-04-04 00:41:00,
2013-04-03 20:42:00,73.8,52.3,30.03,North,0,0.0,0.0,47,0.00,,---,0.00,VWS V14.01,2013-04-04 00:42:00,
2013-04-03 20:43:00,73.8,52.9,30.03,North,0,0.0,0.0,48,0.00,,---,0.00,VWS V14.01,2013-04-04 00:43:00,
2013-04-03 20:44:00,73.6,52.7,30.03,WNW,292,0.0,0.0,48,0.00,,---,0.00,VWS V14.01,2013-04-04 00:44:00,
2013-04-03 20:45:00,73.6,52.7,30.03,WNW,292,0.0,2.0,48,0.00,,---,0.00,VWS V14.01,2013-04-04 00:45:00,
2013-04-03 20:46:00,73.6,52.7,30.03,WNW,292,0.0,0.0,48,0.00,,---,0.00,VWS V14.01,2013-04-04 00:46:00,
2013-04-03 20:47:00,73.4,52.5,30.03,WNW,292,0.0,0.0,48,0.00,,---,0.00,VWS V14.01,2013-04-04 00:47:00,
2013-04-03 20:48:00,73.2,53.5,30.03,WNW,292,0.0,0.0,50,0.00,,---,0.00,VWS V14.01,2013-04-04 00:48:00,
2013-04-03 20:49:00,73.0,53.9,30.03,NNW,338,0.0,0.0,51,0.00,,---,0.00,VWS V14.01,2013-04-04 00:49:00,
2013-04-03 20:50:00,73.0,53.9,30.03,NNW,338,0.0,1.1,51,0.00,,---,0.00,VWS V14.01,2013-04-04 00:50:00,
2013-04-03 20:51:00,72.9,53.7,30.03,SSE,158,0.0,1.1,51,0.00,,---,0.00,VWS V14.01,2013-04-04 00:51:00,
2013-04-03 20:52:00,72.7,54.6,30.03,SSE,158,0.0,0.0,53,0.00,,---,0.00,VWS V14.01,2013-04-04 00:52:00,
2013-04-03 20:53:00,72.5,54.9,30.03,SSE,158,0.0,0.0,54,0.00,,---,0.00,VWS V14.01,2013-04-04 00:53:00,
2013-04-03 20:54:00,72.3,54.8,30.03,SSW,202,0.0,0.0,54,0.00,,---,0.00,VWS V14.01,2013-04-04 00:54:00,
2013-04-03 20:55:00,72.3,54.8,30.03,SSW,202,0.0,0.0,54,0.00,,---,0.00,VWS V14.01,2013-04-04 00:55:00,
2013-04-03 20:56:00,72.1,56.1,30.03,South,180,0.0,0.0,57,0.00,,---,0.00,VWS V14.01,2013-04-04 00:56:00,
2013-04-03 20:57:00,72.1,56.1,30.03,SSW,202,0.0,0.0,57,0.00,,---,0.00,VWS V14.01,2013-04-04 00:57:00,
2013-04-03 20:58:00,72.1,56.1,30.03,SSE,158,0.0,0.0,57,0.00,,---,0.00,VWS V14.01,2013-04-04 00:58:00,
2013-04-03 20:59:00,72.1,56.1,30.03,ESE,112,0.0,0.0,57,0.00,,---,0.00,VWS V14.01,2013-04-04 00:59:00,
2013-04-03 21:00:00,72.1,56.1,30.03,ESE,112,0.0,0.0,57,0.00,,---,0.00,VWS V14.01,2013-04-04 01:00:00,
2013-04-03 21:01:00,72.1,56.1,30.03,SSE,158,0.0,0.0,57,0.00,,---,0.00,VWS V14.01,2013-04-04 01:01:00,
2013-04-03 21:02:00,72.1,56.1,30.03,SSE,158,2.5,2.5,57,0.00,,---,0.00,VWS V14.01,2013-04-04 01:02:00,
2013-04-03 21:03:00,72.1,56.1,30.03,SSW,202,0.0,2.5,57,0.00,,---,0.00,VWS V14.01,2013-04-04 01:03:00,
2013-04-03 21:04:00,72.1,56.1,30.03,SSW,202,0.0,0.0,57,0.00,,---,0.00,VWS V14.01,2013-04-04 01:04:00,
2013-04-03 21:05:00,72.1,56.1,30.03,SSW,202,0.0,0.0,57,0.00,,---,0.00,VWS V14.01,2013-04-04 01:05:00,
2013-04-03 21:06:00,72.1,56.1,30.03,SSW,202,0.0,0.0,57,0.00,,---,0.00,VWS V14.01,2013-04-04 01:06:00,
2013-04-03 21:07:00,72.1,56.1,30.03,SSW,202,0.0,0.0,57,0.00,,---,0.00,VWS V14.01,2013-04-04 01:07:00,
2013-04-03 21:08:00,72.1,56.1,30.03,SSW,202,0.0,0.0,57,0.00,,---,0.00,VWS V14.01,2013-04-04 01:08:00,
2013-04-03 21:09:00,72.1,56.1,30.03,SSW,202,0.0,0.0,57,0.00,,---,0.00,VWS V14.01,2013-04-04 01:09:00,
2013-04-03 21:10:00,72.1,56.1,30.03,SSW,202,0.0,0.0,57,0.00,,---,0.00,VWS V14.01,2013-04-04 01:10:00,
2013-04-03 21:11:00,72.1,56.1,30.03,SSW,202,0.0,0.0,57,0.00,,---,0.00,VWS V14.01,2013-04-04 01:11:00,
2013-04-03 21:12:00,72.1,56.1,30.03,SSW,202,0.0,0.0,57,0.00,,---,0.00,VWS V14.01,2013-04-04 01:12:00,
2013-04-03 21:13:00,72.1,56.1,30.03,SSW,202,0.0,0.0,57,0.00,,---,0.00,VWS V14.01,2013-04-04 01:13:00,
2013-04-03 21:14:00,72.1,56.1,30.03,ESE,112,0.0,0.0,57,0.00,,---,0.00,VWS V14.01,2013-04-04 01:14:00,
2013-04-03 21:15:00,72.1,56.1,30.03,SSW,202,0.0,0.0,57,0.00,,---,0.00,VWS V14.01,2013-04-04 01:15:00,
2013-04-03 21:16:00,72.1,56.1,30.03,ESE,112,0.0,0.0,57,0.00,,---,0.00,VWS V14.01,2013-04-04 01:16:00,
2013-04-03 21:17:00,72.1,56.1,30.03,SSE,158,0.0,0.0,57,0.00,,---,0.00,VWS V14.01,2013-04-04 01:17:00,
2013-04-03 21:18:00,72.1,56.1,30.03,South,180,0.0,0.0,57,0.00,,---,0.00,VWS V14.01,2013-04-04 01:18:00,
2013-04-03 21:19:00,72.1,56.1,30.03,South,180,0.0,0.0,57,0.00,,---,0.00,VWS V14.01,2013-04-04 01:19:00,
2013-04-03 21:20:00,72.1,56.1,30.03,South,180,0.0,0.0,57,0.00,,---,0.00,VWS V14.01,2013-04-04 01:20:00,
2013-04-03 21:21:00,72.1,56.1,30.03,South,180,0.0,0.0,57,0.00,,---,0.00,VWS V14.01,2013-04-04 01:21:00,
2013-04-03 21:22:00,72.1,56.1,30.03,South,180,0.0,0.0,57,0.00,,---,0.00,VWS V14.01,2013-04-04 01:22:00,
2013-04-03 21:23:00,70.2,55.6,30.03,South,180,0.0,0.0,60,0.00,,---,0.00,VWS V14.01,2013-04-04 01:23:00,
2013-04-03 21:24:00,70.2,56.1,30.03,South,180,0.0,0.0,61,0.00,,---,0.00,VWS V14.01,2013-04-04 01:24:00,
2013-04-03 21:25:00,70.2,56.5,30.03,ESE,112,0.0,0.0,62,0.00,,---,0.00,VWS V14.01,2013-04-04 01:25:00,
2013-04-03 21:26:00,70.2,56.5,30.03,ESE,112,0.0,0.0,62,0.00,,---,0.00,VWS V14.01,2013-04-04 01:26:00,
2013-04-03 21:27:00,70.2,56.5,30.03,ESE,112,0.0,0.0,62,0.00,,---,0.00,VWS V14.01,2013-04-04 01:27:00,
2013-04-03 21:28:00,70.0,56.4,30.03,ESE,112,0.0,0.0,62,0.00,,---,0.00,VWS V14.01,2013-04-04 01:28:00,
2013-04-03 21:29:00,70.0,55.9,30.03,ESE,112,0.0,0.0,61,0.00,,---,0.00,VWS V14.01,2013-04-04 01:29:00,
2013-04-03 21:30:00,69.8,55.8,30.03,SSE,158,0.0,0.0,61,0.00,,---,0.00,VWS V14.01,2013-04-04 01:30:00,
2013-04-03 21:31:00,69.8,55.8,30.03,SSE,158,0.0,0.0,61,0.00,,---,0.00,VWS V14.01,2013-04-04 01:31:00,
2013-04-03 21:32:00,70.0,55.9,30.03,ESE,112,0.0,0.0,61,0.00,,---,0.00,VWS V14.01,2013-04-04 01:32:00,
2013-04-03 21:33:00,70.0,56.4,30.03,ESE,112,0.0,0.0,62,0.00,,---,0.00,VWS V14.01,2013-04-04 01:33:00,
2013-04-03 21:34:00,70.0,56.4,30.03,ESE,112,0.0,0.0,62,0.00,,---,0.00,VWS V14.01,2013-04-04 01:34:00,
2013-04-03 21:35:00,70.0,56.4,30.03,SE,135,0.0,0.0,62,0.00,,---,0.00,VWS V14.01,2013-04-04 01:35:00,
2013-04-03 21:36:00,70.0,56.4,30.03,SE,135,0.0,0.0,62,0.00,,---,0.00,VWS V14.01,2013-04-04 01:36:00,
2013-04-03 21:37:00,69.8,56.2,30.03,SE,135,0.0,0.0,62,0.00,,---,0.00,VWS V14.01,2013-04-04 01:37:00,
2013-04-03 21:38:00,69.8,55.8,30.03,SE,135,0.0,0.0,61,0.00,,---,0.00,VWS V14.01,2013-04-04 01:38:00,
2013-04-03 21:39:00,69.8,55.8,30.03,SE,135,0.0,0.0,61,0.00,,---,0.00,VWS V14.01,2013-04-04 01:39:00,
2013-04-03 21:40:00,69.6,56.5,30.03,SE,135,0.0,0.0,63,0.00,,---,0.00,VWS V14.01,2013-04-04 01:40:00,
2013-04-03 21:41:00,69.8,56.2,30.03,SE,135,0.0,0.0,62,0.00,,---,0.00,VWS V14.01,2013-04-04 01:41:00,
2013-04-03 21:42:00,69.6,56.5,30.03,SE,135,0.0,0.0,63,0.00,,---,0.00,VWS V14.01,2013-04-04 01:42:00,
2013-04-03 21:43:00,69.6,56.5,30.03,SE,135,0.0,0.0,63,0.00,,---,0.00,VWS V14.01,2013-04-04 01:43:00,
2013-04-03 21:44:00,69.6,56.5,30.03,SE,135,0.0,0.0,63,0.00,,---,0.00,VWS V14.01,2013-04-04 01:44:00,
2013-04-03 21:45:00,69.6,56.5,30.03,SE,135,0.0,0.0,63,0.00,,---,0.00,VWS V14.01,2013-04-04 01:45:00,
2013-04-03 21:46:00,69.6,56.5,30.03,SE,135,0.0,0.0,63,0.00,,---,0.00,VWS V14.01,2013-04-04 01:46:00,
2013-04-03 21:47:00,69.6,56.5,30.03,SE,135,0.0,0.0,63,0.00,,---,0.00,VWS V14.01,2013-04-04 01:47:00,
2013-04-03 21:48:00,69.6,56.5,30.03,SE,135,0.0,0.0,63,0.00,,---,0.00,VWS V14.01,2013-04-04 01:48:00,
2013-04-03 21:49:00,69.6,56.5,30.03,SE,135,0.0,0.0,63,0.00,,---,0.00,VWS V14.01,2013-04-04 01:49:00,
2013-04-03 21:50:00,69.6,56.5,30.03,SE,135,0.0,0.0,63,0.00,,---,0.00,VWS V14.01,2013-04-04 01:50:00,
2013-04-03 21:51:00,69.6,56.5,30.03,SE,135,0.0,0.0,63,0.00,,---,0.00,VWS V14.01,2013-04-04 01:51:00,
2013-04-03 21:52:00,69.4,57.2,30.03,SE,135,0.0,0.0,65,0.00,,---,0.00,VWS V14.01,2013-04-04 01:52:00,
2013-04-03 21:53:00,69.4,57.2,30.03,SE,135,0.0,0.0,65,0.00,,---,0.00,VWS V14.01,2013-04-04 01:53:00,
2013-04-03 21:54:00,69.4,57.2,30.03,SE,135,0.0,0.0,65,0.00,,---,0.00,VWS V14.01,2013-04-04 01:54:00,
2013-04-03 21:55:00,69.4,57.6,30.03,ESE,112,0.0,0.0,66,0.00,,---,0.00,VWS V14.01,2013-04-04 01:55:00,
2013-04-03 21:56:00,69.4,57.6,30.03,ESE,112,0.0,0.0,66,0.00,,---,0.00,VWS V14.01,2013-04-04 01:56:00,
2013-04-03 21:57:00,69.4,57.6,30.03,NE,45,0.0,0.0,66,0.00,,---,0.00,VWS V14.01,2013-04-04 01:57:00,
2013-04-03 21:58:00,69.4,57.6,30.03,East,90,0.0,0.0,66,0.00,,---,0.00,VWS V14.01,2013-04-04 01:58:00,
2013-04-03 21:59:00,69.4,57.6,30.03,East,90,0.0,0.0,66,0.00,,---,0.00,VWS V14.01,2013-04-04 01:59:00,
2013-04-03 22:00:00,69.4,58.4,30.03,ESE,112,0.0,0.0,68,0.00,,---,0.00,VWS V14.01,2013-04-04 02:00:00,
2013-04-03 22:01:00,69.4,58.4,30.03,ESE,112,0.0,0.0,68,0.00,,---,0.00,VWS V14.01,2013-04-04 02:01:00,
2013-04-03 22:02:00,69.3,57.8,30.03,SSE,158,0.0,0.0,67,0.00,,---,0.00,VWS V14.01,2013-04-04 02:02:00,
2013-04-03 22:03:00,69.3,57.8,30.03,SSE,158,0.0,0.0,67,0.00,,---,0.00,VWS V14.01,2013-04-04 02:03:00,
2013-04-03 22:04:00,69.3,57.8,30.03,SSE,158,0.0,0.0,67,0.00,,---,0.00,VWS V14.01,2013-04-04 02:04:00,
2013-04-03 22:05:00,69.3,57.8,30.03,SSE,158,0.0,0.0,67,0.00,,---,0.00,VWS V14.01,2013-04-04 02:05:00,
2013-04-03 22:06:00,69.3,57.8,30.03,SSE,158,0.0,0.0,67,0.00,,---,0.00,VWS V14.01,2013-04-04 02:06:00,
2013-04-03 22:07:00,69.3,57.8,30.03,SSE,158,0.0,0.0,67,0.00,,---,0.00,VWS V14.01,2013-04-04 02:07:00,
2013-04-03 22:08:00,69.4,60.4,30.03,SSE,158,0.0,0.0,73,0.00,,---,0.00,VWS V14.01,2013-04-04 02:08:00,
2013-04-03 22:09:00,69.4,60.4,30.03,South,180,0.0,0.0,73,0.00,,---,0.00,VWS V14.01,2013-04-04 02:09:00,
2013-04-03 22:10:00,69.4,61.2,30.03,SSE,158,0.0,0.0,75,0.00,,---,0.00,VWS V14.01,2013-04-04 02:10:00,
2013-04-03 22:11:00,69.4,61.2,30.03,SSE,158,0.0,0.0,75,0.00,,---,0.00,VWS V14.01,2013-04-04 02:11:00,
2013-04-03 22:12:00,69.4,61.5,30.03,SSE,158,0.0,0.0,76,0.00,,---,0.00,VWS V14.01,2013-04-04 02:12:00,
2013-04-03 22:13:00,69.4,61.5,30.03,SSE,158,0.0,0.0,76,0.00,,---,0.00,VWS V14.01,2013-04-04 02:13:00,
2013-04-03 22:14:00,69.4,61.9,30.03,SSE,158,3.6,3.6,77,0.00,,---,0.00,VWS V14.01,2013-04-04 02:14:00,
2013-04-03 22:15:00,69.4,62.3,30.03,SSE,158,2.9,3.8,78,0.00,,---,0.00,VWS V14.01,2013-04-04 02:15:00,
2013-04-03 22:16:00,69.4,62.3,30.03,SSE,158,2.9,3.8,78,0.00,,---,0.00,VWS V14.01,2013-04-04 02:16:00,
2013-04-03 22:17:00,69.6,62.5,30.03,SSE,158,0.9,4.0,78,0.00,,---,0.00,VWS V14.01,2013-04-04 02:17:00,
2013-04-03 22:18:00,69.6,62.1,30.03,ESE,112,1.1,3.6,77,0.00,,---,0.00,VWS V14.01,2013-04-04 02:18:00,
2013-04-03 22:19:00,69.4,61.9,30.03,SSE,158,0.0,1.1,77,0.00,,---,0.00,VWS V14.01,2013-04-04 02:19:00,
2013-04-03 22:20:00,69.4,61.2,30.03,SSE,158,0.0,0.0,75,0.00,,---,0.00,VWS V14.01,2013-04-04 02:20:00,
2013-04-03 22:21:00,69.4,61.2,30.03,SSE,158,0.0,0.0,75,0.00,,---,0.00,VWS V14.01,2013-04-04 02:21:00,
2013-04-03 22:22:00,69.6,61.7,30.03,South,180,0.0,3.1,76,0.00,,---,0.00,VWS V14.01,2013-04-04 02:22:00,
2013-04-03 22:23:00,69.6,61.7,30.03,SSE,158,2.0,2.9,76,0.00,,---,0.00,VWS V14.01,2013-04-04 02:23:00,
2013-04-03 22:24:00,69.6,62.1,30.03,SSE,158,0.0,2.0,77,0.00,,---,0.00,VWS V14.01,2013-04-04 02:24:00,
2013-04-03 22:25:00,69.4,61.5,30.03,SSW,202,0.0,0.0,76,0.00,,---,0.00,VWS V14.01,2013-04-04 02:25:00,
2013-04-03 22:26:00,69.4,61.5,30.03,SSW,202,0.0,0.0,76,0.00,,---,0.00,VWS V14.01,2013-04-04 02:26:00,
2013-04-03 22:27:00,69.4,61.5,30.03,SSE,158,0.0,0.0,76,0.00,,---,0.00,VWS V14.01,2013-04-04 02:27:00,
2013-04-03 22:28:00,69.3,61.0,30.03,West,270,0.0,0.0,75,0.00,,---,0.00,VWS V14.01,2013-04-04 02:28:00,
2013-04-03 22:29:00,69.3,61.0,30.03,ESE,112,0.0,0.0,75,0.00,,---,0.00,VWS V14.01,2013-04-04 02:29:00,
2013-04-03 22:30:00,69.3,60.6,30.03,WNW,292,0.0,0.0,74,0.00,,---,0.00,VWS V14.01,2013-04-04 02:30:00,
2013-04-03 22:31:00,69.3,60.6,30.03,NNW,338,0.0,0.0,74,0.00,,---,0.00,VWS V14.01,2013-04-04 02:31:00,
2013-04-03 22:32:00,69.3,60.6,30.03,North,0,0.0,0.0,74,0.00,,---,0.00,VWS V14.01,2013-04-04 02:32:00,
2013-04-03 22:33:00,69.3,61.0,30.03,NNW,338,0.0,0.0,75,0.00,,---,0.00,VWS V14.01,2013-04-04 02:33:00,
2013-04-03 22:34:00,69.3,61.0,30.03,NNW,338,0.0,0.0,75,0.00,,---,0.00,VWS V14.01,2013-04-04 02:34:00,
2013-04-03 22:35:00,69.1,60.8,30.03,North,0,0.0,0.0,75,0.00,,---,0.00,VWS V14.01,2013-04-04 02:35:00,
2013-04-03 22:36:00,69.1,60.8,30.03,North,0,0.0,0.0,75,0.00,,---,0.00,VWS V14.01,2013-04-04 02:36:00,
2013-04-03 22:37:00,69.1,60.8,30.03,NE,45,0.0,0.0,75,0.00,,---,0.00,VWS V14.01,2013-04-04 02:37:00,
2013-04-03 22:38:00,69.1,60.8,30.03,ENE,68,0.0,0.0,75,0.00,,---,0.00,VWS V14.01,2013-04-04 02:38:00,
2013-04-03 22:39:00,69.1,60.8,30.03,SSE,158,0.0,0.0,75,0.00,,---,0.00,VWS V14.01,2013-04-04 02:39:00,
2013-04-03 22:40:00,69.1,60.8,30.03,SSW,202,0.0,0.0,75,0.00,,---,0.00,VWS V14.01,2013-04-04 02:40:00,
2013-04-03 22:41:00,69.1,60.8,30.03,SSW,202,0.0,0.0,75,0.00,,---,0.00,VWS V14.01,2013-04-04 02:41:00,
2013-04-03 22:42:00,69.1,60.8,30.03,SSW,202,0.0,0.0,75,0.00,,---,0.00,VWS V14.01,2013-04-04 02:42:00,
2013-04-03 22:43:00,68.9,60.7,30.03,SSW,202,0.0,0.0,75,0.00,,---,0.00,VWS V14.01,2013-04-04 02:43:00,
2013-04-03 22:44:00,68.9,60.7,30.03,NNE,22,0.0,0.0,75,0.00,,---,0.00,VWS V14.01,2013-04-04 02:44:00,
2013-04-03 22:45:00,68.9,60.7,30.03,ESE,112,0.0,0.0,75,0.00,,---,0.00,VWS V14.01,2013-04-04 02:45:00,
2013-04-03 22:46:00,68.9,60.7,30.03,ESE,112,0.0,0.0,75,0.00,,---,0.00,VWS V14.01,2013-04-04 02:46:00,
2013-04-03 22:47:00,68.9,60.7,30.03,NNE,22,0.0,0.0,75,0.00,,---,0.00,VWS V14.01,2013-04-04 02:47:00,
2013-04-03 22:48:00,68.7,60.5,30.03,SE,135,0.0,0.0,75,0.00,,---,0.00,VWS V14.01,2013-04-04 02:48:00,
2013-04-03 22:49:00,68.7,60.9,30.03,SSW,202,0.0,0.0,76,0.00,,---,0.00,VWS V14.01,2013-04-04 02:49:00,
2013-04-03 22:50:00,68.7,60.9,30.03,SSE,158,0.0,0.0,76,0.00,,---,0.00,VWS V14.01,2013-04-04 02:50:00,
2013-04-03 22:51:00,68.7,60.9,30.03,SSE,158,0.0,0.0,76,0.00,,---,0.00,VWS V14.01,2013-04-04 02:51:00,
2013-04-03 22:52:00,68.7,60.9,30.03,SSE,158,0.0,0.0,76,0.00,,---,0.00,VWS V14.01,2013-04-04 02:52:00,
2013-04-03 22:53:00,68.7,60.9,30.03,SSE,158,0.0,0.0,76,0.00,,---,0.00,VWS V14.01,2013-04-04 02:53:00,
2013-04-03 22:54:00,68.7,60.9,30.03,SSE,158,0.0,0.0,76,0.00,,---,0.00,VWS V14.01,2013-04-04 02:54:00,
2013-04-03 22:55:00,68.7,60.5,30.03,SSE,158,0.0,0.0,75,0.00,,---,0.00,VWS V14.01,2013-04-04 02:55:00,
2013-04-03 22:56:00,68.7,60.5,30.03,SSE,158,0.0,0.0,75,0.00,,---,0.00,VWS V14.01,2013-04-04 02:56:00,
2013-04-03 22:57:00,68.7,60.5,30.00,SSE,158,0.0,0.0,75,0.00,,---,0.00,VWS V14.01,2013-04-04 02:57:00,
2013-04-03 22:58:00,68.7,60.5,30.00,SSE,158,0.0,0.0,75,0.00,,---,0.00,VWS V14.01,2013-04-04 02:58:00,
2013-04-03 22:59:00,68.7,60.5,30.00,SSE,158,0.0,0.0,75,0.00,,---,0.00,VWS V14.01,2013-04-04 02:59:00,
2013-04-03 23:00:00,68.7,62.0,30.00,SSE,158,2.7,2.7,79,0.00,,---,0.00,VWS V14.01,2013-04-04 03:00:00,
2013-04-03 23:01:00,68.7,61.6,30.00,SSE,158,0.0,0.0,78,0.00,,---,0.00,VWS V14.01,2013-04-04 03:01:00,
2013-04-03 23:02:00,68.7,62.0,30.00,South,180,0.0,3.1,79,0.00,,---,0.00,VWS V14.01,2013-04-04 03:02:00,
2013-04-03 23:03:00,68.7,62.7,30.00,South,180,1.6,3.8,81,0.00,,---,0.00,VWS V14.01,2013-04-04 03:03:00,
2013-04-03 23:04:00,68.7,63.0,30.00,SE,135,0.0,2.7,82,0.00,,---,0.00,VWS V14.01,2013-04-04 03:04:00,
2013-04-03 23:05:00,68.7,63.3,30.00,South,180,0.0,4.9,83,0.00,,---,0.00,VWS V14.01,2013-04-04 03:05:00,
2013-04-03 23:06:00,68.7,63.3,30.00,SSE,158,0.0,3.8,83,0.00,,---,0.00,VWS V14.01,2013-04-04 03:06:00,
2013-04-03 23:07:00,68.9,64.2,30.00,SSW,202,0.0,4.9,85,0.00,,---,0.00,VWS V14.01,2013-04-04 03:07:00,
2013-04-03 23:08:00,68.9,64.2,30.00,South,180,1.1,3.1,85,0.00,,---,0.00,VWS V14.01,2013-04-04 03:08:00,
2013-04-03 23:09:00,68.9,64.2,30.00,SSW,202,1.3,1.3,85,0.00,,---,0.00,VWS V14.01,2013-04-04 03:09:00,
2013-04-03 23:10:00,69.4,65.4,30.00,SSE,158,3.1,3.6,87,0.00,,---,0.00,VWS V14.01,2013-04-04 03:10:00,
2013-04-03 23:11:00,69.3,64.9,30.00,SSE,158,1.6,1.6,86,0.00,,---,0.00,VWS V14.01,2013-04-04 03:11:00,
2013-04-03 23:12:00,69.4,65.4,29.97,SSE,158,1.1,3.6,87,0.00,,---,0.00,VWS V14.01,2013-04-04 03:12:00,
2013-04-03 23:13:00,69.4,65.4,29.97,SSE,158,1.1,2.9,87,0.00,,---,0.00,VWS V14.01,2013-04-04 03:13:00,
2013-04-03 23:14:00,69.4,65.7,29.97,SSE,158,0.0,1.1,88,0.00,,---,0.00,VWS V14.01,2013-04-04 03:14:00,
2013-04-03 23:15:00,69.4,65.7,29.97,SSE,158,0.0,0.0,88,0.00,,---,0.00,VWS V14.01,2013-04-04 03:15:00,
2013-04-03 23:16:00,69.4,65.7,29.97,SSE,158,0.0,0.0,88,0.00,,---,0.00,VWS V14.01,2013-04-04 03:16:00,
2013-04-03 23:17:00,69.4,65.7,29.97,SSE,158,0.0,0.0,88,0.00,,---,0.00,VWS V14.01,2013-04-04 03:17:00,
2013-04-03 23:18:00,69.4,65.7,29.97,SSE,158,0.0,0.0,88,0.00,,---,0.00,VWS V14.01,2013-04-04 03:18:00,
2013-04-03 23:19:00,69.4,65.7,29.97,SSE,158,1.1,1.1,88,0.00,,---,0.00,VWS V14.01,2013-04-04 03:19:00,
2013-04-03 23:20:00,69.4,65.4,29.97,SSE,158,0.0,1.3,87,0.00,,---,0.00,VWS V14.01,2013-04-04 03:20:00,
2013-04-03 23:21:00,69.4,65.7,29.97,SSE,158,0.0,0.0,88,0.00,,---,0.00,VWS V14.01,2013-04-04 03:21:00,
2013-04-03 23:22:00,69.4,65.7,29.97,SSE,158,0.0,0.0,88,0.00,,---,0.00,VWS V14.01,2013-04-04 03:22:00,
2013-04-03 23:23:00,69.4,65.7,29.97,South,180,0.9,5.6,88,0.00,,---,0.00,VWS V14.01,2013-04-04 03:23:00,
2013-04-03 23:24:00,69.4,65.7,29.97,South,180,0.0,2.9,88,0.00,,---,0.00,VWS V14.01,2013-04-04 03:24:00,
2013-04-03 23:25:00,69.6,65.9,29.97,SSE,158,0.0,2.2,88,0.00,,---,0.00,VWS V14.01,2013-04-04 03:25:00,
2013-04-03 23:26:00,69.6,65.6,30.00,SSE,158,0.0,0.0,87,0.00,,---,0.00,VWS V14.01,2013-04-04 03:26:00,
2013-04-03 23:27:00,69.6,65.6,30.00,SSE,158,0.0,0.0,87,0.00,,---,0.00,VWS V14.01,2013-04-04 03:27:00,
2013-04-03 23:28:00,69.6,65.6,30.00,South,180,0.0,0.0,87,0.00,,---,0.00,VWS V14.01,2013-04-04 03:28:00,
2013-04-03 23:29:00,69.6,65.6,30.00,SSE,158,0.0,1.1,87,0.00,,---,0.00,VWS V14.01,2013-04-04 03:29:00,
2013-04-03 23:30:00,69.6,65.6,30.00,SSE,158,0.0,0.0,87,0.00,,---,0.00,VWS V14.01,2013-04-04 03:30:00,
2013-04-03 23:31:00,69.6,65.2,30.00,South,180,0.0,0.0,86,0.00,,---,0.00,VWS V14.01,2013-04-04 03:31:00,
2013-04-03 23:32:00,69.6,65.2,30.00,SSE,158,0.0,0.0,86,0.00,,---,0.00,VWS V14.01,2013-04-04 03:32:00,
2013-04-03 23:33:00,69.6,65.2,30.00,SSW,202,0.0,0.0,86,0.00,,---,0.00,VWS V14.01,2013-04-04 03:33:00,
2013-04-03 23:34:00,69.6,65.2,30.00,NE,45,0.0,0.0,86,0.00,,---,0.00,VWS V14.01,2013-04-04 03:34:00,
2013-04-03 23:35:00,69.6,64.9,30.00,ESE,112,0.0,0.0,85,0.00,,---,0.00,VWS V14.01,2013-04-04 03:35:00,
2013-04-03 23:36:00,69.8,65.1,30.00,WSW,248,0.9,0.9,85,0.00,,---,0.00,VWS V14.01,2013-04-04 03:36:00,
2013-04-03 23:37:00,69.8,65.1,30.00,WSW,248,0.9,0.9,85,0.00,,---,0.00,VWS V14.01,2013-04-04 03:37:00,
2013-04-03 23:38:00,69.8,65.1,30.00,SSE,158,0.0,0.9,85,0.00,,---,0.00,VWS V14.01,2013-04-04 03:38:00,
2013-04-03 23:39:00,69.8,65.1,30.00,SSE,158,0.0,0.0,85,0.00,,---,0.00,VWS V14.01,2013-04-04 03:39:00,
2013-04-03 23:40:00,69.8,64.8,30.00,SSW,202,0.0,0.9,84,0.00,,---,0.00,VWS V14.01,2013-04-04 03:40:00,
2013-04-03 23:41:00,70.0,65.3,30.03,South,180,0.0,0.0,85,0.00,,---,0.00,VWS V14.01,2013-04-04 03:41:00,
2013-04-03 23:42:00,70.0,65.3,30.03,South,180,0.0,0.0,85,0.00,,---,0.00,VWS V14.01,2013-04-04 03:42:00,
2013-04-03 23:43:00,70.0,65.3,30.03,SSE,158,0.0,0.0,85,0.00,,---,0.00,VWS V14.01,2013-04-04 03:43:00,
2013-04-03 23:44:00,70.2,65.4,30.03,SSE,158,0.0,3.4,85,0.00,,---,0.00,VWS V14.01,2013-04-04 03:44:00,
2013-04-03 23:45:00,70.2,65.8,30.03,SSW,202,0.0,0.0,86,0.00,,---,0.00,VWS V14.01,2013-04-04 03:45:00,
2013-04-03 23:46:00,70.2,65.4,30.03,SSW,202,1.6,1.6,85,0.00,,---,0.00,VWS V14.01,2013-04-04 03:46:00,
2013-04-03 23:47:00,70.2,65.4,30.03,SSW,202,1.6,1.6,85,0.00,,---,0.00,VWS V14.01,2013-04-04 03:47:00,
2013-04-03 23:48:00,70.2,65.4,30.03,South,180,0.0,1.6,85,0.00,,---,0.00,VWS V14.01,2013-04-04 03:48:00,
2013-04-03 23:49:00,70.2,65.4,30.03,SSE,158,0.0,0.0,85,0.00,,---,0.00,VWS V14.01,2013-04-04 03:49:00,
2013-04-03 23:50:00,70.2,65.4,30.03,SSE,158,0.0,0.9,85,0.00,,---,0.00,VWS V14.01,2013-04-04 03:50:00,
2013-04-03 23:51:00,70.2,65.8,30.03,SSE,158,2.0,2.7,86,0.00,,---,0.00,VWS V14.01,2013-04-04 03:51:00,
2013-04-03 23:52:00,70.2,65.8,30.03,SSE,158,2.0,2.7,86,0.00,,---,0.00,VWS V14.01,2013-04-04 03:52:00,
2013-04-03 23:53:00,70.2,65.8,30.03,SSE,158,1.3,2.9,86,0.00,,---,0.00,VWS V14.01,2013-04-04 03:53:00,
2013-04-03 23:54:00,70.2,65.8,30.03,SSE,158,2.5,2.5,86,0.00,,---,0.00,VWS V14.01,2013-04-04 03:54:00,
2013-04-03 23:55:00,70.2,65.8,30.03,SSE,158,0.0,3.4,86,0.00,,---,0.00,VWS V14.01,2013-04-04 03:55:00,
2013-04-03 23:56:00,70.3,66.0,29.97,SSE,158,0.0,5.8,86,0.00,,---,0.00,VWS V14.01,2013-04-04 03:56:00,
2013-04-03 23:57:00,70.3,66.0,29.97,SSE,158,0.0,5.8,86,0.00,,---,0.00,VWS V14.01,2013-04-04 03:57:00,
2013-04-03 23:58:00,70.3,66.3,29.97,SSE,158,0.0,1.3,87,0.00,,---,0.00,VWS V14.01,2013-04-04 03:58:00,
2013-04-03 23:59:00,70.3,66.3,29.97,SSE,158,0.0,7.2,87,0.00,,---,0.00,VWS V14.01,2013-04-04 03:59:00,